<?xml version="1.0" encoding="UTF-8"?>
<gpx creator="StravaGPX" version="1.1" xmlns="http://www.topografix.com/GPX/1/1" xmlns:xsi="http://www.w3.org/2001/XMLSchema-instance" xsi:schemaLocation="http://www.topografix.com/GPX/1/1 http://www.topografix.com/GPX/1/1/gpx.xsd">
 <metadata>
  <time>2026-06-21T05:08:10Z</time>
 </metadata>
 <trk>
  <name>Day 2 Umbwe route Kilimanjaro</name>
  <type>hiking</type>
  <trkseg>
   <trkpt lat="-3.1274290" lon="37.3111940">
    <ele>2883.5</ele>
    <time>2026-06-21T05:08:10Z</time>
   </trkpt>
   <trkpt lat="-3.1274060" lon="37.3111760">
    <ele>2883.8</ele>
    <time>2026-06-21T05:08:19Z</time>
   </trkpt>
   <trkpt lat="-3.1273890" lon="37.3111550">
    <ele>2884.1</ele>
    <time>2026-06-21T05:08:23Z</time>
   </trkpt>
   <trkpt lat="-3.1274180" lon="37.3111770">
    <ele>2884.5</ele>
    <time>2026-06-21T05:08:27Z</time>
   </trkpt>
   <trkpt lat="-3.1273520" lon="37.3111820">
    <ele>2885.3</ele>
    <time>2026-06-21T05:09:56Z</time>
   </trkpt>
   <trkpt lat="-3.1273320" lon="37.3112040">
    <ele>2885.7</ele>
    <time>2026-06-21T05:10:05Z</time>
   </trkpt>
   <trkpt lat="-3.1272960" lon="37.3111970">
    <ele>2886.4</ele>
    <time>2026-06-21T05:10:37Z</time>
   </trkpt>
   <trkpt lat="-3.1273500" lon="37.3110780">
    <ele>2889.5</ele>
    <time>2026-06-21T05:11:22Z</time>
   </trkpt>
   <trkpt lat="-3.1273280" lon="37.3110690">
    <ele>2890.0</ele>
    <time>2026-06-21T05:11:29Z</time>
   </trkpt>
   <trkpt lat="-3.1273030" lon="37.3110160">
    <ele>2891.4</ele>
    <time>2026-06-21T05:11:43Z</time>
   </trkpt>
   <trkpt lat="-3.1273270" lon="37.3110000">
    <ele>2892.1</ele>
    <time>2026-06-21T05:11:52Z</time>
   </trkpt>
   <trkpt lat="-3.1273070" lon="37.3109870">
    <ele>2892.7</ele>
    <time>2026-06-21T05:11:58Z</time>
   </trkpt>
   <trkpt lat="-3.1272850" lon="37.3109780">
    <ele>2893.2</ele>
    <time>2026-06-21T05:12:03Z</time>
   </trkpt>
   <trkpt lat="-3.1272910" lon="37.3109540">
    <ele>2893.8</ele>
    <time>2026-06-21T05:12:16Z</time>
   </trkpt>
   <trkpt lat="-3.1272620" lon="37.3109600">
    <ele>2894.6</ele>
    <time>2026-06-21T05:12:39Z</time>
   </trkpt>
   <trkpt lat="-3.1272530" lon="37.3109810">
    <ele>2895.2</ele>
    <time>2026-06-21T05:12:43Z</time>
   </trkpt>
   <trkpt lat="-3.1271150" lon="37.3111040">
    <ele>2900.6</ele>
    <time>2026-06-21T05:13:50Z</time>
   </trkpt>
   <trkpt lat="-3.1270910" lon="37.3110970">
    <ele>2901.4</ele>
    <time>2026-06-21T05:14:02Z</time>
   </trkpt>
   <trkpt lat="-3.1270860" lon="37.3111220">
    <ele>2902.1</ele>
    <time>2026-06-21T05:14:18Z</time>
   </trkpt>
   <trkpt lat="-3.1270690" lon="37.3111460">
    <ele>2903.0</ele>
    <time>2026-06-21T05:14:40Z</time>
   </trkpt>
   <trkpt lat="-3.1270510" lon="37.3111610">
    <ele>2903.8</ele>
    <time>2026-06-21T05:14:45Z</time>
   </trkpt>
   <trkpt lat="-3.1270270" lon="37.3111640">
    <ele>2904.6</ele>
    <time>2026-06-21T05:14:51Z</time>
   </trkpt>
   <trkpt lat="-3.1269990" lon="37.3111650">
    <ele>2905.5</ele>
    <time>2026-06-21T05:15:04Z</time>
   </trkpt>
   <trkpt lat="-3.1269730" lon="37.3111620">
    <ele>2906.4</ele>
    <time>2026-06-21T05:15:09Z</time>
   </trkpt>
   <trkpt lat="-3.1269830" lon="37.3111310">
    <ele>2907.5</ele>
    <time>2026-06-21T05:15:32Z</time>
   </trkpt>
   <trkpt lat="-3.1269570" lon="37.3111390">
    <ele>2908.4</ele>
    <time>2026-06-21T05:15:39Z</time>
   </trkpt>
   <trkpt lat="-3.1269410" lon="37.3111590">
    <ele>2909.2</ele>
    <time>2026-06-21T05:15:41Z</time>
   </trkpt>
   <trkpt lat="-3.1269190" lon="37.3111470">
    <ele>2910.0</ele>
    <time>2026-06-21T05:15:49Z</time>
   </trkpt>
   <trkpt lat="-3.1268910" lon="37.3111400">
    <ele>2910.9</ele>
    <time>2026-06-21T05:15:55Z</time>
   </trkpt>
   <trkpt lat="-3.1268640" lon="37.3111400">
    <ele>2911.7</ele>
    <time>2026-06-21T05:16:03Z</time>
   </trkpt>
   <trkpt lat="-3.1268400" lon="37.3111330">
    <ele>2912.5</ele>
    <time>2026-06-21T05:16:15Z</time>
   </trkpt>
   <trkpt lat="-3.1268180" lon="37.3111400">
    <ele>2913.3</ele>
    <time>2026-06-21T05:16:20Z</time>
   </trkpt>
   <trkpt lat="-3.1267940" lon="37.3111530">
    <ele>2914.1</ele>
    <time>2026-06-21T05:16:28Z</time>
   </trkpt>
   <trkpt lat="-3.1266610" lon="37.3112380">
    <ele>2919.1</ele>
    <time>2026-06-21T05:17:10Z</time>
   </trkpt>
   <trkpt lat="-3.1266380" lon="37.3112470">
    <ele>2919.8</ele>
    <time>2026-06-21T05:17:15Z</time>
   </trkpt>
   <trkpt lat="-3.1266180" lon="37.3112710">
    <ele>2920.7</ele>
    <time>2026-06-21T05:17:19Z</time>
   </trkpt>
   <trkpt lat="-3.1266030" lon="37.3112880">
    <ele>2921.4</ele>
    <time>2026-06-21T05:17:21Z</time>
   </trkpt>
   <trkpt lat="-3.1265800" lon="37.3113020">
    <ele>2922.1</ele>
    <time>2026-06-21T05:17:25Z</time>
   </trkpt>
   <trkpt lat="-3.1265600" lon="37.3113120">
    <ele>2922.7</ele>
    <time>2026-06-21T05:17:30Z</time>
   </trkpt>
   <trkpt lat="-3.1265520" lon="37.3113350">
    <ele>2923.3</ele>
    <time>2026-06-21T05:17:35Z</time>
   </trkpt>
   <trkpt lat="-3.1265430" lon="37.3113660">
    <ele>2924.1</ele>
    <time>2026-06-21T05:17:39Z</time>
   </trkpt>
   <trkpt lat="-3.1265340" lon="37.3113920">
    <ele>2924.8</ele>
    <time>2026-06-21T05:17:41Z</time>
   </trkpt>
   <trkpt lat="-3.1265130" lon="37.3114060">
    <ele>2925.5</ele>
    <time>2026-06-21T05:17:46Z</time>
   </trkpt>
   <trkpt lat="-3.1264910" lon="37.3114110">
    <ele>2926.0</ele>
    <time>2026-06-21T05:17:49Z</time>
   </trkpt>
   <trkpt lat="-3.1264650" lon="37.3114140">
    <ele>2926.7</ele>
    <time>2026-06-21T05:17:54Z</time>
   </trkpt>
   <trkpt lat="-3.1264420" lon="37.3114220">
    <ele>2927.3</ele>
    <time>2026-06-21T05:18:08Z</time>
   </trkpt>
   <trkpt lat="-3.1264260" lon="37.3114450">
    <ele>2928.0</ele>
    <time>2026-06-21T05:18:12Z</time>
   </trkpt>
   <trkpt lat="-3.1264040" lon="37.3114530">
    <ele>2928.6</ele>
    <time>2026-06-21T05:18:15Z</time>
   </trkpt>
   <trkpt lat="-3.1263900" lon="37.3114750">
    <ele>2929.3</ele>
    <time>2026-06-21T05:18:22Z</time>
   </trkpt>
   <trkpt lat="-3.1263880" lon="37.3115010">
    <ele>2929.9</ele>
    <time>2026-06-21T05:18:34Z</time>
   </trkpt>
   <trkpt lat="-3.1263600" lon="37.3115070">
    <ele>2930.6</ele>
    <time>2026-06-21T05:18:41Z</time>
   </trkpt>
   <trkpt lat="-3.1263370" lon="37.3115120">
    <ele>2931.2</ele>
    <time>2026-06-21T05:18:44Z</time>
   </trkpt>
   <trkpt lat="-3.1263120" lon="37.3115120">
    <ele>2931.7</ele>
    <time>2026-06-21T05:18:51Z</time>
   </trkpt>
   <trkpt lat="-3.1262870" lon="37.3115220">
    <ele>2932.3</ele>
    <time>2026-06-21T05:18:58Z</time>
   </trkpt>
   <trkpt lat="-3.1262630" lon="37.3115270">
    <ele>2932.9</ele>
    <time>2026-06-21T05:19:03Z</time>
   </trkpt>
   <trkpt lat="-3.1262400" lon="37.3115280">
    <ele>2933.4</ele>
    <time>2026-06-21T05:19:08Z</time>
   </trkpt>
   <trkpt lat="-3.1262160" lon="37.3115230">
    <ele>2933.9</ele>
    <time>2026-06-21T05:19:13Z</time>
   </trkpt>
   <trkpt lat="-3.1262010" lon="37.3115450">
    <ele>2934.5</ele>
    <time>2026-06-21T05:19:19Z</time>
   </trkpt>
   <trkpt lat="-3.1261830" lon="37.3115610">
    <ele>2935.0</ele>
    <time>2026-06-21T05:19:23Z</time>
   </trkpt>
   <trkpt lat="-3.1261580" lon="37.3115660">
    <ele>2935.6</ele>
    <time>2026-06-21T05:19:31Z</time>
   </trkpt>
   <trkpt lat="-3.1261350" lon="37.3115880">
    <ele>2936.4</ele>
    <time>2026-06-21T05:19:39Z</time>
   </trkpt>
   <trkpt lat="-3.1261110" lon="37.3115960">
    <ele>2937.0</ele>
    <time>2026-06-21T05:19:43Z</time>
   </trkpt>
   <trkpt lat="-3.1260840" lon="37.3116030">
    <ele>2937.8</ele>
    <time>2026-06-21T05:19:48Z</time>
   </trkpt>
   <trkpt lat="-3.1260610" lon="37.3116220">
    <ele>2938.5</ele>
    <time>2026-06-21T05:19:51Z</time>
   </trkpt>
   <trkpt lat="-3.1260340" lon="37.3116290">
    <ele>2939.3</ele>
    <time>2026-06-21T05:19:57Z</time>
   </trkpt>
   <trkpt lat="-3.1260210" lon="37.3116530">
    <ele>2940.0</ele>
    <time>2026-06-21T05:20:03Z</time>
   </trkpt>
   <trkpt lat="-3.1259960" lon="37.3116740">
    <ele>2940.9</ele>
    <time>2026-06-21T05:20:12Z</time>
   </trkpt>
   <trkpt lat="-3.1259910" lon="37.3116990">
    <ele>2941.6</ele>
    <time>2026-06-21T05:20:15Z</time>
   </trkpt>
   <trkpt lat="-3.1259880" lon="37.3117240">
    <ele>2942.3</ele>
    <time>2026-06-21T05:20:22Z</time>
   </trkpt>
   <trkpt lat="-3.1259890" lon="37.3117460">
    <ele>2942.9</ele>
    <time>2026-06-21T05:20:28Z</time>
   </trkpt>
   <trkpt lat="-3.1259810" lon="37.3117680">
    <ele>2943.5</ele>
    <time>2026-06-21T05:20:32Z</time>
   </trkpt>
   <trkpt lat="-3.1259770" lon="37.3117910">
    <ele>2944.2</ele>
    <time>2026-06-21T05:20:37Z</time>
   </trkpt>
   <trkpt lat="-3.1260000" lon="37.3117890">
    <ele>2944.8</ele>
    <time>2026-06-21T05:20:41Z</time>
   </trkpt>
   <trkpt lat="-3.1260070" lon="37.3118110">
    <ele>2945.4</ele>
    <time>2026-06-21T05:20:48Z</time>
   </trkpt>
   <trkpt lat="-3.1259930" lon="37.3118330">
    <ele>2946.1</ele>
    <time>2026-06-21T05:20:56Z</time>
   </trkpt>
   <trkpt lat="-3.1259830" lon="37.3118530">
    <ele>2946.7</ele>
    <time>2026-06-21T05:21:01Z</time>
   </trkpt>
   <trkpt lat="-3.1259590" lon="37.3118570">
    <ele>2947.3</ele>
    <time>2026-06-21T05:21:07Z</time>
   </trkpt>
   <trkpt lat="-3.1259500" lon="37.3118800">
    <ele>2947.9</ele>
    <time>2026-06-21T05:21:15Z</time>
   </trkpt>
   <trkpt lat="-3.1259150" lon="37.3119050">
    <ele>2949.0</ele>
    <time>2026-06-21T05:21:25Z</time>
   </trkpt>
   <trkpt lat="-3.1257810" lon="37.3120340">
    <ele>2953.9</ele>
    <time>2026-06-21T05:22:06Z</time>
   </trkpt>
   <trkpt lat="-3.1255960" lon="37.3120800">
    <ele>2958.3</ele>
    <time>2026-06-21T05:23:11Z</time>
   </trkpt>
   <trkpt lat="-3.1253840" lon="37.3121150">
    <ele>2962.9</ele>
    <time>2026-06-21T05:24:08Z</time>
   </trkpt>
   <trkpt lat="-3.1253600" lon="37.3121140">
    <ele>2963.4</ele>
    <time>2026-06-21T05:24:15Z</time>
   </trkpt>
   <trkpt lat="-3.1253460" lon="37.3120930">
    <ele>2964.0</ele>
    <time>2026-06-21T05:24:23Z</time>
   </trkpt>
   <trkpt lat="-3.1253250" lon="37.3121000">
    <ele>2964.5</ele>
    <time>2026-06-21T05:24:29Z</time>
   </trkpt>
   <trkpt lat="-3.1252980" lon="37.3120990">
    <ele>2965.1</ele>
    <time>2026-06-21T05:24:34Z</time>
   </trkpt>
   <trkpt lat="-3.1252370" lon="37.3120900">
    <ele>2966.5</ele>
    <time>2026-06-21T05:24:58Z</time>
   </trkpt>
   <trkpt lat="-3.1252150" lon="37.3120890">
    <ele>2967.0</ele>
    <time>2026-06-21T05:25:05Z</time>
   </trkpt>
   <trkpt lat="-3.1252000" lon="37.3121150">
    <ele>2967.6</ele>
    <time>2026-06-21T05:25:11Z</time>
   </trkpt>
   <trkpt lat="-3.1250790" lon="37.3121360">
    <ele>2969.9</ele>
    <time>2026-06-21T05:25:45Z</time>
   </trkpt>
   <trkpt lat="-3.1250510" lon="37.3121370">
    <ele>2970.4</ele>
    <time>2026-06-21T05:25:49Z</time>
   </trkpt>
   <trkpt lat="-3.1250280" lon="37.3121460">
    <ele>2970.8</ele>
    <time>2026-06-21T05:25:53Z</time>
   </trkpt>
   <trkpt lat="-3.1249960" lon="37.3121800">
    <ele>2971.5</ele>
    <time>2026-06-21T05:25:59Z</time>
   </trkpt>
   <trkpt lat="-3.1249820" lon="37.3122040">
    <ele>2971.9</ele>
    <time>2026-06-21T05:26:03Z</time>
   </trkpt>
   <trkpt lat="-3.1249620" lon="37.3122260">
    <ele>2972.3</ele>
    <time>2026-06-21T05:26:09Z</time>
   </trkpt>
   <trkpt lat="-3.1246730" lon="37.3123380">
    <ele>2975.7</ele>
    <time>2026-06-21T05:27:57Z</time>
   </trkpt>
   <trkpt lat="-3.1246540" lon="37.3123570">
    <ele>2975.8</ele>
    <time>2026-06-21T05:28:00Z</time>
   </trkpt>
   <trkpt lat="-3.1246320" lon="37.3123680">
    <ele>2975.9</ele>
    <time>2026-06-21T05:28:03Z</time>
   </trkpt>
   <trkpt lat="-3.1246150" lon="37.3123840">
    <ele>2976.0</ele>
    <time>2026-06-21T05:28:07Z</time>
   </trkpt>
   <trkpt lat="-3.1245970" lon="37.3124030">
    <ele>2976.0</ele>
    <time>2026-06-21T05:28:10Z</time>
   </trkpt>
   <trkpt lat="-3.1245830" lon="37.3124290">
    <ele>2976.1</ele>
    <time>2026-06-21T05:28:14Z</time>
   </trkpt>
   <trkpt lat="-3.1245750" lon="37.3124500">
    <ele>2976.1</ele>
    <time>2026-06-21T05:28:18Z</time>
   </trkpt>
   <trkpt lat="-3.1245530" lon="37.3124570">
    <ele>2976.2</ele>
    <time>2026-06-21T05:28:25Z</time>
   </trkpt>
   <trkpt lat="-3.1245340" lon="37.3124720">
    <ele>2976.2</ele>
    <time>2026-06-21T05:28:30Z</time>
   </trkpt>
   <trkpt lat="-3.1245140" lon="37.3124880">
    <ele>2976.2</ele>
    <time>2026-06-21T05:28:36Z</time>
   </trkpt>
   <trkpt lat="-3.1245080" lon="37.3125100">
    <ele>2976.2</ele>
    <time>2026-06-21T05:28:47Z</time>
   </trkpt>
   <trkpt lat="-3.1244910" lon="37.3125270">
    <ele>2976.1</ele>
    <time>2026-06-21T05:28:55Z</time>
   </trkpt>
   <trkpt lat="-3.1244950" lon="37.3125500">
    <ele>2976.0</ele>
    <time>2026-06-21T05:29:01Z</time>
   </trkpt>
   <trkpt lat="-3.1244750" lon="37.3125660">
    <ele>2975.9</ele>
    <time>2026-06-21T05:29:12Z</time>
   </trkpt>
   <trkpt lat="-3.1244560" lon="37.3125890">
    <ele>2975.7</ele>
    <time>2026-06-21T05:29:17Z</time>
   </trkpt>
   <trkpt lat="-3.1244380" lon="37.3126030">
    <ele>2975.6</ele>
    <time>2026-06-21T05:29:21Z</time>
   </trkpt>
   <trkpt lat="-3.1244250" lon="37.3126280">
    <ele>2975.4</ele>
    <time>2026-06-21T05:29:25Z</time>
   </trkpt>
   <trkpt lat="-3.1244130" lon="37.3126480">
    <ele>2975.3</ele>
    <time>2026-06-21T05:29:31Z</time>
   </trkpt>
   <trkpt lat="-3.1243940" lon="37.3126610">
    <ele>2975.3</ele>
    <time>2026-06-21T05:29:34Z</time>
   </trkpt>
   <trkpt lat="-3.1243720" lon="37.3126690">
    <ele>2975.3</ele>
    <time>2026-06-21T05:29:38Z</time>
   </trkpt>
   <trkpt lat="-3.1243520" lon="37.3126800">
    <ele>2975.3</ele>
    <time>2026-06-21T05:29:41Z</time>
   </trkpt>
   <trkpt lat="-3.1243350" lon="37.3127090">
    <ele>2975.6</ele>
    <time>2026-06-21T05:29:45Z</time>
   </trkpt>
   <trkpt lat="-3.1243130" lon="37.3127260">
    <ele>2975.8</ele>
    <time>2026-06-21T05:29:51Z</time>
   </trkpt>
   <trkpt lat="-3.1242890" lon="37.3127270">
    <ele>2976.2</ele>
    <time>2026-06-21T05:29:59Z</time>
   </trkpt>
   <trkpt lat="-3.1242710" lon="37.3127520">
    <ele>2976.7</ele>
    <time>2026-06-21T05:30:07Z</time>
   </trkpt>
   <trkpt lat="-3.1242460" lon="37.3127440">
    <ele>2977.1</ele>
    <time>2026-06-21T05:30:11Z</time>
   </trkpt>
   <trkpt lat="-3.1242210" lon="37.3127620">
    <ele>2977.8</ele>
    <time>2026-06-21T05:30:16Z</time>
   </trkpt>
   <trkpt lat="-3.1241950" lon="37.3127710">
    <ele>2978.4</ele>
    <time>2026-06-21T05:30:24Z</time>
   </trkpt>
   <trkpt lat="-3.1241750" lon="37.3127820">
    <ele>2979.0</ele>
    <time>2026-06-21T05:30:31Z</time>
   </trkpt>
   <trkpt lat="-3.1241520" lon="37.3127760">
    <ele>2979.6</ele>
    <time>2026-06-21T05:30:36Z</time>
   </trkpt>
   <trkpt lat="-3.1241300" lon="37.3127820">
    <ele>2980.1</ele>
    <time>2026-06-21T05:30:41Z</time>
   </trkpt>
   <trkpt lat="-3.1241100" lon="37.3127970">
    <ele>2980.7</ele>
    <time>2026-06-21T05:30:46Z</time>
   </trkpt>
   <trkpt lat="-3.1240880" lon="37.3127980">
    <ele>2981.3</ele>
    <time>2026-06-21T05:30:54Z</time>
   </trkpt>
   <trkpt lat="-3.1240840" lon="37.3128210">
    <ele>2981.9</ele>
    <time>2026-06-21T05:33:33Z</time>
   </trkpt>
   <trkpt lat="-3.1240790" lon="37.3127980">
    <ele>2982.5</ele>
    <time>2026-06-21T05:34:40Z</time>
   </trkpt>
   <trkpt lat="-3.1240570" lon="37.3127880">
    <ele>2983.0</ele>
    <time>2026-06-21T05:34:54Z</time>
   </trkpt>
   <trkpt lat="-3.1240450" lon="37.3128130">
    <ele>2983.7</ele>
    <time>2026-06-21T05:35:12Z</time>
   </trkpt>
   <trkpt lat="-3.1240220" lon="37.3128070">
    <ele>2984.2</ele>
    <time>2026-06-21T05:35:21Z</time>
   </trkpt>
   <trkpt lat="-3.1240020" lon="37.3128230">
    <ele>2984.8</ele>
    <time>2026-06-21T05:35:29Z</time>
   </trkpt>
   <trkpt lat="-3.1239790" lon="37.3128320">
    <ele>2985.3</ele>
    <time>2026-06-21T05:35:36Z</time>
   </trkpt>
   <trkpt lat="-3.1239700" lon="37.3128540">
    <ele>2985.8</ele>
    <time>2026-06-21T05:35:43Z</time>
   </trkpt>
   <trkpt lat="-3.1239700" lon="37.3128840">
    <ele>2986.3</ele>
    <time>2026-06-21T05:35:49Z</time>
   </trkpt>
   <trkpt lat="-3.1239540" lon="37.3129040">
    <ele>2986.7</ele>
    <time>2026-06-21T05:35:54Z</time>
   </trkpt>
   <trkpt lat="-3.1239310" lon="37.3129120">
    <ele>2987.1</ele>
    <time>2026-06-21T05:35:57Z</time>
   </trkpt>
   <trkpt lat="-3.1239170" lon="37.3129300">
    <ele>2987.4</ele>
    <time>2026-06-21T05:36:01Z</time>
   </trkpt>
   <trkpt lat="-3.1239010" lon="37.3129520">
    <ele>2987.8</ele>
    <time>2026-06-21T05:36:07Z</time>
   </trkpt>
   <trkpt lat="-3.1238810" lon="37.3129770">
    <ele>2988.2</ele>
    <time>2026-06-21T05:36:12Z</time>
   </trkpt>
   <trkpt lat="-3.1238570" lon="37.3129810">
    <ele>2988.5</ele>
    <time>2026-06-21T05:36:18Z</time>
   </trkpt>
   <trkpt lat="-3.1238330" lon="37.3129900">
    <ele>2988.9</ele>
    <time>2026-06-21T05:36:23Z</time>
   </trkpt>
   <trkpt lat="-3.1238140" lon="37.3130120">
    <ele>2989.5</ele>
    <time>2026-06-21T05:36:27Z</time>
   </trkpt>
   <trkpt lat="-3.1237970" lon="37.3130280">
    <ele>2989.9</ele>
    <time>2026-06-21T05:36:30Z</time>
   </trkpt>
   <trkpt lat="-3.1237750" lon="37.3130360">
    <ele>2990.4</ele>
    <time>2026-06-21T05:36:35Z</time>
   </trkpt>
   <trkpt lat="-3.1237580" lon="37.3130520">
    <ele>2990.9</ele>
    <time>2026-06-21T05:36:38Z</time>
   </trkpt>
   <trkpt lat="-3.1237370" lon="37.3130660">
    <ele>2991.5</ele>
    <time>2026-06-21T05:36:42Z</time>
   </trkpt>
   <trkpt lat="-3.1237190" lon="37.3130800">
    <ele>2992.0</ele>
    <time>2026-06-21T05:36:47Z</time>
   </trkpt>
   <trkpt lat="-3.1237010" lon="37.3130970">
    <ele>2992.6</ele>
    <time>2026-06-21T05:36:52Z</time>
   </trkpt>
   <trkpt lat="-3.1236810" lon="37.3131140">
    <ele>2993.2</ele>
    <time>2026-06-21T05:36:59Z</time>
   </trkpt>
   <trkpt lat="-3.1236770" lon="37.3131370">
    <ele>2993.6</ele>
    <time>2026-06-21T05:37:07Z</time>
   </trkpt>
   <trkpt lat="-3.1236540" lon="37.3131450">
    <ele>2994.1</ele>
    <time>2026-06-21T05:37:14Z</time>
   </trkpt>
   <trkpt lat="-3.1236270" lon="37.3131510">
    <ele>2994.5</ele>
    <time>2026-06-21T05:37:20Z</time>
   </trkpt>
   <trkpt lat="-3.1236020" lon="37.3131530">
    <ele>2994.9</ele>
    <time>2026-06-21T05:37:28Z</time>
   </trkpt>
   <trkpt lat="-3.1235800" lon="37.3131440">
    <ele>2995.2</ele>
    <time>2026-06-21T05:37:33Z</time>
   </trkpt>
   <trkpt lat="-3.1235540" lon="37.3131520">
    <ele>2995.5</ele>
    <time>2026-06-21T05:37:37Z</time>
   </trkpt>
   <trkpt lat="-3.1235330" lon="37.3131650">
    <ele>2995.8</ele>
    <time>2026-06-21T05:37:42Z</time>
   </trkpt>
   <trkpt lat="-3.1235120" lon="37.3131860">
    <ele>2996.2</ele>
    <time>2026-06-21T05:37:47Z</time>
   </trkpt>
   <trkpt lat="-3.1234900" lon="37.3131990">
    <ele>2996.5</ele>
    <time>2026-06-21T05:37:50Z</time>
   </trkpt>
   <trkpt lat="-3.1234680" lon="37.3132100">
    <ele>2996.9</ele>
    <time>2026-06-21T05:37:55Z</time>
   </trkpt>
   <trkpt lat="-3.1234570" lon="37.3132340">
    <ele>2997.3</ele>
    <time>2026-06-21T05:37:59Z</time>
   </trkpt>
   <trkpt lat="-3.1234370" lon="37.3132430">
    <ele>2997.7</ele>
    <time>2026-06-21T05:38:03Z</time>
   </trkpt>
   <trkpt lat="-3.1234230" lon="37.3132650">
    <ele>2998.2</ele>
    <time>2026-06-21T05:38:09Z</time>
   </trkpt>
   <trkpt lat="-3.1234090" lon="37.3132900">
    <ele>2998.8</ele>
    <time>2026-06-21T05:38:14Z</time>
   </trkpt>
   <trkpt lat="-3.1233970" lon="37.3133100">
    <ele>2999.3</ele>
    <time>2026-06-21T05:38:24Z</time>
   </trkpt>
   <trkpt lat="-3.1233840" lon="37.3133310">
    <ele>2999.8</ele>
    <time>2026-06-21T05:38:31Z</time>
   </trkpt>
   <trkpt lat="-3.1233650" lon="37.3133470">
    <ele>3000.2</ele>
    <time>2026-06-21T05:38:39Z</time>
   </trkpt>
   <trkpt lat="-3.1233640" lon="37.3133710">
    <ele>3000.6</ele>
    <time>2026-06-21T05:38:47Z</time>
   </trkpt>
   <trkpt lat="-3.1233620" lon="37.3133960">
    <ele>3001.0</ele>
    <time>2026-06-21T05:38:53Z</time>
   </trkpt>
   <trkpt lat="-3.1233550" lon="37.3134200">
    <ele>3001.3</ele>
    <time>2026-06-21T05:38:57Z</time>
   </trkpt>
   <trkpt lat="-3.1233410" lon="37.3134390">
    <ele>3001.5</ele>
    <time>2026-06-21T05:39:03Z</time>
   </trkpt>
   <trkpt lat="-3.1233300" lon="37.3134600">
    <ele>3001.7</ele>
    <time>2026-06-21T05:39:12Z</time>
   </trkpt>
   <trkpt lat="-3.1233230" lon="37.3134830">
    <ele>3001.9</ele>
    <time>2026-06-21T05:39:17Z</time>
   </trkpt>
   <trkpt lat="-3.1233060" lon="37.3135020">
    <ele>3002.0</ele>
    <time>2026-06-21T05:39:22Z</time>
   </trkpt>
   <trkpt lat="-3.1232830" lon="37.3135200">
    <ele>3002.2</ele>
    <time>2026-06-21T05:39:27Z</time>
   </trkpt>
   <trkpt lat="-3.1232560" lon="37.3135310">
    <ele>3002.3</ele>
    <time>2026-06-21T05:39:35Z</time>
   </trkpt>
   <trkpt lat="-3.1232320" lon="37.3135330">
    <ele>3002.4</ele>
    <time>2026-06-21T05:39:39Z</time>
   </trkpt>
   <trkpt lat="-3.1232040" lon="37.3135460">
    <ele>3002.5</ele>
    <time>2026-06-21T05:39:49Z</time>
   </trkpt>
   <trkpt lat="-3.1231900" lon="37.3135720">
    <ele>3002.6</ele>
    <time>2026-06-21T05:39:56Z</time>
   </trkpt>
   <trkpt lat="-3.1231730" lon="37.3135940">
    <ele>3002.7</ele>
    <time>2026-06-21T05:40:01Z</time>
   </trkpt>
   <trkpt lat="-3.1231570" lon="37.3136170">
    <ele>3002.7</ele>
    <time>2026-06-21T05:40:04Z</time>
   </trkpt>
   <trkpt lat="-3.1231420" lon="37.3136340">
    <ele>3002.7</ele>
    <time>2026-06-21T05:40:08Z</time>
   </trkpt>
   <trkpt lat="-3.1231290" lon="37.3136530">
    <ele>3002.7</ele>
    <time>2026-06-21T05:40:14Z</time>
   </trkpt>
   <trkpt lat="-3.1231090" lon="37.3136680">
    <ele>3002.6</ele>
    <time>2026-06-21T05:40:18Z</time>
   </trkpt>
   <trkpt lat="-3.1231000" lon="37.3136910">
    <ele>3002.5</ele>
    <time>2026-06-21T05:40:22Z</time>
   </trkpt>
   <trkpt lat="-3.1230850" lon="37.3137090">
    <ele>3002.4</ele>
    <time>2026-06-21T05:40:25Z</time>
   </trkpt>
   <trkpt lat="-3.1230670" lon="37.3137250">
    <ele>3002.3</ele>
    <time>2026-06-21T05:40:29Z</time>
   </trkpt>
   <trkpt lat="-3.1230540" lon="37.3137440">
    <ele>3002.3</ele>
    <time>2026-06-21T05:40:33Z</time>
   </trkpt>
   <trkpt lat="-3.1230350" lon="37.3137610">
    <ele>3002.2</ele>
    <time>2026-06-21T05:40:41Z</time>
   </trkpt>
   <trkpt lat="-3.1230170" lon="37.3137770">
    <ele>3002.0</ele>
    <time>2026-06-21T05:40:46Z</time>
   </trkpt>
   <trkpt lat="-3.1230070" lon="37.3138030">
    <ele>3001.8</ele>
    <time>2026-06-21T05:41:53Z</time>
   </trkpt>
   <trkpt lat="-3.1229840" lon="37.3138140">
    <ele>3001.6</ele>
    <time>2026-06-21T05:42:00Z</time>
   </trkpt>
   <trkpt lat="-3.1229640" lon="37.3138270">
    <ele>3001.4</ele>
    <time>2026-06-21T05:42:13Z</time>
   </trkpt>
   <trkpt lat="-3.1229410" lon="37.3138380">
    <ele>3001.1</ele>
    <time>2026-06-21T05:42:19Z</time>
   </trkpt>
   <trkpt lat="-3.1229110" lon="37.3138310">
    <ele>3000.7</ele>
    <time>2026-06-21T05:42:47Z</time>
   </trkpt>
   <trkpt lat="-3.1228920" lon="37.3138540">
    <ele>3000.4</ele>
    <time>2026-06-21T05:42:52Z</time>
   </trkpt>
   <trkpt lat="-3.1228710" lon="37.3138700">
    <ele>3000.0</ele>
    <time>2026-06-21T05:42:57Z</time>
   </trkpt>
   <trkpt lat="-3.1228480" lon="37.3138830">
    <ele>2999.7</ele>
    <time>2026-06-21T05:42:59Z</time>
   </trkpt>
   <trkpt lat="-3.1228270" lon="37.3139120">
    <ele>2999.3</ele>
    <time>2026-06-21T05:43:04Z</time>
   </trkpt>
   <trkpt lat="-3.1228070" lon="37.3139290">
    <ele>2999.0</ele>
    <time>2026-06-21T05:43:08Z</time>
   </trkpt>
   <trkpt lat="-3.1227940" lon="37.3139480">
    <ele>2998.7</ele>
    <time>2026-06-21T05:43:27Z</time>
   </trkpt>
   <trkpt lat="-3.1227730" lon="37.3139600">
    <ele>2998.5</ele>
    <time>2026-06-21T05:43:39Z</time>
   </trkpt>
   <trkpt lat="-3.1227500" lon="37.3139660">
    <ele>2998.3</ele>
    <time>2026-06-21T05:43:45Z</time>
   </trkpt>
   <trkpt lat="-3.1227240" lon="37.3139640">
    <ele>2998.2</ele>
    <time>2026-06-21T05:43:55Z</time>
   </trkpt>
   <trkpt lat="-3.1227030" lon="37.3139540">
    <ele>2998.1</ele>
    <time>2026-06-21T05:44:17Z</time>
   </trkpt>
   <trkpt lat="-3.1226750" lon="37.3139630">
    <ele>2998.1</ele>
    <time>2026-06-21T05:44:22Z</time>
   </trkpt>
   <trkpt lat="-3.1226530" lon="37.3139740">
    <ele>2998.2</ele>
    <time>2026-06-21T05:44:25Z</time>
   </trkpt>
   <trkpt lat="-3.1226330" lon="37.3139850">
    <ele>2998.2</ele>
    <time>2026-06-21T05:45:40Z</time>
   </trkpt>
   <trkpt lat="-3.1226120" lon="37.3139740">
    <ele>2999.0</ele>
    <time>2026-06-21T05:46:08Z</time>
   </trkpt>
   <trkpt lat="-3.1225920" lon="37.3139600">
    <ele>2999.7</ele>
    <time>2026-06-21T05:46:11Z</time>
   </trkpt>
   <trkpt lat="-3.1225690" lon="37.3139540">
    <ele>3000.5</ele>
    <time>2026-06-21T05:46:13Z</time>
   </trkpt>
   <trkpt lat="-3.1225490" lon="37.3139690">
    <ele>3001.2</ele>
    <time>2026-06-21T05:46:18Z</time>
   </trkpt>
   <trkpt lat="-3.1225210" lon="37.3139770">
    <ele>3002.0</ele>
    <time>2026-06-21T05:46:22Z</time>
   </trkpt>
   <trkpt lat="-3.1224940" lon="37.3139780">
    <ele>3002.7</ele>
    <time>2026-06-21T05:46:27Z</time>
   </trkpt>
   <trkpt lat="-3.1224570" lon="37.3139820">
    <ele>3003.5</ele>
    <time>2026-06-21T05:46:32Z</time>
   </trkpt>
   <trkpt lat="-3.1224350" lon="37.3139860">
    <ele>3004.2</ele>
    <time>2026-06-21T05:46:34Z</time>
   </trkpt>
   <trkpt lat="-3.1224060" lon="37.3139820">
    <ele>3004.9</ele>
    <time>2026-06-21T05:46:40Z</time>
   </trkpt>
   <trkpt lat="-3.1223820" lon="37.3139780">
    <ele>3005.6</ele>
    <time>2026-06-21T05:46:46Z</time>
   </trkpt>
   <trkpt lat="-3.1223590" lon="37.3139930">
    <ele>3007.6</ele>
    <time>2026-06-21T05:46:51Z</time>
   </trkpt>
   <trkpt lat="-3.1223330" lon="37.3140000">
    <ele>3008.5</ele>
    <time>2026-06-21T05:46:54Z</time>
   </trkpt>
   <trkpt lat="-3.1223050" lon="37.3139960">
    <ele>3009.2</ele>
    <time>2026-06-21T05:46:57Z</time>
   </trkpt>
   <trkpt lat="-3.1222790" lon="37.3139890">
    <ele>3008.8</ele>
    <time>2026-06-21T05:47:02Z</time>
   </trkpt>
   <trkpt lat="-3.1222510" lon="37.3139780">
    <ele>3009.9</ele>
    <time>2026-06-21T05:47:08Z</time>
   </trkpt>
   <trkpt lat="-3.1222250" lon="37.3139770">
    <ele>3010.7</ele>
    <time>2026-06-21T05:47:44Z</time>
   </trkpt>
   <trkpt lat="-3.1222000" lon="37.3139750">
    <ele>3012.0</ele>
    <time>2026-06-21T05:47:49Z</time>
   </trkpt>
   <trkpt lat="-3.1221730" lon="37.3139790">
    <ele>3013.5</ele>
    <time>2026-06-21T05:47:54Z</time>
   </trkpt>
   <trkpt lat="-3.1221470" lon="37.3139740">
    <ele>3014.3</ele>
    <time>2026-06-21T05:47:58Z</time>
   </trkpt>
   <trkpt lat="-3.1221160" lon="37.3139740">
    <ele>3015.9</ele>
    <time>2026-06-21T05:48:03Z</time>
   </trkpt>
   <trkpt lat="-3.1220900" lon="37.3139790">
    <ele>3017.6</ele>
    <time>2026-06-21T05:48:06Z</time>
   </trkpt>
   <trkpt lat="-3.1220630" lon="37.3139840">
    <ele>3018.4</ele>
    <time>2026-06-21T05:48:09Z</time>
   </trkpt>
   <trkpt lat="-3.1220410" lon="37.3139890">
    <ele>3020.1</ele>
    <time>2026-06-21T05:48:12Z</time>
   </trkpt>
   <trkpt lat="-3.1220180" lon="37.3139870">
    <ele>3020.9</ele>
    <time>2026-06-21T05:48:16Z</time>
   </trkpt>
   <trkpt lat="-3.1219910" lon="37.3139860">
    <ele>3022.6</ele>
    <time>2026-06-21T05:48:20Z</time>
   </trkpt>
   <trkpt lat="-3.1219590" lon="37.3139880">
    <ele>3024.3</ele>
    <time>2026-06-21T05:48:26Z</time>
   </trkpt>
   <trkpt lat="-3.1219340" lon="37.3139830">
    <ele>3025.0</ele>
    <time>2026-06-21T05:48:30Z</time>
   </trkpt>
   <trkpt lat="-3.1219080" lon="37.3139880">
    <ele>3026.6</ele>
    <time>2026-06-21T05:48:38Z</time>
   </trkpt>
   <trkpt lat="-3.1218760" lon="37.3139850">
    <ele>3027.4</ele>
    <time>2026-06-21T05:48:50Z</time>
   </trkpt>
   <trkpt lat="-3.1218660" lon="37.3139610">
    <ele>3028.9</ele>
    <time>2026-06-21T05:48:55Z</time>
   </trkpt>
   <trkpt lat="-3.1218470" lon="37.3139450">
    <ele>3028.9</ele>
    <time>2026-06-21T05:49:00Z</time>
   </trkpt>
   <trkpt lat="-3.1218290" lon="37.3139260">
    <ele>3030.4</ele>
    <time>2026-06-21T05:49:06Z</time>
   </trkpt>
   <trkpt lat="-3.1218100" lon="37.3139130">
    <ele>3031.2</ele>
    <time>2026-06-21T05:49:15Z</time>
   </trkpt>
   <trkpt lat="-3.1217940" lon="37.3138960">
    <ele>3031.2</ele>
    <time>2026-06-21T05:49:25Z</time>
   </trkpt>
   <trkpt lat="-3.1217690" lon="37.3138860">
    <ele>3032.8</ele>
    <time>2026-06-21T05:49:49Z</time>
   </trkpt>
   <trkpt lat="-3.1217440" lon="37.3138860">
    <ele>3034.4</ele>
    <time>2026-06-21T05:50:06Z</time>
   </trkpt>
   <trkpt lat="-3.1217190" lon="37.3138730">
    <ele>3035.1</ele>
    <time>2026-06-21T05:50:14Z</time>
   </trkpt>
   <trkpt lat="-3.1216990" lon="37.3138600">
    <ele>3036.2</ele>
    <time>2026-06-21T05:50:26Z</time>
   </trkpt>
   <trkpt lat="-3.1216770" lon="37.3138660">
    <ele>3037.6</ele>
    <time>2026-06-21T05:51:24Z</time>
   </trkpt>
   <trkpt lat="-3.1216540" lon="37.3138670">
    <ele>3039.3</ele>
    <time>2026-06-21T05:51:30Z</time>
   </trkpt>
   <trkpt lat="-3.1216300" lon="37.3138640">
    <ele>3040.1</ele>
    <time>2026-06-21T05:51:37Z</time>
   </trkpt>
   <trkpt lat="-3.1216570" lon="37.3138650">
    <ele>3040.9</ele>
    <time>2026-06-21T05:51:50Z</time>
   </trkpt>
   <trkpt lat="-3.1216310" lon="37.3138560">
    <ele>3041.1</ele>
    <time>2026-06-21T05:52:21Z</time>
   </trkpt>
   <trkpt lat="-3.1216070" lon="37.3138650">
    <ele>3042.0</ele>
    <time>2026-06-21T05:52:30Z</time>
   </trkpt>
   <trkpt lat="-3.1210020" lon="37.3142500">
    <ele>3065.2</ele>
    <time>2026-06-21T05:56:05Z</time>
   </trkpt>
   <trkpt lat="-3.1209790" lon="37.3142440">
    <ele>3065.9</ele>
    <time>2026-06-21T05:56:13Z</time>
   </trkpt>
   <trkpt lat="-3.1209510" lon="37.3142400">
    <ele>3066.7</ele>
    <time>2026-06-21T05:56:19Z</time>
   </trkpt>
   <trkpt lat="-3.1209270" lon="37.3142420">
    <ele>3067.4</ele>
    <time>2026-06-21T05:56:22Z</time>
   </trkpt>
   <trkpt lat="-3.1209030" lon="37.3142380">
    <ele>3068.2</ele>
    <time>2026-06-21T05:56:29Z</time>
   </trkpt>
   <trkpt lat="-3.1208800" lon="37.3142490">
    <ele>3069.0</ele>
    <time>2026-06-21T05:56:37Z</time>
   </trkpt>
   <trkpt lat="-3.1208590" lon="37.3142400">
    <ele>3069.9</ele>
    <time>2026-06-21T05:57:01Z</time>
   </trkpt>
   <trkpt lat="-3.1208350" lon="37.3142460">
    <ele>3070.8</ele>
    <time>2026-06-21T05:57:07Z</time>
   </trkpt>
   <trkpt lat="-3.1208100" lon="37.3142560">
    <ele>3071.8</ele>
    <time>2026-06-21T05:57:21Z</time>
   </trkpt>
   <trkpt lat="-3.1207910" lon="37.3142700">
    <ele>3072.8</ele>
    <time>2026-06-21T05:58:02Z</time>
   </trkpt>
   <trkpt lat="-3.1207580" lon="37.3142790">
    <ele>3074.2</ele>
    <time>2026-06-21T06:00:15Z</time>
   </trkpt>
   <trkpt lat="-3.1207390" lon="37.3142960">
    <ele>3075.3</ele>
    <time>2026-06-21T06:00:37Z</time>
   </trkpt>
   <trkpt lat="-3.1207190" lon="37.3143080">
    <ele>3076.3</ele>
    <time>2026-06-21T06:00:54Z</time>
   </trkpt>
   <trkpt lat="-3.1206960" lon="37.3143140">
    <ele>3077.3</ele>
    <time>2026-06-21T06:01:05Z</time>
   </trkpt>
   <trkpt lat="-3.1206740" lon="37.3143060">
    <ele>3078.3</ele>
    <time>2026-06-21T06:01:13Z</time>
   </trkpt>
   <trkpt lat="-3.1206480" lon="37.3143070">
    <ele>3079.4</ele>
    <time>2026-06-21T06:01:21Z</time>
   </trkpt>
   <trkpt lat="-3.1206280" lon="37.3143170">
    <ele>3080.2</ele>
    <time>2026-06-21T06:01:26Z</time>
   </trkpt>
   <trkpt lat="-3.1206020" lon="37.3143290">
    <ele>3081.3</ele>
    <time>2026-06-21T06:01:30Z</time>
   </trkpt>
   <trkpt lat="-3.1205780" lon="37.3143290">
    <ele>3082.2</ele>
    <time>2026-06-21T06:01:34Z</time>
   </trkpt>
   <trkpt lat="-3.1205560" lon="37.3143290">
    <ele>3082.9</ele>
    <time>2026-06-21T06:01:39Z</time>
   </trkpt>
   <trkpt lat="-3.1205320" lon="37.3143220">
    <ele>3083.8</ele>
    <time>2026-06-21T06:01:43Z</time>
   </trkpt>
   <trkpt lat="-3.1205120" lon="37.3143320">
    <ele>3084.6</ele>
    <time>2026-06-21T06:01:54Z</time>
   </trkpt>
   <trkpt lat="-3.1204880" lon="37.3143190">
    <ele>3085.5</ele>
    <time>2026-06-21T06:02:00Z</time>
   </trkpt>
   <trkpt lat="-3.1204660" lon="37.3143090">
    <ele>3086.3</ele>
    <time>2026-06-21T06:02:07Z</time>
   </trkpt>
   <trkpt lat="-3.1204430" lon="37.3143040">
    <ele>3087.1</ele>
    <time>2026-06-21T06:02:16Z</time>
   </trkpt>
   <trkpt lat="-3.1204180" lon="37.3142960">
    <ele>3088.0</ele>
    <time>2026-06-21T06:02:27Z</time>
   </trkpt>
   <trkpt lat="-3.1203930" lon="37.3142970">
    <ele>3088.8</ele>
    <time>2026-06-21T06:02:41Z</time>
   </trkpt>
   <trkpt lat="-3.1203670" lon="37.3142870">
    <ele>3089.8</ele>
    <time>2026-06-21T06:02:49Z</time>
   </trkpt>
   <trkpt lat="-3.1202650" lon="37.3143330">
    <ele>3093.0</ele>
    <time>2026-06-21T06:03:43Z</time>
   </trkpt>
   <trkpt lat="-3.1202380" lon="37.3143320">
    <ele>3093.6</ele>
    <time>2026-06-21T06:03:50Z</time>
   </trkpt>
   <trkpt lat="-3.1200500" lon="37.3143910">
    <ele>3096.4</ele>
    <time>2026-06-21T06:05:35Z</time>
   </trkpt>
   <trkpt lat="-3.1200310" lon="37.3144040">
    <ele>3096.6</ele>
    <time>2026-06-21T06:06:16Z</time>
   </trkpt>
   <trkpt lat="-3.1200540" lon="37.3144120">
    <ele>3097.0</ele>
    <time>2026-06-21T06:10:44Z</time>
   </trkpt>
   <trkpt lat="-3.1199450" lon="37.3144220">
    <ele>3099.7</ele>
    <time>2026-06-21T06:12:13Z</time>
   </trkpt>
   <trkpt lat="-3.1199660" lon="37.3144110">
    <ele>3100.5</ele>
    <time>2026-06-21T06:12:15Z</time>
   </trkpt>
   <trkpt lat="-3.1199890" lon="37.3143990">
    <ele>3101.4</ele>
    <time>2026-06-21T06:12:17Z</time>
   </trkpt>
   <trkpt lat="-3.1200280" lon="37.3144010">
    <ele>3102.9</ele>
    <time>2026-06-21T06:12:28Z</time>
   </trkpt>
   <trkpt lat="-3.1200500" lon="37.3143960">
    <ele>3103.7</ele>
    <time>2026-06-21T06:12:46Z</time>
   </trkpt>
   <trkpt lat="-3.1200720" lon="37.3143880">
    <ele>3104.6</ele>
    <time>2026-06-21T06:13:09Z</time>
   </trkpt>
   <trkpt lat="-3.1200550" lon="37.3144070">
    <ele>3105.6</ele>
    <time>2026-06-21T06:13:45Z</time>
   </trkpt>
   <trkpt lat="-3.1200290" lon="37.3144170">
    <ele>3106.6</ele>
    <time>2026-06-21T06:13:51Z</time>
   </trkpt>
   <trkpt lat="-3.1200040" lon="37.3144160">
    <ele>3107.5</ele>
    <time>2026-06-21T06:13:57Z</time>
   </trkpt>
   <trkpt lat="-3.1199830" lon="37.3144310">
    <ele>3108.4</ele>
    <time>2026-06-21T06:14:04Z</time>
   </trkpt>
   <trkpt lat="-3.1199610" lon="37.3144380">
    <ele>3109.3</ele>
    <time>2026-06-21T06:14:14Z</time>
   </trkpt>
   <trkpt lat="-3.1199380" lon="37.3144280">
    <ele>3110.2</ele>
    <time>2026-06-21T06:14:23Z</time>
   </trkpt>
   <trkpt lat="-3.1199160" lon="37.3144400">
    <ele>3111.1</ele>
    <time>2026-06-21T06:14:30Z</time>
   </trkpt>
   <trkpt lat="-3.1198950" lon="37.3144270">
    <ele>3112.0</ele>
    <time>2026-06-21T06:14:39Z</time>
   </trkpt>
   <trkpt lat="-3.1198690" lon="37.3144420">
    <ele>3113.0</ele>
    <time>2026-06-21T06:14:46Z</time>
   </trkpt>
   <trkpt lat="-3.1198510" lon="37.3144580">
    <ele>3113.8</ele>
    <time>2026-06-21T06:14:52Z</time>
   </trkpt>
   <trkpt lat="-3.1198250" lon="37.3144700">
    <ele>3114.6</ele>
    <time>2026-06-21T06:15:12Z</time>
   </trkpt>
   <trkpt lat="-3.1198070" lon="37.3144900">
    <ele>3115.3</ele>
    <time>2026-06-21T06:15:17Z</time>
   </trkpt>
   <trkpt lat="-3.1198060" lon="37.3145130">
    <ele>3115.9</ele>
    <time>2026-06-21T06:15:36Z</time>
   </trkpt>
   <trkpt lat="-3.1198310" lon="37.3145260">
    <ele>3116.6</ele>
    <time>2026-06-21T06:16:09Z</time>
   </trkpt>
   <trkpt lat="-3.1198170" lon="37.3145450">
    <ele>3117.1</ele>
    <time>2026-06-21T06:22:24Z</time>
   </trkpt>
   <trkpt lat="-3.1198010" lon="37.3145640">
    <ele>3117.6</ele>
    <time>2026-06-21T06:22:36Z</time>
   </trkpt>
   <trkpt lat="-3.1197790" lon="37.3145670">
    <ele>3118.1</ele>
    <time>2026-06-21T06:22:46Z</time>
   </trkpt>
   <trkpt lat="-3.1197610" lon="37.3145500">
    <ele>3118.7</ele>
    <time>2026-06-21T06:22:54Z</time>
   </trkpt>
   <trkpt lat="-3.1197420" lon="37.3145350">
    <ele>3119.2</ele>
    <time>2026-06-21T06:23:05Z</time>
   </trkpt>
   <trkpt lat="-3.1197220" lon="37.3145220">
    <ele>3119.7</ele>
    <time>2026-06-21T06:23:17Z</time>
   </trkpt>
   <trkpt lat="-3.1197120" lon="37.3145450">
    <ele>3120.2</ele>
    <time>2026-06-21T06:23:32Z</time>
   </trkpt>
   <trkpt lat="-3.1196870" lon="37.3145420">
    <ele>3120.7</ele>
    <time>2026-06-21T06:23:38Z</time>
   </trkpt>
   <trkpt lat="-3.1196640" lon="37.3145400">
    <ele>3121.2</ele>
    <time>2026-06-21T06:23:53Z</time>
   </trkpt>
   <trkpt lat="-3.1196430" lon="37.3145260">
    <ele>3121.8</ele>
    <time>2026-06-21T06:23:59Z</time>
   </trkpt>
   <trkpt lat="-3.1196220" lon="37.3145110">
    <ele>3122.3</ele>
    <time>2026-06-21T06:24:03Z</time>
   </trkpt>
   <trkpt lat="-3.1195980" lon="37.3145260">
    <ele>3123.0</ele>
    <time>2026-06-21T06:24:09Z</time>
   </trkpt>
   <trkpt lat="-3.1195770" lon="37.3145160">
    <ele>3123.6</ele>
    <time>2026-06-21T06:24:15Z</time>
   </trkpt>
   <trkpt lat="-3.1195610" lon="37.3144930">
    <ele>3124.3</ele>
    <time>2026-06-21T06:24:21Z</time>
   </trkpt>
   <trkpt lat="-3.1195410" lon="37.3144810">
    <ele>3125.0</ele>
    <time>2026-06-21T06:24:41Z</time>
   </trkpt>
   <trkpt lat="-3.1195200" lon="37.3144670">
    <ele>3125.7</ele>
    <time>2026-06-21T06:24:53Z</time>
   </trkpt>
   <trkpt lat="-3.1194960" lon="37.3144630">
    <ele>3126.3</ele>
    <time>2026-06-21T06:25:12Z</time>
   </trkpt>
   <trkpt lat="-3.1194690" lon="37.3144550">
    <ele>3127.1</ele>
    <time>2026-06-21T06:25:20Z</time>
   </trkpt>
   <trkpt lat="-3.1194540" lon="37.3144370">
    <ele>3127.7</ele>
    <time>2026-06-21T06:25:28Z</time>
   </trkpt>
   <trkpt lat="-3.1194370" lon="37.3144210">
    <ele>3128.3</ele>
    <time>2026-06-21T06:25:38Z</time>
   </trkpt>
   <trkpt lat="-3.1194150" lon="37.3144200">
    <ele>3128.7</ele>
    <time>2026-06-21T06:25:46Z</time>
   </trkpt>
   <trkpt lat="-3.1193900" lon="37.3144160">
    <ele>3129.3</ele>
    <time>2026-06-21T06:25:59Z</time>
   </trkpt>
   <trkpt lat="-3.1193660" lon="37.3144260">
    <ele>3129.8</ele>
    <time>2026-06-21T06:26:07Z</time>
   </trkpt>
   <trkpt lat="-3.1193450" lon="37.3144400">
    <ele>3130.3</ele>
    <time>2026-06-21T06:26:23Z</time>
   </trkpt>
   <trkpt lat="-3.1193250" lon="37.3144550">
    <ele>3130.8</ele>
    <time>2026-06-21T06:26:28Z</time>
   </trkpt>
   <trkpt lat="-3.1193080" lon="37.3144770">
    <ele>3131.4</ele>
    <time>2026-06-21T06:26:35Z</time>
   </trkpt>
   <trkpt lat="-3.1192820" lon="37.3144830">
    <ele>3132.0</ele>
    <time>2026-06-21T06:26:43Z</time>
   </trkpt>
   <trkpt lat="-3.1192570" lon="37.3144820">
    <ele>3132.7</ele>
    <time>2026-06-21T06:26:49Z</time>
   </trkpt>
   <trkpt lat="-3.1190570" lon="37.3145240">
    <ele>3139.8</ele>
    <time>2026-06-21T06:27:44Z</time>
   </trkpt>
   <trkpt lat="-3.1190380" lon="37.3145130">
    <ele>3140.7</ele>
    <time>2026-06-21T06:27:47Z</time>
   </trkpt>
   <trkpt lat="-3.1187700" lon="37.3144130">
    <ele>3151.5</ele>
    <time>2026-06-21T06:29:16Z</time>
   </trkpt>
   <trkpt lat="-3.1187530" lon="37.3143940">
    <ele>3152.3</ele>
    <time>2026-06-21T06:29:24Z</time>
   </trkpt>
   <trkpt lat="-3.1187560" lon="37.3144190">
    <ele>3153.2</ele>
    <time>2026-06-21T06:30:07Z</time>
   </trkpt>
   <trkpt lat="-3.1187330" lon="37.3144130">
    <ele>3154.0</ele>
    <time>2026-06-21T06:30:16Z</time>
   </trkpt>
   <trkpt lat="-3.1187130" lon="37.3144010">
    <ele>3154.9</ele>
    <time>2026-06-21T06:30:22Z</time>
   </trkpt>
   <trkpt lat="-3.1186940" lon="37.3143860">
    <ele>3155.7</ele>
    <time>2026-06-21T06:30:29Z</time>
   </trkpt>
   <trkpt lat="-3.1186700" lon="37.3143920">
    <ele>3156.6</ele>
    <time>2026-06-21T06:31:21Z</time>
   </trkpt>
   <trkpt lat="-3.1186550" lon="37.3143730">
    <ele>3157.4</ele>
    <time>2026-06-21T06:31:24Z</time>
   </trkpt>
   <trkpt lat="-3.1186430" lon="37.3143490">
    <ele>3158.4</ele>
    <time>2026-06-21T06:31:29Z</time>
   </trkpt>
   <trkpt lat="-3.1186190" lon="37.3143360">
    <ele>3159.4</ele>
    <time>2026-06-21T06:31:40Z</time>
   </trkpt>
   <trkpt lat="-3.1186010" lon="37.3143210">
    <ele>3160.2</ele>
    <time>2026-06-21T06:31:52Z</time>
   </trkpt>
   <trkpt lat="-3.1185870" lon="37.3143010">
    <ele>3161.2</ele>
    <time>2026-06-21T06:32:11Z</time>
   </trkpt>
   <trkpt lat="-3.1185790" lon="37.3142770">
    <ele>3162.1</ele>
    <time>2026-06-21T06:32:27Z</time>
   </trkpt>
   <trkpt lat="-3.1185610" lon="37.3142610">
    <ele>3163.1</ele>
    <time>2026-06-21T06:32:45Z</time>
   </trkpt>
   <trkpt lat="-3.1185600" lon="37.3142370">
    <ele>3164.2</ele>
    <time>2026-06-21T06:33:13Z</time>
   </trkpt>
   <trkpt lat="-3.1185400" lon="37.3142240">
    <ele>3165.1</ele>
    <time>2026-06-21T06:33:42Z</time>
   </trkpt>
   <trkpt lat="-3.1185240" lon="37.3142080">
    <ele>3166.1</ele>
    <time>2026-06-21T06:33:49Z</time>
   </trkpt>
   <trkpt lat="-3.1185040" lon="37.3141950">
    <ele>3167.1</ele>
    <time>2026-06-21T06:34:13Z</time>
   </trkpt>
   <trkpt lat="-3.1184810" lon="37.3141790">
    <ele>3168.2</ele>
    <time>2026-06-21T06:34:22Z</time>
   </trkpt>
   <trkpt lat="-3.1184600" lon="37.3141700">
    <ele>3169.1</ele>
    <time>2026-06-21T06:34:37Z</time>
   </trkpt>
   <trkpt lat="-3.1184500" lon="37.3141460">
    <ele>3170.0</ele>
    <time>2026-06-21T06:34:46Z</time>
   </trkpt>
   <trkpt lat="-3.1184570" lon="37.3141240">
    <ele>3170.8</ele>
    <time>2026-06-21T06:34:51Z</time>
   </trkpt>
   <trkpt lat="-3.1184370" lon="37.3141120">
    <ele>3171.6</ele>
    <time>2026-06-21T06:35:06Z</time>
   </trkpt>
   <trkpt lat="-3.1184180" lon="37.3140980">
    <ele>3172.4</ele>
    <time>2026-06-21T06:35:12Z</time>
   </trkpt>
   <trkpt lat="-3.1183950" lon="37.3141000">
    <ele>3173.1</ele>
    <time>2026-06-21T06:35:28Z</time>
   </trkpt>
   <trkpt lat="-3.1183690" lon="37.3141010">
    <ele>3173.9</ele>
    <time>2026-06-21T06:35:32Z</time>
   </trkpt>
   <trkpt lat="-3.1183490" lon="37.3140850">
    <ele>3174.7</ele>
    <time>2026-06-21T06:35:56Z</time>
   </trkpt>
   <trkpt lat="-3.1183310" lon="37.3140990">
    <ele>3175.4</ele>
    <time>2026-06-21T06:36:15Z</time>
   </trkpt>
   <trkpt lat="-3.1183100" lon="37.3141160">
    <ele>3176.2</ele>
    <time>2026-06-21T06:36:26Z</time>
   </trkpt>
   <trkpt lat="-3.1182930" lon="37.3141360">
    <ele>3177.0</ele>
    <time>2026-06-21T06:36:32Z</time>
   </trkpt>
   <trkpt lat="-3.1182720" lon="37.3141520">
    <ele>3177.9</ele>
    <time>2026-06-21T06:36:51Z</time>
   </trkpt>
   <trkpt lat="-3.1182540" lon="37.3141690">
    <ele>3178.7</ele>
    <time>2026-06-21T06:36:57Z</time>
   </trkpt>
   <trkpt lat="-3.1182380" lon="37.3141860">
    <ele>3179.5</ele>
    <time>2026-06-21T06:37:13Z</time>
   </trkpt>
   <trkpt lat="-3.1182250" lon="37.3142050">
    <ele>3180.2</ele>
    <time>2026-06-21T06:39:53Z</time>
   </trkpt>
   <trkpt lat="-3.1181980" lon="37.3141970">
    <ele>3181.2</ele>
    <time>2026-06-21T06:41:36Z</time>
   </trkpt>
   <trkpt lat="-3.1181730" lon="37.3141870">
    <ele>3182.1</ele>
    <time>2026-06-21T06:41:46Z</time>
   </trkpt>
   <trkpt lat="-3.1181480" lon="37.3141870">
    <ele>3183.0</ele>
    <time>2026-06-21T06:41:51Z</time>
   </trkpt>
   <trkpt lat="-3.1181260" lon="37.3141800">
    <ele>3183.8</ele>
    <time>2026-06-21T06:41:58Z</time>
   </trkpt>
   <trkpt lat="-3.1181010" lon="37.3141680">
    <ele>3184.8</ele>
    <time>2026-06-21T06:42:03Z</time>
   </trkpt>
   <trkpt lat="-3.1180810" lon="37.3141580">
    <ele>3185.6</ele>
    <time>2026-06-21T06:42:10Z</time>
   </trkpt>
   <trkpt lat="-3.1180560" lon="37.3141610">
    <ele>3186.5</ele>
    <time>2026-06-21T06:42:20Z</time>
   </trkpt>
   <trkpt lat="-3.1180340" lon="37.3141540">
    <ele>3187.3</ele>
    <time>2026-06-21T06:42:30Z</time>
   </trkpt>
   <trkpt lat="-3.1180120" lon="37.3141690">
    <ele>3188.3</ele>
    <time>2026-06-21T06:42:41Z</time>
   </trkpt>
   <trkpt lat="-3.1179900" lon="37.3141770">
    <ele>3189.2</ele>
    <time>2026-06-21T06:42:45Z</time>
   </trkpt>
   <trkpt lat="-3.1179660" lon="37.3141620">
    <ele>3190.3</ele>
    <time>2026-06-21T06:42:52Z</time>
   </trkpt>
   <trkpt lat="-3.1179310" lon="37.3141700">
    <ele>3191.7</ele>
    <time>2026-06-21T06:42:58Z</time>
   </trkpt>
   <trkpt lat="-3.1179100" lon="37.3141780">
    <ele>3192.6</ele>
    <time>2026-06-21T06:43:09Z</time>
   </trkpt>
   <trkpt lat="-3.1178830" lon="37.3141950">
    <ele>3193.7</ele>
    <time>2026-06-21T06:43:18Z</time>
   </trkpt>
   <trkpt lat="-3.1178620" lon="37.3142060">
    <ele>3194.6</ele>
    <time>2026-06-21T06:43:24Z</time>
   </trkpt>
   <trkpt lat="-3.1178520" lon="37.3142290">
    <ele>3195.3</ele>
    <time>2026-06-21T06:43:32Z</time>
   </trkpt>
   <trkpt lat="-3.1178270" lon="37.3142270">
    <ele>3196.1</ele>
    <time>2026-06-21T06:43:43Z</time>
   </trkpt>
   <trkpt lat="-3.1178040" lon="37.3142260">
    <ele>3196.6</ele>
    <time>2026-06-21T06:43:54Z</time>
   </trkpt>
   <trkpt lat="-3.1177840" lon="37.3142380">
    <ele>3197.2</ele>
    <time>2026-06-21T06:44:06Z</time>
   </trkpt>
   <trkpt lat="-3.1177560" lon="37.3142360">
    <ele>3197.7</ele>
    <time>2026-06-21T06:44:21Z</time>
   </trkpt>
   <trkpt lat="-3.1177330" lon="37.3142450">
    <ele>3198.1</ele>
    <time>2026-06-21T06:44:35Z</time>
   </trkpt>
   <trkpt lat="-3.1177120" lon="37.3142540">
    <ele>3198.5</ele>
    <time>2026-06-21T06:44:43Z</time>
   </trkpt>
   <trkpt lat="-3.1176910" lon="37.3142630">
    <ele>3198.9</ele>
    <time>2026-06-21T06:44:53Z</time>
   </trkpt>
   <trkpt lat="-3.1176790" lon="37.3142830">
    <ele>3199.3</ele>
    <time>2026-06-21T06:45:06Z</time>
   </trkpt>
   <trkpt lat="-3.1176550" lon="37.3142870">
    <ele>3199.7</ele>
    <time>2026-06-21T06:45:21Z</time>
   </trkpt>
   <trkpt lat="-3.1176340" lon="37.3142990">
    <ele>3200.0</ele>
    <time>2026-06-21T06:45:44Z</time>
   </trkpt>
   <trkpt lat="-3.1176120" lon="37.3143100">
    <ele>3200.5</ele>
    <time>2026-06-21T06:45:52Z</time>
   </trkpt>
   <trkpt lat="-3.1175890" lon="37.3143120">
    <ele>3200.9</ele>
    <time>2026-06-21T06:46:00Z</time>
   </trkpt>
   <trkpt lat="-3.1175670" lon="37.3143190">
    <ele>3201.4</ele>
    <time>2026-06-21T06:46:05Z</time>
   </trkpt>
   <trkpt lat="-3.1174940" lon="37.3143480">
    <ele>3203.3</ele>
    <time>2026-06-21T06:46:24Z</time>
   </trkpt>
   <trkpt lat="-3.1174700" lon="37.3143510">
    <ele>3204.0</ele>
    <time>2026-06-21T06:46:32Z</time>
   </trkpt>
   <trkpt lat="-3.1174430" lon="37.3143690">
    <ele>3204.9</ele>
    <time>2026-06-21T06:46:35Z</time>
   </trkpt>
   <trkpt lat="-3.1174210" lon="37.3143640">
    <ele>3205.5</ele>
    <time>2026-06-21T06:46:59Z</time>
   </trkpt>
   <trkpt lat="-3.1174090" lon="37.3143860">
    <ele>3206.2</ele>
    <time>2026-06-21T06:47:09Z</time>
   </trkpt>
   <trkpt lat="-3.1173880" lon="37.3143980">
    <ele>3206.9</ele>
    <time>2026-06-21T06:47:15Z</time>
   </trkpt>
   <trkpt lat="-3.1173610" lon="37.3144000">
    <ele>3207.7</ele>
    <time>2026-06-21T06:47:21Z</time>
   </trkpt>
   <trkpt lat="-3.1173410" lon="37.3144120">
    <ele>3208.3</ele>
    <time>2026-06-21T06:47:28Z</time>
   </trkpt>
   <trkpt lat="-3.1173160" lon="37.3144140">
    <ele>3208.9</ele>
    <time>2026-06-21T06:47:34Z</time>
   </trkpt>
   <trkpt lat="-3.1173170" lon="37.3144380">
    <ele>3209.6</ele>
    <time>2026-06-21T06:47:43Z</time>
   </trkpt>
   <trkpt lat="-3.1172940" lon="37.3144410">
    <ele>3210.1</ele>
    <time>2026-06-21T06:47:48Z</time>
   </trkpt>
   <trkpt lat="-3.1172680" lon="37.3144490">
    <ele>3210.8</ele>
    <time>2026-06-21T06:47:54Z</time>
   </trkpt>
   <trkpt lat="-3.1172450" lon="37.3144460">
    <ele>3211.4</ele>
    <time>2026-06-21T06:48:02Z</time>
   </trkpt>
   <trkpt lat="-3.1172220" lon="37.3144390">
    <ele>3212.0</ele>
    <time>2026-06-21T06:48:13Z</time>
   </trkpt>
   <trkpt lat="-3.1172050" lon="37.3144230">
    <ele>3212.6</ele>
    <time>2026-06-21T06:48:23Z</time>
   </trkpt>
   <trkpt lat="-3.1171850" lon="37.3144600">
    <ele>3213.7</ele>
    <time>2026-06-21T06:51:49Z</time>
   </trkpt>
   <trkpt lat="-3.1171590" lon="37.3144580">
    <ele>3214.4</ele>
    <time>2026-06-21T06:52:10Z</time>
   </trkpt>
   <trkpt lat="-3.1171040" lon="37.3144230">
    <ele>3216.1</ele>
    <time>2026-06-21T06:52:33Z</time>
   </trkpt>
   <trkpt lat="-3.1170800" lon="37.3144090">
    <ele>3216.9</ele>
    <time>2026-06-21T06:52:43Z</time>
   </trkpt>
   <trkpt lat="-3.1170810" lon="37.3144670">
    <ele>3218.4</ele>
    <time>2026-06-21T06:53:07Z</time>
   </trkpt>
   <trkpt lat="-3.1170750" lon="37.3144900">
    <ele>3219.1</ele>
    <time>2026-06-21T06:53:18Z</time>
   </trkpt>
   <trkpt lat="-3.1170380" lon="37.3145180">
    <ele>3220.5</ele>
    <time>2026-06-21T06:53:42Z</time>
   </trkpt>
   <trkpt lat="-3.1170150" lon="37.3145200">
    <ele>3221.1</ele>
    <time>2026-06-21T06:53:48Z</time>
   </trkpt>
   <trkpt lat="-3.1169940" lon="37.3145110">
    <ele>3221.9</ele>
    <time>2026-06-21T06:53:54Z</time>
   </trkpt>
   <trkpt lat="-3.1169680" lon="37.3145280">
    <ele>3222.8</ele>
    <time>2026-06-21T06:54:06Z</time>
   </trkpt>
   <trkpt lat="-3.1169470" lon="37.3145190">
    <ele>3223.6</ele>
    <time>2026-06-21T06:55:20Z</time>
   </trkpt>
   <trkpt lat="-3.1169220" lon="37.3145140">
    <ele>3224.5</ele>
    <time>2026-06-21T06:56:37Z</time>
   </trkpt>
   <trkpt lat="-3.1169040" lon="37.3144970">
    <ele>3225.5</ele>
    <time>2026-06-21T06:56:45Z</time>
   </trkpt>
   <trkpt lat="-3.1168790" lon="37.3144940">
    <ele>3226.5</ele>
    <time>2026-06-21T06:56:53Z</time>
   </trkpt>
   <trkpt lat="-3.1168640" lon="37.3145150">
    <ele>3227.5</ele>
    <time>2026-06-21T06:56:59Z</time>
   </trkpt>
   <trkpt lat="-3.1168410" lon="37.3145110">
    <ele>3228.4</ele>
    <time>2026-06-21T06:57:06Z</time>
   </trkpt>
   <trkpt lat="-3.1168320" lon="37.3145330">
    <ele>3229.4</ele>
    <time>2026-06-21T06:57:15Z</time>
   </trkpt>
   <trkpt lat="-3.1168220" lon="37.3145560">
    <ele>3230.4</ele>
    <time>2026-06-21T06:57:29Z</time>
   </trkpt>
   <trkpt lat="-3.1168000" lon="37.3145670">
    <ele>3231.3</ele>
    <time>2026-06-21T06:57:42Z</time>
   </trkpt>
   <trkpt lat="-3.1168020" lon="37.3145930">
    <ele>3232.3</ele>
    <time>2026-06-21T06:57:50Z</time>
   </trkpt>
   <trkpt lat="-3.1167820" lon="37.3146100">
    <ele>3233.2</ele>
    <time>2026-06-21T06:58:02Z</time>
   </trkpt>
   <trkpt lat="-3.1167790" lon="37.3146340">
    <ele>3234.1</ele>
    <time>2026-06-21T06:58:18Z</time>
   </trkpt>
   <trkpt lat="-3.1167920" lon="37.3146520">
    <ele>3234.9</ele>
    <time>2026-06-21T06:58:31Z</time>
   </trkpt>
   <trkpt lat="-3.1167670" lon="37.3146690">
    <ele>3235.9</ele>
    <time>2026-06-21T06:58:43Z</time>
   </trkpt>
   <trkpt lat="-3.1167490" lon="37.3146850">
    <ele>3236.8</ele>
    <time>2026-06-21T06:58:55Z</time>
   </trkpt>
   <trkpt lat="-3.1167260" lon="37.3146850">
    <ele>3237.6</ele>
    <time>2026-06-21T06:59:07Z</time>
   </trkpt>
   <trkpt lat="-3.1167140" lon="37.3147040">
    <ele>3238.4</ele>
    <time>2026-06-21T06:59:17Z</time>
   </trkpt>
   <trkpt lat="-3.1166890" lon="37.3147070">
    <ele>3239.2</ele>
    <time>2026-06-21T06:59:33Z</time>
   </trkpt>
   <trkpt lat="-3.1166660" lon="37.3147120">
    <ele>3239.9</ele>
    <time>2026-06-21T06:59:45Z</time>
   </trkpt>
   <trkpt lat="-3.1166510" lon="37.3147290">
    <ele>3240.6</ele>
    <time>2026-06-21T06:59:53Z</time>
   </trkpt>
   <trkpt lat="-3.1166290" lon="37.3147400">
    <ele>3241.3</ele>
    <time>2026-06-21T06:59:58Z</time>
   </trkpt>
   <trkpt lat="-3.1166070" lon="37.3147500">
    <ele>3241.9</ele>
    <time>2026-06-21T07:00:05Z</time>
   </trkpt>
   <trkpt lat="-3.1165840" lon="37.3147450">
    <ele>3242.5</ele>
    <time>2026-06-21T07:00:10Z</time>
   </trkpt>
   <trkpt lat="-3.1165600" lon="37.3147540">
    <ele>3243.4</ele>
    <time>2026-06-21T07:00:19Z</time>
   </trkpt>
   <trkpt lat="-3.1165480" lon="37.3147730">
    <ele>3244.4</ele>
    <time>2026-06-21T07:00:30Z</time>
   </trkpt>
   <trkpt lat="-3.1165380" lon="37.3147970">
    <ele>3245.6</ele>
    <time>2026-06-21T07:00:37Z</time>
   </trkpt>
   <trkpt lat="-3.1165330" lon="37.3148200">
    <ele>3246.7</ele>
    <time>2026-06-21T07:00:46Z</time>
   </trkpt>
   <trkpt lat="-3.1165250" lon="37.3148450">
    <ele>3247.9</ele>
    <time>2026-06-21T07:01:04Z</time>
   </trkpt>
   <trkpt lat="-3.1165130" lon="37.3148660">
    <ele>3248.9</ele>
    <time>2026-06-21T07:01:20Z</time>
   </trkpt>
   <trkpt lat="-3.1164900" lon="37.3148670">
    <ele>3249.9</ele>
    <time>2026-06-21T07:01:27Z</time>
   </trkpt>
   <trkpt lat="-3.1164700" lon="37.3148790">
    <ele>3250.9</ele>
    <time>2026-06-21T07:01:58Z</time>
   </trkpt>
   <trkpt lat="-3.1164500" lon="37.3148900">
    <ele>3251.9</ele>
    <time>2026-06-21T07:02:57Z</time>
   </trkpt>
   <trkpt lat="-3.1164280" lon="37.3148980">
    <ele>3252.8</ele>
    <time>2026-06-21T07:03:19Z</time>
   </trkpt>
   <trkpt lat="-3.1164140" lon="37.3149270">
    <ele>3254.1</ele>
    <time>2026-06-21T07:03:35Z</time>
   </trkpt>
   <trkpt lat="-3.1164060" lon="37.3149500">
    <ele>3255.0</ele>
    <time>2026-06-21T07:03:47Z</time>
   </trkpt>
   <trkpt lat="-3.1163820" lon="37.3149420">
    <ele>3256.0</ele>
    <time>2026-06-21T07:03:58Z</time>
   </trkpt>
   <trkpt lat="-3.1163560" lon="37.3149400">
    <ele>3256.9</ele>
    <time>2026-06-21T07:04:07Z</time>
   </trkpt>
   <trkpt lat="-3.1163600" lon="37.3149140">
    <ele>3257.9</ele>
    <time>2026-06-21T07:04:20Z</time>
   </trkpt>
   <trkpt lat="-3.1163350" lon="37.3149310">
    <ele>3258.9</ele>
    <time>2026-06-21T07:04:29Z</time>
   </trkpt>
   <trkpt lat="-3.1162720" lon="37.3150390">
    <ele>3262.6</ele>
    <time>2026-06-21T07:09:06Z</time>
   </trkpt>
   <trkpt lat="-3.1162720" lon="37.3150650">
    <ele>3263.3</ele>
    <time>2026-06-21T07:09:12Z</time>
   </trkpt>
   <trkpt lat="-3.1162630" lon="37.3150860">
    <ele>3263.8</ele>
    <time>2026-06-21T07:09:21Z</time>
   </trkpt>
   <trkpt lat="-3.1162160" lon="37.3151300">
    <ele>3265.3</ele>
    <time>2026-06-21T07:09:39Z</time>
   </trkpt>
   <trkpt lat="-3.1162050" lon="37.3151520">
    <ele>3265.9</ele>
    <time>2026-06-21T07:09:49Z</time>
   </trkpt>
   <trkpt lat="-3.1161950" lon="37.3151740">
    <ele>3266.5</ele>
    <time>2026-06-21T07:09:55Z</time>
   </trkpt>
   <trkpt lat="-3.1161770" lon="37.3151940">
    <ele>3267.1</ele>
    <time>2026-06-21T07:10:01Z</time>
   </trkpt>
   <trkpt lat="-3.1161660" lon="37.3152170">
    <ele>3267.7</ele>
    <time>2026-06-21T07:10:05Z</time>
   </trkpt>
   <trkpt lat="-3.1161420" lon="37.3152300">
    <ele>3268.4</ele>
    <time>2026-06-21T07:10:10Z</time>
   </trkpt>
   <trkpt lat="-3.1161240" lon="37.3152430">
    <ele>3268.9</ele>
    <time>2026-06-21T07:10:15Z</time>
   </trkpt>
   <trkpt lat="-3.1160980" lon="37.3152640">
    <ele>3269.7</ele>
    <time>2026-06-21T07:10:22Z</time>
   </trkpt>
   <trkpt lat="-3.1160720" lon="37.3152610">
    <ele>3270.4</ele>
    <time>2026-06-21T07:10:26Z</time>
   </trkpt>
   <trkpt lat="-3.1160480" lon="37.3152490">
    <ele>3271.0</ele>
    <time>2026-06-21T07:10:31Z</time>
   </trkpt>
   <trkpt lat="-3.1160250" lon="37.3152510">
    <ele>3271.6</ele>
    <time>2026-06-21T07:10:35Z</time>
   </trkpt>
   <trkpt lat="-3.1160020" lon="37.3152680">
    <ele>3272.3</ele>
    <time>2026-06-21T07:10:39Z</time>
   </trkpt>
   <trkpt lat="-3.1159980" lon="37.3152990">
    <ele>3273.1</ele>
    <time>2026-06-21T07:10:43Z</time>
   </trkpt>
   <trkpt lat="-3.1159840" lon="37.3153180">
    <ele>3273.7</ele>
    <time>2026-06-21T07:10:48Z</time>
   </trkpt>
   <trkpt lat="-3.1159780" lon="37.3153450">
    <ele>3274.4</ele>
    <time>2026-06-21T07:10:54Z</time>
   </trkpt>
   <trkpt lat="-3.1159600" lon="37.3153650">
    <ele>3275.1</ele>
    <time>2026-06-21T07:11:02Z</time>
   </trkpt>
   <trkpt lat="-3.1159610" lon="37.3153910">
    <ele>3275.7</ele>
    <time>2026-06-21T07:11:06Z</time>
   </trkpt>
   <trkpt lat="-3.1159380" lon="37.3154020">
    <ele>3276.4</ele>
    <time>2026-06-21T07:11:09Z</time>
   </trkpt>
   <trkpt lat="-3.1159490" lon="37.3154310">
    <ele>3277.2</ele>
    <time>2026-06-21T07:11:13Z</time>
   </trkpt>
   <trkpt lat="-3.1159450" lon="37.3154580">
    <ele>3277.9</ele>
    <time>2026-06-21T07:11:17Z</time>
   </trkpt>
   <trkpt lat="-3.1159490" lon="37.3154840">
    <ele>3278.6</ele>
    <time>2026-06-21T07:11:32Z</time>
   </trkpt>
   <trkpt lat="-3.1159380" lon="37.3155060">
    <ele>3279.3</ele>
    <time>2026-06-21T07:11:42Z</time>
   </trkpt>
   <trkpt lat="-3.1159140" lon="37.3155110">
    <ele>3280.0</ele>
    <time>2026-06-21T07:12:01Z</time>
   </trkpt>
   <trkpt lat="-3.1159000" lon="37.3155310">
    <ele>3280.7</ele>
    <time>2026-06-21T07:12:07Z</time>
   </trkpt>
   <trkpt lat="-3.1158770" lon="37.3155400">
    <ele>3281.4</ele>
    <time>2026-06-21T07:12:13Z</time>
   </trkpt>
   <trkpt lat="-3.1158560" lon="37.3155510">
    <ele>3282.2</ele>
    <time>2026-06-21T07:12:18Z</time>
   </trkpt>
   <trkpt lat="-3.1158420" lon="37.3155710">
    <ele>3282.9</ele>
    <time>2026-06-21T07:12:23Z</time>
   </trkpt>
   <trkpt lat="-3.1158210" lon="37.3155860">
    <ele>3283.7</ele>
    <time>2026-06-21T07:12:31Z</time>
   </trkpt>
   <trkpt lat="-3.1157950" lon="37.3155880">
    <ele>3284.6</ele>
    <time>2026-06-21T07:12:35Z</time>
   </trkpt>
   <trkpt lat="-3.1157830" lon="37.3156120">
    <ele>3285.5</ele>
    <time>2026-06-21T07:12:42Z</time>
   </trkpt>
   <trkpt lat="-3.1157680" lon="37.3156290">
    <ele>3286.3</ele>
    <time>2026-06-21T07:12:45Z</time>
   </trkpt>
   <trkpt lat="-3.1157490" lon="37.3156510">
    <ele>3287.2</ele>
    <time>2026-06-21T07:12:49Z</time>
   </trkpt>
   <trkpt lat="-3.1157250" lon="37.3156450">
    <ele>3288.0</ele>
    <time>2026-06-21T07:12:55Z</time>
   </trkpt>
   <trkpt lat="-3.1156990" lon="37.3156500">
    <ele>3288.9</ele>
    <time>2026-06-21T07:13:05Z</time>
   </trkpt>
   <trkpt lat="-3.1156800" lon="37.3156680">
    <ele>3289.8</ele>
    <time>2026-06-21T07:13:11Z</time>
   </trkpt>
   <trkpt lat="-3.1156530" lon="37.3156760">
    <ele>3290.7</ele>
    <time>2026-06-21T07:13:18Z</time>
   </trkpt>
   <trkpt lat="-3.1156290" lon="37.3156800">
    <ele>3291.5</ele>
    <time>2026-06-21T07:13:27Z</time>
   </trkpt>
   <trkpt lat="-3.1156090" lon="37.3156950">
    <ele>3292.4</ele>
    <time>2026-06-21T07:13:34Z</time>
   </trkpt>
   <trkpt lat="-3.1156040" lon="37.3157190">
    <ele>3293.2</ele>
    <time>2026-06-21T07:13:41Z</time>
   </trkpt>
   <trkpt lat="-3.1155830" lon="37.3157340">
    <ele>3294.0</ele>
    <time>2026-06-21T07:13:48Z</time>
   </trkpt>
   <trkpt lat="-3.1155640" lon="37.3157530">
    <ele>3294.8</ele>
    <time>2026-06-21T07:13:56Z</time>
   </trkpt>
   <trkpt lat="-3.1155510" lon="37.3157790">
    <ele>3295.7</ele>
    <time>2026-06-21T07:14:02Z</time>
   </trkpt>
   <trkpt lat="-3.1155530" lon="37.3158040">
    <ele>3296.5</ele>
    <time>2026-06-21T07:14:06Z</time>
   </trkpt>
   <trkpt lat="-3.1155420" lon="37.3158250">
    <ele>3297.2</ele>
    <time>2026-06-21T07:14:11Z</time>
   </trkpt>
   <trkpt lat="-3.1155130" lon="37.3158340">
    <ele>3298.1</ele>
    <time>2026-06-21T07:14:16Z</time>
   </trkpt>
   <trkpt lat="-3.1154890" lon="37.3158250">
    <ele>3298.9</ele>
    <time>2026-06-21T07:14:23Z</time>
   </trkpt>
   <trkpt lat="-3.1154650" lon="37.3158280">
    <ele>3299.6</ele>
    <time>2026-06-21T07:14:31Z</time>
   </trkpt>
   <trkpt lat="-3.1154460" lon="37.3158450">
    <ele>3300.5</ele>
    <time>2026-06-21T07:14:36Z</time>
   </trkpt>
   <trkpt lat="-3.1154260" lon="37.3158570">
    <ele>3301.2</ele>
    <time>2026-06-21T07:14:42Z</time>
   </trkpt>
   <trkpt lat="-3.1154060" lon="37.3158690">
    <ele>3302.0</ele>
    <time>2026-06-21T07:14:49Z</time>
   </trkpt>
   <trkpt lat="-3.1153830" lon="37.3158830">
    <ele>3302.8</ele>
    <time>2026-06-21T07:14:55Z</time>
   </trkpt>
   <trkpt lat="-3.1153210" lon="37.3159360">
    <ele>3305.6</ele>
    <time>2026-06-21T07:15:12Z</time>
   </trkpt>
   <trkpt lat="-3.1153070" lon="37.3159590">
    <ele>3306.6</ele>
    <time>2026-06-21T07:15:17Z</time>
   </trkpt>
   <trkpt lat="-3.1152930" lon="37.3159820">
    <ele>3307.6</ele>
    <time>2026-06-21T07:15:21Z</time>
   </trkpt>
   <trkpt lat="-3.1152880" lon="37.3160050">
    <ele>3308.5</ele>
    <time>2026-06-21T07:15:23Z</time>
   </trkpt>
   <trkpt lat="-3.1152860" lon="37.3160280">
    <ele>3309.4</ele>
    <time>2026-06-21T07:15:27Z</time>
   </trkpt>
   <trkpt lat="-3.1152920" lon="37.3160520">
    <ele>3310.4</ele>
    <time>2026-06-21T07:15:35Z</time>
   </trkpt>
   <trkpt lat="-3.1152730" lon="37.3160670">
    <ele>3311.3</ele>
    <time>2026-06-21T07:15:43Z</time>
   </trkpt>
   <trkpt lat="-3.1152600" lon="37.3160910">
    <ele>3312.4</ele>
    <time>2026-06-21T07:15:49Z</time>
   </trkpt>
   <trkpt lat="-3.1152470" lon="37.3161130">
    <ele>3313.4</ele>
    <time>2026-06-21T07:15:56Z</time>
   </trkpt>
   <trkpt lat="-3.1152490" lon="37.3161350">
    <ele>3314.3</ele>
    <time>2026-06-21T07:16:01Z</time>
   </trkpt>
   <trkpt lat="-3.1152320" lon="37.3161580">
    <ele>3315.5</ele>
    <time>2026-06-21T07:16:11Z</time>
   </trkpt>
   <trkpt lat="-3.1152080" lon="37.3161670">
    <ele>3316.5</ele>
    <time>2026-06-21T07:16:19Z</time>
   </trkpt>
   <trkpt lat="-3.1151860" lon="37.3161660">
    <ele>3317.5</ele>
    <time>2026-06-21T07:16:24Z</time>
   </trkpt>
   <trkpt lat="-3.1151640" lon="37.3161560">
    <ele>3318.5</ele>
    <time>2026-06-21T07:16:32Z</time>
   </trkpt>
   <trkpt lat="-3.1151390" lon="37.3161550">
    <ele>3319.5</ele>
    <time>2026-06-21T07:16:41Z</time>
   </trkpt>
   <trkpt lat="-3.1151180" lon="37.3161410">
    <ele>3320.6</ele>
    <time>2026-06-21T07:16:48Z</time>
   </trkpt>
   <trkpt lat="-3.1150930" lon="37.3161320">
    <ele>3321.7</ele>
    <time>2026-06-21T07:17:01Z</time>
   </trkpt>
   <trkpt lat="-3.1150710" lon="37.3161230">
    <ele>3322.7</ele>
    <time>2026-06-21T07:17:08Z</time>
   </trkpt>
   <trkpt lat="-3.1150460" lon="37.3161240">
    <ele>3323.7</ele>
    <time>2026-06-21T07:17:17Z</time>
   </trkpt>
   <trkpt lat="-3.1150380" lon="37.3161490">
    <ele>3324.8</ele>
    <time>2026-06-21T07:17:25Z</time>
   </trkpt>
   <trkpt lat="-3.1150260" lon="37.3161690">
    <ele>3325.8</ele>
    <time>2026-06-21T07:17:34Z</time>
   </trkpt>
   <trkpt lat="-3.1150320" lon="37.3161910">
    <ele>3326.7</ele>
    <time>2026-06-21T07:17:51Z</time>
   </trkpt>
   <trkpt lat="-3.1150520" lon="37.3162100">
    <ele>3327.7</ele>
    <time>2026-06-21T07:17:57Z</time>
   </trkpt>
   <trkpt lat="-3.1150260" lon="37.3162060">
    <ele>3328.7</ele>
    <time>2026-06-21T07:19:51Z</time>
   </trkpt>
   <trkpt lat="-3.1150050" lon="37.3161970">
    <ele>3329.4</ele>
    <time>2026-06-21T07:21:16Z</time>
   </trkpt>
   <trkpt lat="-3.1149810" lon="37.3162030">
    <ele>3330.3</ele>
    <time>2026-06-21T07:21:44Z</time>
   </trkpt>
   <trkpt lat="-3.1149620" lon="37.3161830">
    <ele>3331.1</ele>
    <time>2026-06-21T07:22:05Z</time>
   </trkpt>
   <trkpt lat="-3.1149490" lon="37.3162060">
    <ele>3331.9</ele>
    <time>2026-06-21T07:22:11Z</time>
   </trkpt>
   <trkpt lat="-3.1149270" lon="37.3162160">
    <ele>3332.6</ele>
    <time>2026-06-21T07:22:18Z</time>
   </trkpt>
   <trkpt lat="-3.1149040" lon="37.3162180">
    <ele>3333.2</ele>
    <time>2026-06-21T07:22:23Z</time>
   </trkpt>
   <trkpt lat="-3.1148830" lon="37.3162330">
    <ele>3333.9</ele>
    <time>2026-06-21T07:22:28Z</time>
   </trkpt>
   <trkpt lat="-3.1148560" lon="37.3162300">
    <ele>3334.6</ele>
    <time>2026-06-21T07:22:35Z</time>
   </trkpt>
   <trkpt lat="-3.1148320" lon="37.3162270">
    <ele>3335.2</ele>
    <time>2026-06-21T07:22:45Z</time>
   </trkpt>
   <trkpt lat="-3.1148090" lon="37.3162270">
    <ele>3335.7</ele>
    <time>2026-06-21T07:22:55Z</time>
   </trkpt>
   <trkpt lat="-3.1148170" lon="37.3162490">
    <ele>3336.3</ele>
    <time>2026-06-21T07:23:09Z</time>
   </trkpt>
   <trkpt lat="-3.1147930" lon="37.3162420">
    <ele>3336.9</ele>
    <time>2026-06-21T07:23:23Z</time>
   </trkpt>
   <trkpt lat="-3.1147710" lon="37.3162320">
    <ele>3337.5</ele>
    <time>2026-06-21T07:23:31Z</time>
   </trkpt>
   <trkpt lat="-3.1147460" lon="37.3162250">
    <ele>3338.1</ele>
    <time>2026-06-21T07:23:45Z</time>
   </trkpt>
   <trkpt lat="-3.1147220" lon="37.3162130">
    <ele>3338.7</ele>
    <time>2026-06-21T07:23:50Z</time>
   </trkpt>
   <trkpt lat="-3.1147000" lon="37.3162040">
    <ele>3339.3</ele>
    <time>2026-06-21T07:23:59Z</time>
   </trkpt>
   <trkpt lat="-3.1146710" lon="37.3162080">
    <ele>3340.0</ele>
    <time>2026-06-21T07:24:05Z</time>
   </trkpt>
   <trkpt lat="-3.1146470" lon="37.3162060">
    <ele>3340.7</ele>
    <time>2026-06-21T07:24:10Z</time>
   </trkpt>
   <trkpt lat="-3.1146240" lon="37.3162120">
    <ele>3341.3</ele>
    <time>2026-06-21T07:24:14Z</time>
   </trkpt>
   <trkpt lat="-3.1146020" lon="37.3162140">
    <ele>3341.9</ele>
    <time>2026-06-21T07:24:18Z</time>
   </trkpt>
   <trkpt lat="-3.1145950" lon="37.3162400">
    <ele>3342.6</ele>
    <time>2026-06-21T07:24:22Z</time>
   </trkpt>
   <trkpt lat="-3.1145900" lon="37.3162620">
    <ele>3343.2</ele>
    <time>2026-06-21T07:24:27Z</time>
   </trkpt>
   <trkpt lat="-3.1145720" lon="37.3162810">
    <ele>3343.9</ele>
    <time>2026-06-21T07:24:32Z</time>
   </trkpt>
   <trkpt lat="-3.1145520" lon="37.3162900">
    <ele>3344.5</ele>
    <time>2026-06-21T07:24:47Z</time>
   </trkpt>
   <trkpt lat="-3.1145560" lon="37.3162640">
    <ele>3345.2</ele>
    <time>2026-06-21T07:25:04Z</time>
   </trkpt>
   <trkpt lat="-3.1145410" lon="37.3162840">
    <ele>3345.9</ele>
    <time>2026-06-21T07:25:16Z</time>
   </trkpt>
   <trkpt lat="-3.1145180" lon="37.3162920">
    <ele>3346.6</ele>
    <time>2026-06-21T07:25:26Z</time>
   </trkpt>
   <trkpt lat="-3.1145020" lon="37.3163110">
    <ele>3347.3</ele>
    <time>2026-06-21T07:25:34Z</time>
   </trkpt>
   <trkpt lat="-3.1144750" lon="37.3163140">
    <ele>3348.1</ele>
    <time>2026-06-21T07:25:45Z</time>
   </trkpt>
   <trkpt lat="-3.1144610" lon="37.3163360">
    <ele>3348.8</ele>
    <time>2026-06-21T07:25:50Z</time>
   </trkpt>
   <trkpt lat="-3.1144550" lon="37.3163630">
    <ele>3349.7</ele>
    <time>2026-06-21T07:25:56Z</time>
   </trkpt>
   <trkpt lat="-3.1144550" lon="37.3163860">
    <ele>3350.4</ele>
    <time>2026-06-21T07:26:00Z</time>
   </trkpt>
   <trkpt lat="-3.1144490" lon="37.3164100">
    <ele>3351.1</ele>
    <time>2026-06-21T07:26:05Z</time>
   </trkpt>
   <trkpt lat="-3.1144310" lon="37.3164260">
    <ele>3351.8</ele>
    <time>2026-06-21T07:26:10Z</time>
   </trkpt>
   <trkpt lat="-3.1144120" lon="37.3164380">
    <ele>3352.5</ele>
    <time>2026-06-21T07:26:15Z</time>
   </trkpt>
   <trkpt lat="-3.1143850" lon="37.3164320">
    <ele>3353.4</ele>
    <time>2026-06-21T07:26:20Z</time>
   </trkpt>
   <trkpt lat="-3.1143600" lon="37.3164340">
    <ele>3354.1</ele>
    <time>2026-06-21T07:26:25Z</time>
   </trkpt>
   <trkpt lat="-3.1143350" lon="37.3164330">
    <ele>3354.9</ele>
    <time>2026-06-21T07:26:33Z</time>
   </trkpt>
   <trkpt lat="-3.1143120" lon="37.3164330">
    <ele>3355.6</ele>
    <time>2026-06-21T07:26:38Z</time>
   </trkpt>
   <trkpt lat="-3.1142890" lon="37.3164450">
    <ele>3356.4</ele>
    <time>2026-06-21T07:26:44Z</time>
   </trkpt>
   <trkpt lat="-3.1142630" lon="37.3164510">
    <ele>3357.2</ele>
    <time>2026-06-21T07:26:53Z</time>
   </trkpt>
   <trkpt lat="-3.1142410" lon="37.3164550">
    <ele>3357.9</ele>
    <time>2026-06-21T07:26:58Z</time>
   </trkpt>
   <trkpt lat="-3.1142220" lon="37.3164750">
    <ele>3358.7</ele>
    <time>2026-06-21T07:27:04Z</time>
   </trkpt>
   <trkpt lat="-3.1142160" lon="37.3164970">
    <ele>3359.4</ele>
    <time>2026-06-21T07:27:09Z</time>
   </trkpt>
   <trkpt lat="-3.1142120" lon="37.3165250">
    <ele>3360.2</ele>
    <time>2026-06-21T07:27:13Z</time>
   </trkpt>
   <trkpt lat="-3.1141940" lon="37.3165390">
    <ele>3360.8</ele>
    <time>2026-06-21T07:27:28Z</time>
   </trkpt>
   <trkpt lat="-3.1141700" lon="37.3165360">
    <ele>3361.5</ele>
    <time>2026-06-21T07:27:37Z</time>
   </trkpt>
   <trkpt lat="-3.1141440" lon="37.3165390">
    <ele>3362.3</ele>
    <time>2026-06-21T07:27:44Z</time>
   </trkpt>
   <trkpt lat="-3.1141230" lon="37.3165470">
    <ele>3362.9</ele>
    <time>2026-06-21T07:27:50Z</time>
   </trkpt>
   <trkpt lat="-3.1140990" lon="37.3165540">
    <ele>3363.6</ele>
    <time>2026-06-21T07:27:55Z</time>
   </trkpt>
   <trkpt lat="-3.1140840" lon="37.3165710">
    <ele>3364.3</ele>
    <time>2026-06-21T07:27:59Z</time>
   </trkpt>
   <trkpt lat="-3.1140600" lon="37.3165760">
    <ele>3365.0</ele>
    <time>2026-06-21T07:28:04Z</time>
   </trkpt>
   <trkpt lat="-3.1140360" lon="37.3165890">
    <ele>3365.8</ele>
    <time>2026-06-21T07:28:09Z</time>
   </trkpt>
   <trkpt lat="-3.1140220" lon="37.3165710">
    <ele>3366.4</ele>
    <time>2026-06-21T07:28:23Z</time>
   </trkpt>
   <trkpt lat="-3.1140270" lon="37.3165470">
    <ele>3367.1</ele>
    <time>2026-06-21T07:28:47Z</time>
   </trkpt>
   <trkpt lat="-3.1140110" lon="37.3165650">
    <ele>3367.9</ele>
    <time>2026-06-21T07:31:00Z</time>
   </trkpt>
   <trkpt lat="-3.1139980" lon="37.3165900">
    <ele>3368.7</ele>
    <time>2026-06-21T07:31:44Z</time>
   </trkpt>
   <trkpt lat="-3.1139940" lon="37.3166120">
    <ele>3369.4</ele>
    <time>2026-06-21T07:31:49Z</time>
   </trkpt>
   <trkpt lat="-3.1139710" lon="37.3166140">
    <ele>3370.2</ele>
    <time>2026-06-21T07:31:55Z</time>
   </trkpt>
   <trkpt lat="-3.1139450" lon="37.3166140">
    <ele>3371.0</ele>
    <time>2026-06-21T07:32:01Z</time>
   </trkpt>
   <trkpt lat="-3.1139240" lon="37.3166330">
    <ele>3371.9</ele>
    <time>2026-06-21T07:32:09Z</time>
   </trkpt>
   <trkpt lat="-3.1139080" lon="37.3166550">
    <ele>3372.8</ele>
    <time>2026-06-21T07:32:14Z</time>
   </trkpt>
   <trkpt lat="-3.1138820" lon="37.3166650">
    <ele>3373.7</ele>
    <time>2026-06-21T07:32:20Z</time>
   </trkpt>
   <trkpt lat="-3.1138660" lon="37.3166870">
    <ele>3374.5</ele>
    <time>2026-06-21T07:32:26Z</time>
   </trkpt>
   <trkpt lat="-3.1138590" lon="37.3167100">
    <ele>3375.2</ele>
    <time>2026-06-21T07:32:29Z</time>
   </trkpt>
   <trkpt lat="-3.1138460" lon="37.3167300">
    <ele>3375.9</ele>
    <time>2026-06-21T07:32:34Z</time>
   </trkpt>
   <trkpt lat="-3.1138390" lon="37.3167540">
    <ele>3376.6</ele>
    <time>2026-06-21T07:32:41Z</time>
   </trkpt>
   <trkpt lat="-3.1138270" lon="37.3167790">
    <ele>3377.4</ele>
    <time>2026-06-21T07:32:50Z</time>
   </trkpt>
   <trkpt lat="-3.1138040" lon="37.3167710">
    <ele>3378.2</ele>
    <time>2026-06-21T07:32:55Z</time>
   </trkpt>
   <trkpt lat="-3.1137810" lon="37.3167730">
    <ele>3378.8</ele>
    <time>2026-06-21T07:33:00Z</time>
   </trkpt>
   <trkpt lat="-3.1137580" lon="37.3167850">
    <ele>3379.6</ele>
    <time>2026-06-21T07:33:06Z</time>
   </trkpt>
   <trkpt lat="-3.1137350" lon="37.3167920">
    <ele>3380.4</ele>
    <time>2026-06-21T07:33:13Z</time>
   </trkpt>
   <trkpt lat="-3.1137170" lon="37.3168140">
    <ele>3381.3</ele>
    <time>2026-06-21T07:33:21Z</time>
   </trkpt>
   <trkpt lat="-3.1137080" lon="37.3168360">
    <ele>3382.1</ele>
    <time>2026-06-21T07:33:26Z</time>
   </trkpt>
   <trkpt lat="-3.1137040" lon="37.3168640">
    <ele>3383.0</ele>
    <time>2026-06-21T07:33:32Z</time>
   </trkpt>
   <trkpt lat="-3.1136910" lon="37.3168830">
    <ele>3383.8</ele>
    <time>2026-06-21T07:33:41Z</time>
   </trkpt>
   <trkpt lat="-3.1136780" lon="37.3169020">
    <ele>3384.6</ele>
    <time>2026-06-21T07:33:51Z</time>
   </trkpt>
   <trkpt lat="-3.1136560" lon="37.3169060">
    <ele>3385.4</ele>
    <time>2026-06-21T07:33:56Z</time>
   </trkpt>
   <trkpt lat="-3.1136390" lon="37.3169250">
    <ele>3386.3</ele>
    <time>2026-06-21T07:34:03Z</time>
   </trkpt>
   <trkpt lat="-3.1136620" lon="37.3169310">
    <ele>3387.2</ele>
    <time>2026-06-21T07:34:08Z</time>
   </trkpt>
   <trkpt lat="-3.1136550" lon="37.3169560">
    <ele>3388.1</ele>
    <time>2026-06-21T07:34:22Z</time>
   </trkpt>
   <trkpt lat="-3.1136450" lon="37.3169810">
    <ele>3389.0</ele>
    <time>2026-06-21T07:34:28Z</time>
   </trkpt>
   <trkpt lat="-3.1136560" lon="37.3170050">
    <ele>3389.9</ele>
    <time>2026-06-21T07:34:34Z</time>
   </trkpt>
   <trkpt lat="-3.1136550" lon="37.3170290">
    <ele>3390.7</ele>
    <time>2026-06-21T07:34:39Z</time>
   </trkpt>
   <trkpt lat="-3.1136450" lon="37.3170500">
    <ele>3391.5</ele>
    <time>2026-06-21T07:34:46Z</time>
   </trkpt>
   <trkpt lat="-3.1136300" lon="37.3170680">
    <ele>3392.3</ele>
    <time>2026-06-21T07:34:51Z</time>
   </trkpt>
   <trkpt lat="-3.1136090" lon="37.3170830">
    <ele>3393.2</ele>
    <time>2026-06-21T07:34:56Z</time>
   </trkpt>
   <trkpt lat="-3.1135900" lon="37.3170980">
    <ele>3394.0</ele>
    <time>2026-06-21T07:35:03Z</time>
   </trkpt>
   <trkpt lat="-3.1135650" lon="37.3171120">
    <ele>3395.1</ele>
    <time>2026-06-21T07:35:08Z</time>
   </trkpt>
   <trkpt lat="-3.1135410" lon="37.3171250">
    <ele>3396.1</ele>
    <time>2026-06-21T07:35:13Z</time>
   </trkpt>
   <trkpt lat="-3.1135340" lon="37.3171480">
    <ele>3397.1</ele>
    <time>2026-06-21T07:35:18Z</time>
   </trkpt>
   <trkpt lat="-3.1135450" lon="37.3171720">
    <ele>3398.2</ele>
    <time>2026-06-21T07:35:23Z</time>
   </trkpt>
   <trkpt lat="-3.1135580" lon="37.3171920">
    <ele>3399.2</ele>
    <time>2026-06-21T07:35:31Z</time>
   </trkpt>
   <trkpt lat="-3.1135510" lon="37.3172140">
    <ele>3400.2</ele>
    <time>2026-06-21T07:35:46Z</time>
   </trkpt>
   <trkpt lat="-3.1135320" lon="37.3172250">
    <ele>3401.2</ele>
    <time>2026-06-21T07:35:55Z</time>
   </trkpt>
   <trkpt lat="-3.1135110" lon="37.3172400">
    <ele>3402.4</ele>
    <time>2026-06-21T07:36:04Z</time>
   </trkpt>
   <trkpt lat="-3.1135450" lon="37.3172540">
    <ele>3404.0</ele>
    <time>2026-06-21T07:36:19Z</time>
   </trkpt>
   <trkpt lat="-3.1135420" lon="37.3172780">
    <ele>3405.1</ele>
    <time>2026-06-21T07:36:30Z</time>
   </trkpt>
   <trkpt lat="-3.1135230" lon="37.3172940">
    <ele>3406.2</ele>
    <time>2026-06-21T07:36:39Z</time>
   </trkpt>
   <trkpt lat="-3.1135090" lon="37.3173130">
    <ele>3407.2</ele>
    <time>2026-06-21T07:36:45Z</time>
   </trkpt>
   <trkpt lat="-3.1135020" lon="37.3173360">
    <ele>3408.2</ele>
    <time>2026-06-21T07:36:52Z</time>
   </trkpt>
   <trkpt lat="-3.1134880" lon="37.3173530">
    <ele>3409.1</ele>
    <time>2026-06-21T07:37:00Z</time>
   </trkpt>
   <trkpt lat="-3.1134660" lon="37.3173640">
    <ele>3410.1</ele>
    <time>2026-06-21T07:37:17Z</time>
   </trkpt>
   <trkpt lat="-3.1134640" lon="37.3173920">
    <ele>3411.2</ele>
    <time>2026-06-21T07:37:25Z</time>
   </trkpt>
   <trkpt lat="-3.1134810" lon="37.3174080">
    <ele>3412.1</ele>
    <time>2026-06-21T07:37:36Z</time>
   </trkpt>
   <trkpt lat="-3.1134950" lon="37.3174310">
    <ele>3413.1</ele>
    <time>2026-06-21T07:37:42Z</time>
   </trkpt>
   <trkpt lat="-3.1134880" lon="37.3174530">
    <ele>3413.9</ele>
    <time>2026-06-21T07:37:48Z</time>
   </trkpt>
   <trkpt lat="-3.1134920" lon="37.3174770">
    <ele>3414.8</ele>
    <time>2026-06-21T07:37:55Z</time>
   </trkpt>
   <trkpt lat="-3.1134720" lon="37.3174920">
    <ele>3415.7</ele>
    <time>2026-06-21T07:38:01Z</time>
   </trkpt>
   <trkpt lat="-3.1134470" lon="37.3174980">
    <ele>3416.6</ele>
    <time>2026-06-21T07:38:07Z</time>
   </trkpt>
   <trkpt lat="-3.1134270" lon="37.3175120">
    <ele>3417.5</ele>
    <time>2026-06-21T07:38:13Z</time>
   </trkpt>
   <trkpt lat="-3.1134160" lon="37.3175360">
    <ele>3418.5</ele>
    <time>2026-06-21T07:38:17Z</time>
   </trkpt>
   <trkpt lat="-3.1134230" lon="37.3175610">
    <ele>3419.5</ele>
    <time>2026-06-21T07:38:31Z</time>
   </trkpt>
   <trkpt lat="-3.1134100" lon="37.3175800">
    <ele>3420.3</ele>
    <time>2026-06-21T07:38:48Z</time>
   </trkpt>
   <trkpt lat="-3.1134180" lon="37.3176070">
    <ele>3421.5</ele>
    <time>2026-06-21T07:39:21Z</time>
   </trkpt>
   <trkpt lat="-3.1134030" lon="37.3175820">
    <ele>3422.6</ele>
    <time>2026-06-21T07:39:29Z</time>
   </trkpt>
   <trkpt lat="-3.1133910" lon="37.3175620">
    <ele>3423.6</ele>
    <time>2026-06-21T07:39:41Z</time>
   </trkpt>
   <trkpt lat="-3.1134020" lon="37.3175830">
    <ele>3424.6</ele>
    <time>2026-06-21T07:40:13Z</time>
   </trkpt>
   <trkpt lat="-3.1134120" lon="37.3176060">
    <ele>3425.6</ele>
    <time>2026-06-21T07:45:44Z</time>
   </trkpt>
   <trkpt lat="-3.1133990" lon="37.3175870">
    <ele>3426.6</ele>
    <time>2026-06-21T07:46:07Z</time>
   </trkpt>
   <trkpt lat="-3.1134090" lon="37.3176100">
    <ele>3427.6</ele>
    <time>2026-06-21T07:49:01Z</time>
   </trkpt>
   <trkpt lat="-3.1134050" lon="37.3176360">
    <ele>3428.7</ele>
    <time>2026-06-21T07:49:06Z</time>
   </trkpt>
   <trkpt lat="-3.1134050" lon="37.3176590">
    <ele>3429.6</ele>
    <time>2026-06-21T07:49:12Z</time>
   </trkpt>
   <trkpt lat="-3.1133950" lon="37.3176810">
    <ele>3430.6</ele>
    <time>2026-06-21T07:49:19Z</time>
   </trkpt>
   <trkpt lat="-3.1133960" lon="37.3177050">
    <ele>3431.6</ele>
    <time>2026-06-21T07:49:26Z</time>
   </trkpt>
   <trkpt lat="-3.1133960" lon="37.3177280">
    <ele>3432.5</ele>
    <time>2026-06-21T07:49:32Z</time>
   </trkpt>
   <trkpt lat="-3.1133890" lon="37.3177510">
    <ele>3433.5</ele>
    <time>2026-06-21T07:49:36Z</time>
   </trkpt>
   <trkpt lat="-3.1133950" lon="37.3177730">
    <ele>3434.4</ele>
    <time>2026-06-21T07:49:40Z</time>
   </trkpt>
   <trkpt lat="-3.1134180" lon="37.3177730">
    <ele>3435.3</ele>
    <time>2026-06-21T07:49:53Z</time>
   </trkpt>
   <trkpt lat="-3.1134310" lon="37.3177970">
    <ele>3436.3</ele>
    <time>2026-06-21T07:49:55Z</time>
   </trkpt>
   <trkpt lat="-3.1134150" lon="37.3178160">
    <ele>3437.3</ele>
    <time>2026-06-21T07:50:04Z</time>
   </trkpt>
   <trkpt lat="-3.1133990" lon="37.3178320">
    <ele>3438.1</ele>
    <time>2026-06-21T07:50:13Z</time>
   </trkpt>
   <trkpt lat="-3.1133890" lon="37.3178520">
    <ele>3438.9</ele>
    <time>2026-06-21T07:50:25Z</time>
   </trkpt>
   <trkpt lat="-3.1133870" lon="37.3178780">
    <ele>3439.9</ele>
    <time>2026-06-21T07:50:34Z</time>
   </trkpt>
   <trkpt lat="-3.1133780" lon="37.3179050">
    <ele>3440.9</ele>
    <time>2026-06-21T07:50:45Z</time>
   </trkpt>
   <trkpt lat="-3.1133670" lon="37.3179260">
    <ele>3441.7</ele>
    <time>2026-06-21T07:50:53Z</time>
   </trkpt>
   <trkpt lat="-3.1133560" lon="37.3179490">
    <ele>3442.6</ele>
    <time>2026-06-21T07:50:59Z</time>
   </trkpt>
   <trkpt lat="-3.1133400" lon="37.3179640">
    <ele>3443.4</ele>
    <time>2026-06-21T07:51:20Z</time>
   </trkpt>
   <trkpt lat="-3.1133510" lon="37.3179860">
    <ele>3444.1</ele>
    <time>2026-06-21T07:51:38Z</time>
   </trkpt>
   <trkpt lat="-3.1133380" lon="37.3180080">
    <ele>3444.9</ele>
    <time>2026-06-21T07:51:44Z</time>
   </trkpt>
   <trkpt lat="-3.1133190" lon="37.3180320">
    <ele>3445.8</ele>
    <time>2026-06-21T07:51:53Z</time>
   </trkpt>
   <trkpt lat="-3.1133320" lon="37.3180580">
    <ele>3446.6</ele>
    <time>2026-06-21T07:52:06Z</time>
   </trkpt>
   <trkpt lat="-3.1133330" lon="37.3180810">
    <ele>3447.2</ele>
    <time>2026-06-21T07:52:40Z</time>
   </trkpt>
   <trkpt lat="-3.1133170" lon="37.3181020">
    <ele>3447.8</ele>
    <time>2026-06-21T07:52:47Z</time>
   </trkpt>
   <trkpt lat="-3.1132950" lon="37.3181150">
    <ele>3448.3</ele>
    <time>2026-06-21T07:52:52Z</time>
   </trkpt>
   <trkpt lat="-3.1132670" lon="37.3181100">
    <ele>3448.9</ele>
    <time>2026-06-21T07:52:57Z</time>
   </trkpt>
   <trkpt lat="-3.1132400" lon="37.3181260">
    <ele>3449.5</ele>
    <time>2026-06-21T07:53:06Z</time>
   </trkpt>
   <trkpt lat="-3.1132130" lon="37.3181330">
    <ele>3449.9</ele>
    <time>2026-06-21T07:53:08Z</time>
   </trkpt>
   <trkpt lat="-3.1131950" lon="37.3181490">
    <ele>3450.3</ele>
    <time>2026-06-21T07:53:10Z</time>
   </trkpt>
   <trkpt lat="-3.1131920" lon="37.3181720">
    <ele>3450.7</ele>
    <time>2026-06-21T07:53:17Z</time>
   </trkpt>
   <trkpt lat="-3.1132050" lon="37.3181950">
    <ele>3451.1</ele>
    <time>2026-06-21T07:53:23Z</time>
   </trkpt>
   <trkpt lat="-3.1131870" lon="37.3182110">
    <ele>3451.5</ele>
    <time>2026-06-21T07:53:28Z</time>
   </trkpt>
   <trkpt lat="-3.1131820" lon="37.3182370">
    <ele>3451.9</ele>
    <time>2026-06-21T07:53:33Z</time>
   </trkpt>
   <trkpt lat="-3.1131700" lon="37.3182580">
    <ele>3452.2</ele>
    <time>2026-06-21T07:53:41Z</time>
   </trkpt>
   <trkpt lat="-3.1131570" lon="37.3182820">
    <ele>3452.5</ele>
    <time>2026-06-21T07:53:45Z</time>
   </trkpt>
   <trkpt lat="-3.1131720" lon="37.3183020">
    <ele>3452.8</ele>
    <time>2026-06-21T07:53:53Z</time>
   </trkpt>
   <trkpt lat="-3.1131560" lon="37.3183250">
    <ele>3453.0</ele>
    <time>2026-06-21T07:53:55Z</time>
   </trkpt>
   <trkpt lat="-3.1131480" lon="37.3183490">
    <ele>3453.3</ele>
    <time>2026-06-21T07:53:57Z</time>
   </trkpt>
   <trkpt lat="-3.1131360" lon="37.3183750">
    <ele>3453.5</ele>
    <time>2026-06-21T07:54:00Z</time>
   </trkpt>
   <trkpt lat="-3.1131310" lon="37.3183990">
    <ele>3453.8</ele>
    <time>2026-06-21T07:54:06Z</time>
   </trkpt>
   <trkpt lat="-3.1131190" lon="37.3184190">
    <ele>3454.0</ele>
    <time>2026-06-21T07:54:11Z</time>
   </trkpt>
   <trkpt lat="-3.1131010" lon="37.3184350">
    <ele>3454.4</ele>
    <time>2026-06-21T07:54:16Z</time>
   </trkpt>
   <trkpt lat="-3.1130780" lon="37.3184380">
    <ele>3454.7</ele>
    <time>2026-06-21T07:54:25Z</time>
   </trkpt>
   <trkpt lat="-3.1130560" lon="37.3184340">
    <ele>3455.0</ele>
    <time>2026-06-21T07:54:28Z</time>
   </trkpt>
   <trkpt lat="-3.1130350" lon="37.3184620">
    <ele>3455.6</ele>
    <time>2026-06-21T07:54:33Z</time>
   </trkpt>
   <trkpt lat="-3.1130110" lon="37.3184610">
    <ele>3456.0</ele>
    <time>2026-06-21T07:55:38Z</time>
   </trkpt>
   <trkpt lat="-3.1129910" lon="37.3184740">
    <ele>3456.4</ele>
    <time>2026-06-21T07:55:50Z</time>
   </trkpt>
   <trkpt lat="-3.1129680" lon="37.3184810">
    <ele>3456.9</ele>
    <time>2026-06-21T07:57:16Z</time>
   </trkpt>
   <trkpt lat="-3.1129440" lon="37.3184860">
    <ele>3457.3</ele>
    <time>2026-06-21T07:57:23Z</time>
   </trkpt>
   <trkpt lat="-3.1129210" lon="37.3184870">
    <ele>3457.7</ele>
    <time>2026-06-21T07:57:29Z</time>
   </trkpt>
   <trkpt lat="-3.1128970" lon="37.3184960">
    <ele>3458.2</ele>
    <time>2026-06-21T07:57:36Z</time>
   </trkpt>
   <trkpt lat="-3.1128730" lon="37.3185030">
    <ele>3458.7</ele>
    <time>2026-06-21T07:57:40Z</time>
   </trkpt>
   <trkpt lat="-3.1128470" lon="37.3185080">
    <ele>3459.3</ele>
    <time>2026-06-21T07:58:00Z</time>
   </trkpt>
   <trkpt lat="-3.1128250" lon="37.3185220">
    <ele>3459.8</ele>
    <time>2026-06-21T07:58:06Z</time>
   </trkpt>
   <trkpt lat="-3.1127980" lon="37.3185240">
    <ele>3460.4</ele>
    <time>2026-06-21T07:58:16Z</time>
   </trkpt>
   <trkpt lat="-3.1128030" lon="37.3185520">
    <ele>3461.1</ele>
    <time>2026-06-21T07:58:23Z</time>
   </trkpt>
   <trkpt lat="-3.1127920" lon="37.3185750">
    <ele>3461.7</ele>
    <time>2026-06-21T07:58:30Z</time>
   </trkpt>
   <trkpt lat="-3.1128050" lon="37.3185950">
    <ele>3462.3</ele>
    <time>2026-06-21T07:58:36Z</time>
   </trkpt>
   <trkpt lat="-3.1127830" lon="37.3186050">
    <ele>3462.9</ele>
    <time>2026-06-21T07:58:44Z</time>
   </trkpt>
   <trkpt lat="-3.1127680" lon="37.3186290">
    <ele>3463.6</ele>
    <time>2026-06-21T07:58:48Z</time>
   </trkpt>
   <trkpt lat="-3.1127620" lon="37.3186520">
    <ele>3464.2</ele>
    <time>2026-06-21T07:58:53Z</time>
   </trkpt>
   <trkpt lat="-3.1127520" lon="37.3186730">
    <ele>3464.8</ele>
    <time>2026-06-21T07:58:58Z</time>
   </trkpt>
   <trkpt lat="-3.1127460" lon="37.3186990">
    <ele>3465.5</ele>
    <time>2026-06-21T07:59:02Z</time>
   </trkpt>
   <trkpt lat="-3.1127560" lon="37.3187200">
    <ele>3466.1</ele>
    <time>2026-06-21T07:59:13Z</time>
   </trkpt>
   <trkpt lat="-3.1127460" lon="37.3187770">
    <ele>3467.6</ele>
    <time>2026-06-21T07:59:27Z</time>
   </trkpt>
   <trkpt lat="-3.1127390" lon="37.3188010">
    <ele>3468.2</ele>
    <time>2026-06-21T07:59:36Z</time>
   </trkpt>
   <trkpt lat="-3.1127220" lon="37.3188190">
    <ele>3468.8</ele>
    <time>2026-06-21T07:59:42Z</time>
   </trkpt>
   <trkpt lat="-3.1127050" lon="37.3188370">
    <ele>3469.5</ele>
    <time>2026-06-21T07:59:47Z</time>
   </trkpt>
   <trkpt lat="-3.1126920" lon="37.3188560">
    <ele>3470.1</ele>
    <time>2026-06-21T07:59:52Z</time>
   </trkpt>
   <trkpt lat="-3.1126730" lon="37.3188710">
    <ele>3470.7</ele>
    <time>2026-06-21T07:59:57Z</time>
   </trkpt>
   <trkpt lat="-3.1126550" lon="37.3188860">
    <ele>3471.3</ele>
    <time>2026-06-21T08:00:02Z</time>
   </trkpt>
   <trkpt lat="-3.1126500" lon="37.3189090">
    <ele>3471.9</ele>
    <time>2026-06-21T08:00:09Z</time>
   </trkpt>
   <trkpt lat="-3.1126410" lon="37.3189360">
    <ele>3472.7</ele>
    <time>2026-06-21T08:00:13Z</time>
   </trkpt>
   <trkpt lat="-3.1126210" lon="37.3189510">
    <ele>3473.4</ele>
    <time>2026-06-21T08:00:18Z</time>
   </trkpt>
   <trkpt lat="-3.1125990" lon="37.3189640">
    <ele>3474.1</ele>
    <time>2026-06-21T08:00:23Z</time>
   </trkpt>
   <trkpt lat="-3.1125800" lon="37.3189780">
    <ele>3474.8</ele>
    <time>2026-06-21T08:00:27Z</time>
   </trkpt>
   <trkpt lat="-3.1125460" lon="37.3190140">
    <ele>3476.2</ele>
    <time>2026-06-21T08:00:37Z</time>
   </trkpt>
   <trkpt lat="-3.1125300" lon="37.3190320">
    <ele>3476.8</ele>
    <time>2026-06-21T08:00:41Z</time>
   </trkpt>
   <trkpt lat="-3.1125090" lon="37.3190540">
    <ele>3477.7</ele>
    <time>2026-06-21T08:00:47Z</time>
   </trkpt>
   <trkpt lat="-3.1124890" lon="37.3190640">
    <ele>3478.3</ele>
    <time>2026-06-21T08:00:51Z</time>
   </trkpt>
   <trkpt lat="-3.1124660" lon="37.3190780">
    <ele>3479.1</ele>
    <time>2026-06-21T08:00:56Z</time>
   </trkpt>
   <trkpt lat="-3.1124590" lon="37.3191010">
    <ele>3479.8</ele>
    <time>2026-06-21T08:01:03Z</time>
   </trkpt>
   <trkpt lat="-3.1124650" lon="37.3191260">
    <ele>3480.5</ele>
    <time>2026-06-21T08:01:07Z</time>
   </trkpt>
   <trkpt lat="-3.1124480" lon="37.3191430">
    <ele>3481.2</ele>
    <time>2026-06-21T08:01:13Z</time>
   </trkpt>
   <trkpt lat="-3.1124580" lon="37.3191630">
    <ele>3481.9</ele>
    <time>2026-06-21T08:01:18Z</time>
   </trkpt>
   <trkpt lat="-3.1124720" lon="37.3191850">
    <ele>3482.7</ele>
    <time>2026-06-21T08:01:23Z</time>
   </trkpt>
   <trkpt lat="-3.1124840" lon="37.3192060">
    <ele>3483.4</ele>
    <time>2026-06-21T08:01:28Z</time>
   </trkpt>
   <trkpt lat="-3.1124700" lon="37.3192270">
    <ele>3484.2</ele>
    <time>2026-06-21T08:01:29Z</time>
   </trkpt>
   <trkpt lat="-3.1124650" lon="37.3192560">
    <ele>3485.1</ele>
    <time>2026-06-21T08:01:38Z</time>
   </trkpt>
   <trkpt lat="-3.1124720" lon="37.3192860">
    <ele>3486.1</ele>
    <time>2026-06-21T08:01:45Z</time>
   </trkpt>
   <trkpt lat="-3.1124640" lon="37.3193080">
    <ele>3486.8</ele>
    <time>2026-06-21T08:01:50Z</time>
   </trkpt>
   <trkpt lat="-3.1124480" lon="37.3193250">
    <ele>3487.6</ele>
    <time>2026-06-21T08:01:57Z</time>
   </trkpt>
   <trkpt lat="-3.1124260" lon="37.3193310">
    <ele>3488.3</ele>
    <time>2026-06-21T08:02:08Z</time>
   </trkpt>
   <trkpt lat="-3.1123680" lon="37.3193490">
    <ele>3490.3</ele>
    <time>2026-06-21T08:02:48Z</time>
   </trkpt>
   <trkpt lat="-3.1123450" lon="37.3193550">
    <ele>3491.1</ele>
    <time>2026-06-21T08:02:59Z</time>
   </trkpt>
   <trkpt lat="-3.1123290" lon="37.3193760">
    <ele>3492.0</ele>
    <time>2026-06-21T08:03:20Z</time>
   </trkpt>
   <trkpt lat="-3.1123110" lon="37.3193920">
    <ele>3492.8</ele>
    <time>2026-06-21T08:03:29Z</time>
   </trkpt>
   <trkpt lat="-3.1122920" lon="37.3193780">
    <ele>3493.6</ele>
    <time>2026-06-21T08:03:34Z</time>
   </trkpt>
   <trkpt lat="-3.1122700" lon="37.3193710">
    <ele>3494.4</ele>
    <time>2026-06-21T08:03:38Z</time>
   </trkpt>
   <trkpt lat="-3.1122430" lon="37.3193660">
    <ele>3495.3</ele>
    <time>2026-06-21T08:03:42Z</time>
   </trkpt>
   <trkpt lat="-3.1122280" lon="37.3193870">
    <ele>3496.2</ele>
    <time>2026-06-21T08:03:46Z</time>
   </trkpt>
   <trkpt lat="-3.1122070" lon="37.3193970">
    <ele>3497.0</ele>
    <time>2026-06-21T08:03:53Z</time>
   </trkpt>
   <trkpt lat="-3.1121840" lon="37.3194060">
    <ele>3497.8</ele>
    <time>2026-06-21T08:03:56Z</time>
   </trkpt>
   <trkpt lat="-3.1121610" lon="37.3193920">
    <ele>3498.8</ele>
    <time>2026-06-21T08:04:00Z</time>
   </trkpt>
   <trkpt lat="-3.1121450" lon="37.3194110">
    <ele>3499.7</ele>
    <time>2026-06-21T08:04:03Z</time>
   </trkpt>
   <trkpt lat="-3.1121330" lon="37.3194300">
    <ele>3500.5</ele>
    <time>2026-06-21T08:04:10Z</time>
   </trkpt>
   <trkpt lat="-3.1121050" lon="37.3194370">
    <ele>3501.5</ele>
    <time>2026-06-21T08:04:14Z</time>
   </trkpt>
   <trkpt lat="-3.1120830" lon="37.3194450">
    <ele>3502.4</ele>
    <time>2026-06-21T08:04:20Z</time>
   </trkpt>
   <trkpt lat="-3.1120600" lon="37.3194610">
    <ele>3503.4</ele>
    <time>2026-06-21T08:04:26Z</time>
   </trkpt>
   <trkpt lat="-3.1120370" lon="37.3194720">
    <ele>3504.3</ele>
    <time>2026-06-21T08:04:32Z</time>
   </trkpt>
   <trkpt lat="-3.1120110" lon="37.3194800">
    <ele>3505.3</ele>
    <time>2026-06-21T08:04:38Z</time>
   </trkpt>
   <trkpt lat="-3.1119870" lon="37.3194800">
    <ele>3506.2</ele>
    <time>2026-06-21T08:04:45Z</time>
   </trkpt>
   <trkpt lat="-3.1119760" lon="37.3195010">
    <ele>3507.0</ele>
    <time>2026-06-21T08:04:51Z</time>
   </trkpt>
   <trkpt lat="-3.1119520" lon="37.3195040">
    <ele>3507.9</ele>
    <time>2026-06-21T08:04:54Z</time>
   </trkpt>
   <trkpt lat="-3.1119290" lon="37.3195040">
    <ele>3508.6</ele>
    <time>2026-06-21T08:04:58Z</time>
   </trkpt>
   <trkpt lat="-3.1119040" lon="37.3195180">
    <ele>3509.6</ele>
    <time>2026-06-21T08:05:03Z</time>
   </trkpt>
   <trkpt lat="-3.1119030" lon="37.3195510">
    <ele>3510.8</ele>
    <time>2026-06-21T08:05:08Z</time>
   </trkpt>
   <trkpt lat="-3.1118780" lon="37.3195520">
    <ele>3511.6</ele>
    <time>2026-06-21T08:05:14Z</time>
   </trkpt>
   <trkpt lat="-3.1118590" lon="37.3195390">
    <ele>3512.4</ele>
    <time>2026-06-21T08:05:17Z</time>
   </trkpt>
   <trkpt lat="-3.1118350" lon="37.3195390">
    <ele>3513.3</ele>
    <time>2026-06-21T08:05:23Z</time>
   </trkpt>
   <trkpt lat="-3.1118120" lon="37.3195480">
    <ele>3514.1</ele>
    <time>2026-06-21T08:05:28Z</time>
   </trkpt>
   <trkpt lat="-3.1117830" lon="37.3195430">
    <ele>3515.1</ele>
    <time>2026-06-21T08:05:33Z</time>
   </trkpt>
   <trkpt lat="-3.1117590" lon="37.3195470">
    <ele>3516.0</ele>
    <time>2026-06-21T08:05:37Z</time>
   </trkpt>
   <trkpt lat="-3.1117370" lon="37.3195580">
    <ele>3516.8</ele>
    <time>2026-06-21T08:05:43Z</time>
   </trkpt>
   <trkpt lat="-3.1117150" lon="37.3195710">
    <ele>3517.7</ele>
    <time>2026-06-21T08:05:48Z</time>
   </trkpt>
   <trkpt lat="-3.1116930" lon="37.3195810">
    <ele>3518.5</ele>
    <time>2026-06-21T08:05:54Z</time>
   </trkpt>
   <trkpt lat="-3.1116710" lon="37.3195740">
    <ele>3519.3</ele>
    <time>2026-06-21T08:05:58Z</time>
   </trkpt>
   <trkpt lat="-3.1116490" lon="37.3195720">
    <ele>3520.0</ele>
    <time>2026-06-21T08:06:01Z</time>
   </trkpt>
   <trkpt lat="-3.1116150" lon="37.3195740">
    <ele>3521.2</ele>
    <time>2026-06-21T08:06:05Z</time>
   </trkpt>
   <trkpt lat="-3.1115920" lon="37.3195820">
    <ele>3522.0</ele>
    <time>2026-06-21T08:06:09Z</time>
   </trkpt>
   <trkpt lat="-3.1115700" lon="37.3195950">
    <ele>3522.9</ele>
    <time>2026-06-21T08:06:14Z</time>
   </trkpt>
   <trkpt lat="-3.1115620" lon="37.3196190">
    <ele>3523.7</ele>
    <time>2026-06-21T08:06:26Z</time>
   </trkpt>
   <trkpt lat="-3.1115400" lon="37.3196290">
    <ele>3524.5</ele>
    <time>2026-06-21T08:06:32Z</time>
   </trkpt>
   <trkpt lat="-3.1115220" lon="37.3196440">
    <ele>3525.3</ele>
    <time>2026-06-21T08:06:37Z</time>
   </trkpt>
   <trkpt lat="-3.1115030" lon="37.3196600">
    <ele>3526.2</ele>
    <time>2026-06-21T08:06:43Z</time>
   </trkpt>
   <trkpt lat="-3.1114820" lon="37.3196710">
    <ele>3527.1</ele>
    <time>2026-06-21T08:06:48Z</time>
   </trkpt>
   <trkpt lat="-3.1114540" lon="37.3196740">
    <ele>3528.1</ele>
    <time>2026-06-21T08:06:54Z</time>
   </trkpt>
   <trkpt lat="-3.1114290" lon="37.3196770">
    <ele>3529.0</ele>
    <time>2026-06-21T08:06:59Z</time>
   </trkpt>
   <trkpt lat="-3.1114050" lon="37.3196790">
    <ele>3530.0</ele>
    <time>2026-06-21T08:07:04Z</time>
   </trkpt>
   <trkpt lat="-3.1113830" lon="37.3196870">
    <ele>3530.9</ele>
    <time>2026-06-21T08:07:10Z</time>
   </trkpt>
   <trkpt lat="-3.1113930" lon="37.3197130">
    <ele>3532.0</ele>
    <time>2026-06-21T08:07:17Z</time>
   </trkpt>
   <trkpt lat="-3.1113940" lon="37.3197430">
    <ele>3533.3</ele>
    <time>2026-06-21T08:07:25Z</time>
   </trkpt>
   <trkpt lat="-3.1113880" lon="37.3197650">
    <ele>3534.3</ele>
    <time>2026-06-21T08:07:34Z</time>
   </trkpt>
   <trkpt lat="-3.1113630" lon="37.3197620">
    <ele>3535.4</ele>
    <time>2026-06-21T08:07:42Z</time>
   </trkpt>
   <trkpt lat="-3.1113490" lon="37.3197800">
    <ele>3536.4</ele>
    <time>2026-06-21T08:07:47Z</time>
   </trkpt>
   <trkpt lat="-3.1113720" lon="37.3197870">
    <ele>3537.6</ele>
    <time>2026-06-21T08:07:53Z</time>
   </trkpt>
   <trkpt lat="-3.1113740" lon="37.3198130">
    <ele>3538.8</ele>
    <time>2026-06-21T08:08:02Z</time>
   </trkpt>
   <trkpt lat="-3.1113480" lon="37.3198110">
    <ele>3540.0</ele>
    <time>2026-06-21T08:08:11Z</time>
   </trkpt>
   <trkpt lat="-3.1113410" lon="37.3198340">
    <ele>3541.2</ele>
    <time>2026-06-21T08:08:19Z</time>
   </trkpt>
   <trkpt lat="-3.1113520" lon="37.3198540">
    <ele>3542.3</ele>
    <time>2026-06-21T08:08:45Z</time>
   </trkpt>
   <trkpt lat="-3.1113700" lon="37.3198690">
    <ele>3543.5</ele>
    <time>2026-06-21T08:08:54Z</time>
   </trkpt>
   <trkpt lat="-3.1113530" lon="37.3198880">
    <ele>3544.9</ele>
    <time>2026-06-21T08:09:03Z</time>
   </trkpt>
   <trkpt lat="-3.1113640" lon="37.3199080">
    <ele>3546.1</ele>
    <time>2026-06-21T08:09:12Z</time>
   </trkpt>
   <trkpt lat="-3.1113490" lon="37.3199250">
    <ele>3547.3</ele>
    <time>2026-06-21T08:09:28Z</time>
   </trkpt>
   <trkpt lat="-3.1113730" lon="37.3199400">
    <ele>3548.9</ele>
    <time>2026-06-21T08:09:38Z</time>
   </trkpt>
   <trkpt lat="-3.1113840" lon="37.3199600">
    <ele>3550.1</ele>
    <time>2026-06-21T08:10:06Z</time>
   </trkpt>
   <trkpt lat="-3.1113890" lon="37.3199820">
    <ele>3551.3</ele>
    <time>2026-06-21T08:10:20Z</time>
   </trkpt>
   <trkpt lat="-3.1113820" lon="37.3200050">
    <ele>3552.6</ele>
    <time>2026-06-21T08:10:40Z</time>
   </trkpt>
   <trkpt lat="-3.1113750" lon="37.3200270">
    <ele>3553.8</ele>
    <time>2026-06-21T08:10:54Z</time>
   </trkpt>
   <trkpt lat="-3.1113550" lon="37.3200180">
    <ele>3554.9</ele>
    <time>2026-06-21T08:11:12Z</time>
   </trkpt>
   <trkpt lat="-3.1113310" lon="37.3200240">
    <ele>3556.1</ele>
    <time>2026-06-21T08:11:36Z</time>
   </trkpt>
   <trkpt lat="-3.1113100" lon="37.3200160">
    <ele>3557.2</ele>
    <time>2026-06-21T08:11:57Z</time>
   </trkpt>
   <trkpt lat="-3.1112870" lon="37.3200240">
    <ele>3558.5</ele>
    <time>2026-06-21T08:12:03Z</time>
   </trkpt>
   <trkpt lat="-3.1112670" lon="37.3200360">
    <ele>3559.6</ele>
    <time>2026-06-21T08:12:08Z</time>
   </trkpt>
   <trkpt lat="-3.1112450" lon="37.3200410">
    <ele>3560.8</ele>
    <time>2026-06-21T08:12:12Z</time>
   </trkpt>
   <trkpt lat="-3.1112330" lon="37.3200640">
    <ele>3562.1</ele>
    <time>2026-06-21T08:12:17Z</time>
   </trkpt>
   <trkpt lat="-3.1112370" lon="37.3200880">
    <ele>3563.3</ele>
    <time>2026-06-21T08:12:22Z</time>
   </trkpt>
   <trkpt lat="-3.1112510" lon="37.3201080">
    <ele>3564.6</ele>
    <time>2026-06-21T08:12:25Z</time>
   </trkpt>
   <trkpt lat="-3.1112540" lon="37.3201340">
    <ele>3565.9</ele>
    <time>2026-06-21T08:12:33Z</time>
   </trkpt>
   <trkpt lat="-3.1112820" lon="37.3201510">
    <ele>3567.5</ele>
    <time>2026-06-21T08:12:39Z</time>
   </trkpt>
   <trkpt lat="-3.1112810" lon="37.3201760">
    <ele>3568.8</ele>
    <time>2026-06-21T08:12:50Z</time>
   </trkpt>
   <trkpt lat="-3.1112810" lon="37.3201990">
    <ele>3569.8</ele>
    <time>2026-06-21T08:12:57Z</time>
   </trkpt>
   <trkpt lat="-3.1112990" lon="37.3202140">
    <ele>3570.8</ele>
    <time>2026-06-21T08:13:03Z</time>
   </trkpt>
   <trkpt lat="-3.1113230" lon="37.3202250">
    <ele>3571.9</ele>
    <time>2026-06-21T08:13:10Z</time>
   </trkpt>
   <trkpt lat="-3.1113490" lon="37.3202340">
    <ele>3573.0</ele>
    <time>2026-06-21T08:13:17Z</time>
   </trkpt>
   <trkpt lat="-3.1113680" lon="37.3202480">
    <ele>3573.9</ele>
    <time>2026-06-21T08:13:25Z</time>
   </trkpt>
   <trkpt lat="-3.1113890" lon="37.3202370">
    <ele>3574.8</ele>
    <time>2026-06-21T08:13:31Z</time>
   </trkpt>
   <trkpt lat="-3.1114150" lon="37.3202440">
    <ele>3575.7</ele>
    <time>2026-06-21T08:13:39Z</time>
   </trkpt>
   <trkpt lat="-3.1114090" lon="37.3202670">
    <ele>3576.6</ele>
    <time>2026-06-21T08:13:52Z</time>
   </trkpt>
   <trkpt lat="-3.1113940" lon="37.3202910">
    <ele>3577.6</ele>
    <time>2026-06-21T08:14:04Z</time>
   </trkpt>
   <trkpt lat="-3.1113800" lon="37.3203100">
    <ele>3578.5</ele>
    <time>2026-06-21T08:14:12Z</time>
   </trkpt>
   <trkpt lat="-3.1113530" lon="37.3203160">
    <ele>3579.6</ele>
    <time>2026-06-21T08:14:19Z</time>
   </trkpt>
   <trkpt lat="-3.1113390" lon="37.3203390">
    <ele>3580.7</ele>
    <time>2026-06-21T08:14:26Z</time>
   </trkpt>
   <trkpt lat="-3.1113300" lon="37.3203600">
    <ele>3581.6</ele>
    <time>2026-06-21T08:14:33Z</time>
   </trkpt>
   <trkpt lat="-3.1113150" lon="37.3203780">
    <ele>3582.5</ele>
    <time>2026-06-21T08:14:38Z</time>
   </trkpt>
   <trkpt lat="-3.1113010" lon="37.3203990">
    <ele>3583.5</ele>
    <time>2026-06-21T08:14:45Z</time>
   </trkpt>
   <trkpt lat="-3.1112840" lon="37.3204150">
    <ele>3584.4</ele>
    <time>2026-06-21T08:14:51Z</time>
   </trkpt>
   <trkpt lat="-3.1112760" lon="37.3204380">
    <ele>3585.3</ele>
    <time>2026-06-21T08:14:55Z</time>
   </trkpt>
   <trkpt lat="-3.1112580" lon="37.3204560">
    <ele>3586.2</ele>
    <time>2026-06-21T08:15:06Z</time>
   </trkpt>
   <trkpt lat="-3.1112330" lon="37.3204700">
    <ele>3587.1</ele>
    <time>2026-06-21T08:15:16Z</time>
   </trkpt>
   <trkpt lat="-3.1112060" lon="37.3204600">
    <ele>3588.0</ele>
    <time>2026-06-21T08:15:20Z</time>
   </trkpt>
   <trkpt lat="-3.1111840" lon="37.3204700">
    <ele>3588.8</ele>
    <time>2026-06-21T08:15:58Z</time>
   </trkpt>
   <trkpt lat="-3.1111650" lon="37.3204840">
    <ele>3589.5</ele>
    <time>2026-06-21T08:16:06Z</time>
   </trkpt>
   <trkpt lat="-3.1111380" lon="37.3204820">
    <ele>3590.3</ele>
    <time>2026-06-21T08:16:10Z</time>
   </trkpt>
   <trkpt lat="-3.1111150" lon="37.3204750">
    <ele>3591.0</ele>
    <time>2026-06-21T08:16:14Z</time>
   </trkpt>
   <trkpt lat="-3.1110920" lon="37.3204840">
    <ele>3591.8</ele>
    <time>2026-06-21T08:16:19Z</time>
   </trkpt>
   <trkpt lat="-3.1110850" lon="37.3205070">
    <ele>3592.6</ele>
    <time>2026-06-21T08:16:22Z</time>
   </trkpt>
   <trkpt lat="-3.1110810" lon="37.3205300">
    <ele>3593.4</ele>
    <time>2026-06-21T08:16:26Z</time>
   </trkpt>
   <trkpt lat="-3.1110580" lon="37.3205290">
    <ele>3594.2</ele>
    <time>2026-06-21T08:16:33Z</time>
   </trkpt>
   <trkpt lat="-3.1110390" lon="37.3205170">
    <ele>3595.0</ele>
    <time>2026-06-21T08:16:39Z</time>
   </trkpt>
   <trkpt lat="-3.1110140" lon="37.3205220">
    <ele>3596.0</ele>
    <time>2026-06-21T08:16:48Z</time>
   </trkpt>
   <trkpt lat="-3.1109910" lon="37.3205200">
    <ele>3596.8</ele>
    <time>2026-06-21T08:16:57Z</time>
   </trkpt>
   <trkpt lat="-3.1109680" lon="37.3205200">
    <ele>3597.6</ele>
    <time>2026-06-21T08:17:04Z</time>
   </trkpt>
   <trkpt lat="-3.1109470" lon="37.3205120">
    <ele>3598.3</ele>
    <time>2026-06-21T08:17:11Z</time>
   </trkpt>
   <trkpt lat="-3.1109240" lon="37.3205040">
    <ele>3599.1</ele>
    <time>2026-06-21T08:17:22Z</time>
   </trkpt>
   <trkpt lat="-3.1109010" lon="37.3204900">
    <ele>3599.9</ele>
    <time>2026-06-21T08:17:30Z</time>
   </trkpt>
   <trkpt lat="-3.1108750" lon="37.3204950">
    <ele>3600.7</ele>
    <time>2026-06-21T08:18:16Z</time>
   </trkpt>
   <trkpt lat="-3.1108450" lon="37.3204980">
    <ele>3601.7</ele>
    <time>2026-06-21T08:18:21Z</time>
   </trkpt>
   <trkpt lat="-3.1108220" lon="37.3204980">
    <ele>3602.4</ele>
    <time>2026-06-21T08:18:24Z</time>
   </trkpt>
   <trkpt lat="-3.1107980" lon="37.3204830">
    <ele>3603.3</ele>
    <time>2026-06-21T08:18:27Z</time>
   </trkpt>
   <trkpt lat="-3.1107760" lon="37.3204950">
    <ele>3604.0</ele>
    <time>2026-06-21T08:18:31Z</time>
   </trkpt>
   <trkpt lat="-3.1107810" lon="37.3205200">
    <ele>3604.8</ele>
    <time>2026-06-21T08:18:39Z</time>
   </trkpt>
   <trkpt lat="-3.1108010" lon="37.3205310">
    <ele>3605.5</ele>
    <time>2026-06-21T08:18:47Z</time>
   </trkpt>
   <trkpt lat="-3.1108080" lon="37.3205540">
    <ele>3606.3</ele>
    <time>2026-06-21T08:19:29Z</time>
   </trkpt>
   <trkpt lat="-3.1107940" lon="37.3205740">
    <ele>3607.1</ele>
    <time>2026-06-21T08:20:16Z</time>
   </trkpt>
   <trkpt lat="-3.1107700" lon="37.3205710">
    <ele>3607.9</ele>
    <time>2026-06-21T08:20:25Z</time>
   </trkpt>
   <trkpt lat="-3.1107450" lon="37.3205760">
    <ele>3608.7</ele>
    <time>2026-06-21T08:20:32Z</time>
   </trkpt>
   <trkpt lat="-3.1107220" lon="37.3205790">
    <ele>3609.5</ele>
    <time>2026-06-21T08:20:37Z</time>
   </trkpt>
   <trkpt lat="-3.1107010" lon="37.3205670">
    <ele>3610.3</ele>
    <time>2026-06-21T08:20:46Z</time>
   </trkpt>
   <trkpt lat="-3.1106750" lon="37.3205690">
    <ele>3611.1</ele>
    <time>2026-06-21T08:20:52Z</time>
   </trkpt>
   <trkpt lat="-3.1106510" lon="37.3205600">
    <ele>3612.0</ele>
    <time>2026-06-21T08:20:59Z</time>
   </trkpt>
   <trkpt lat="-3.1106290" lon="37.3205660">
    <ele>3612.7</ele>
    <time>2026-06-21T08:21:04Z</time>
   </trkpt>
   <trkpt lat="-3.1106060" lon="37.3205730">
    <ele>3613.4</ele>
    <time>2026-06-21T08:21:11Z</time>
   </trkpt>
   <trkpt lat="-3.1105900" lon="37.3205890">
    <ele>3614.1</ele>
    <time>2026-06-21T08:21:18Z</time>
   </trkpt>
   <trkpt lat="-3.1105480" lon="37.3205970">
    <ele>3615.3</ele>
    <time>2026-06-21T08:21:28Z</time>
   </trkpt>
   <trkpt lat="-3.1105210" lon="37.3205850">
    <ele>3616.1</ele>
    <time>2026-06-21T08:21:33Z</time>
   </trkpt>
   <trkpt lat="-3.1104990" lon="37.3205900">
    <ele>3616.7</ele>
    <time>2026-06-21T08:21:38Z</time>
   </trkpt>
   <trkpt lat="-3.1104750" lon="37.3206100">
    <ele>3617.4</ele>
    <time>2026-06-21T08:21:43Z</time>
   </trkpt>
   <trkpt lat="-3.1104510" lon="37.3206130">
    <ele>3618.0</ele>
    <time>2026-06-21T08:21:48Z</time>
   </trkpt>
   <trkpt lat="-3.1104330" lon="37.3206280">
    <ele>3618.5</ele>
    <time>2026-06-21T08:21:53Z</time>
   </trkpt>
   <trkpt lat="-3.1104090" lon="37.3206270">
    <ele>3618.9</ele>
    <time>2026-06-21T08:21:58Z</time>
   </trkpt>
   <trkpt lat="-3.1103860" lon="37.3206340">
    <ele>3619.4</ele>
    <time>2026-06-21T08:22:04Z</time>
   </trkpt>
   <trkpt lat="-3.1103570" lon="37.3206360">
    <ele>3619.8</ele>
    <time>2026-06-21T08:22:08Z</time>
   </trkpt>
   <trkpt lat="-3.1103310" lon="37.3206340">
    <ele>3620.2</ele>
    <time>2026-06-21T08:22:12Z</time>
   </trkpt>
   <trkpt lat="-3.1103040" lon="37.3206380">
    <ele>3620.6</ele>
    <time>2026-06-21T08:22:16Z</time>
   </trkpt>
   <trkpt lat="-3.1102830" lon="37.3206520">
    <ele>3620.8</ele>
    <time>2026-06-21T08:22:20Z</time>
   </trkpt>
   <trkpt lat="-3.1102630" lon="37.3206640">
    <ele>3621.1</ele>
    <time>2026-06-21T08:22:25Z</time>
   </trkpt>
   <trkpt lat="-3.1102350" lon="37.3206750">
    <ele>3621.3</ele>
    <time>2026-06-21T08:22:27Z</time>
   </trkpt>
   <trkpt lat="-3.1102040" lon="37.3206830">
    <ele>3621.5</ele>
    <time>2026-06-21T08:22:32Z</time>
   </trkpt>
   <trkpt lat="-3.1101830" lon="37.3206970">
    <ele>3621.6</ele>
    <time>2026-06-21T08:22:35Z</time>
   </trkpt>
   <trkpt lat="-3.1101650" lon="37.3207120">
    <ele>3621.7</ele>
    <time>2026-06-21T08:22:38Z</time>
   </trkpt>
   <trkpt lat="-3.1101610" lon="37.3207410">
    <ele>3621.8</ele>
    <time>2026-06-21T08:22:42Z</time>
   </trkpt>
   <trkpt lat="-3.1101470" lon="37.3207590">
    <ele>3621.9</ele>
    <time>2026-06-21T08:22:46Z</time>
   </trkpt>
   <trkpt lat="-3.1101220" lon="37.3207730">
    <ele>3622.1</ele>
    <time>2026-06-21T08:22:49Z</time>
   </trkpt>
   <trkpt lat="-3.1100970" lon="37.3207700">
    <ele>3622.2</ele>
    <time>2026-06-21T08:22:53Z</time>
   </trkpt>
   <trkpt lat="-3.1100730" lon="37.3207670">
    <ele>3622.4</ele>
    <time>2026-06-21T08:22:57Z</time>
   </trkpt>
   <trkpt lat="-3.1100510" lon="37.3207700">
    <ele>3622.6</ele>
    <time>2026-06-21T08:23:02Z</time>
   </trkpt>
   <trkpt lat="-3.1100300" lon="37.3207800">
    <ele>3622.9</ele>
    <time>2026-06-21T08:23:07Z</time>
   </trkpt>
   <trkpt lat="-3.1100100" lon="37.3207940">
    <ele>3623.2</ele>
    <time>2026-06-21T08:23:11Z</time>
   </trkpt>
   <trkpt lat="-3.1099850" lon="37.3207970">
    <ele>3623.5</ele>
    <time>2026-06-21T08:23:15Z</time>
   </trkpt>
   <trkpt lat="-3.1099570" lon="37.3207890">
    <ele>3623.9</ele>
    <time>2026-06-21T08:23:21Z</time>
   </trkpt>
   <trkpt lat="-3.1099360" lon="37.3207820">
    <ele>3624.3</ele>
    <time>2026-06-21T08:23:24Z</time>
   </trkpt>
   <trkpt lat="-3.1099110" lon="37.3207810">
    <ele>3624.7</ele>
    <time>2026-06-21T08:23:28Z</time>
   </trkpt>
   <trkpt lat="-3.1098910" lon="37.3207930">
    <ele>3625.0</ele>
    <time>2026-06-21T08:23:32Z</time>
   </trkpt>
   <trkpt lat="-3.1098690" lon="37.3207990">
    <ele>3625.4</ele>
    <time>2026-06-21T08:23:36Z</time>
   </trkpt>
   <trkpt lat="-3.1098460" lon="37.3208050">
    <ele>3625.8</ele>
    <time>2026-06-21T08:23:40Z</time>
   </trkpt>
   <trkpt lat="-3.1098320" lon="37.3208330">
    <ele>3626.3</ele>
    <time>2026-06-21T08:23:44Z</time>
   </trkpt>
   <trkpt lat="-3.1098210" lon="37.3208520">
    <ele>3626.7</ele>
    <time>2026-06-21T08:23:49Z</time>
   </trkpt>
   <trkpt lat="-3.1097980" lon="37.3208570">
    <ele>3627.1</ele>
    <time>2026-06-21T08:23:52Z</time>
   </trkpt>
   <trkpt lat="-3.1097900" lon="37.3208840">
    <ele>3627.6</ele>
    <time>2026-06-21T08:23:57Z</time>
   </trkpt>
   <trkpt lat="-3.1097820" lon="37.3209080">
    <ele>3628.1</ele>
    <time>2026-06-21T08:24:02Z</time>
   </trkpt>
   <trkpt lat="-3.1097740" lon="37.3209330">
    <ele>3628.6</ele>
    <time>2026-06-21T08:24:06Z</time>
   </trkpt>
   <trkpt lat="-3.1097660" lon="37.3209550">
    <ele>3629.1</ele>
    <time>2026-06-21T08:24:10Z</time>
   </trkpt>
   <trkpt lat="-3.1097510" lon="37.3209750">
    <ele>3629.7</ele>
    <time>2026-06-21T08:24:16Z</time>
   </trkpt>
   <trkpt lat="-3.1097260" lon="37.3209760">
    <ele>3630.3</ele>
    <time>2026-06-21T08:24:21Z</time>
   </trkpt>
   <trkpt lat="-3.1097140" lon="37.3209970">
    <ele>3630.9</ele>
    <time>2026-06-21T08:24:26Z</time>
   </trkpt>
   <trkpt lat="-3.1096860" lon="37.3210080">
    <ele>3631.6</ele>
    <time>2026-06-21T08:24:31Z</time>
   </trkpt>
   <trkpt lat="-3.1096660" lon="37.3210210">
    <ele>3632.2</ele>
    <time>2026-06-21T08:24:36Z</time>
   </trkpt>
   <trkpt lat="-3.1096560" lon="37.3210440">
    <ele>3632.8</ele>
    <time>2026-06-21T08:24:40Z</time>
   </trkpt>
   <trkpt lat="-3.1096320" lon="37.3210510">
    <ele>3633.4</ele>
    <time>2026-06-21T08:24:44Z</time>
   </trkpt>
   <trkpt lat="-3.1096060" lon="37.3210480">
    <ele>3634.1</ele>
    <time>2026-06-21T08:24:49Z</time>
   </trkpt>
   <trkpt lat="-3.1095860" lon="37.3210650">
    <ele>3634.7</ele>
    <time>2026-06-21T08:24:55Z</time>
   </trkpt>
   <trkpt lat="-3.1095610" lon="37.3210730">
    <ele>3635.4</ele>
    <time>2026-06-21T08:25:01Z</time>
   </trkpt>
   <trkpt lat="-3.1095390" lon="37.3210630">
    <ele>3636.0</ele>
    <time>2026-06-21T08:25:05Z</time>
   </trkpt>
   <trkpt lat="-3.1095140" lon="37.3210770">
    <ele>3636.7</ele>
    <time>2026-06-21T08:25:10Z</time>
   </trkpt>
   <trkpt lat="-3.1094950" lon="37.3210900">
    <ele>3637.2</ele>
    <time>2026-06-21T08:25:24Z</time>
   </trkpt>
   <trkpt lat="-3.1094740" lon="37.3211030">
    <ele>3637.9</ele>
    <time>2026-06-21T08:25:30Z</time>
   </trkpt>
   <trkpt lat="-3.1094580" lon="37.3211210">
    <ele>3638.5</ele>
    <time>2026-06-21T08:25:35Z</time>
   </trkpt>
   <trkpt lat="-3.1094380" lon="37.3211320">
    <ele>3639.0</ele>
    <time>2026-06-21T08:25:39Z</time>
   </trkpt>
   <trkpt lat="-3.1094250" lon="37.3211510">
    <ele>3639.6</ele>
    <time>2026-06-21T08:25:43Z</time>
   </trkpt>
   <trkpt lat="-3.1094020" lon="37.3211670">
    <ele>3640.3</ele>
    <time>2026-06-21T08:25:48Z</time>
   </trkpt>
   <trkpt lat="-3.1093860" lon="37.3211850">
    <ele>3640.9</ele>
    <time>2026-06-21T08:25:53Z</time>
   </trkpt>
   <trkpt lat="-3.1093660" lon="37.3212010">
    <ele>3641.6</ele>
    <time>2026-06-21T08:25:57Z</time>
   </trkpt>
   <trkpt lat="-3.1093490" lon="37.3212210">
    <ele>3642.3</ele>
    <time>2026-06-21T08:26:01Z</time>
   </trkpt>
   <trkpt lat="-3.1093260" lon="37.3212370">
    <ele>3643.0</ele>
    <time>2026-06-21T08:26:06Z</time>
   </trkpt>
   <trkpt lat="-3.1093030" lon="37.3212490">
    <ele>3643.7</ele>
    <time>2026-06-21T08:26:11Z</time>
   </trkpt>
   <trkpt lat="-3.1092830" lon="37.3212700">
    <ele>3644.5</ele>
    <time>2026-06-21T08:26:17Z</time>
   </trkpt>
   <trkpt lat="-3.1092720" lon="37.3212910">
    <ele>3645.1</ele>
    <time>2026-06-21T08:26:23Z</time>
   </trkpt>
   <trkpt lat="-3.1092510" lon="37.3213060">
    <ele>3645.8</ele>
    <time>2026-06-21T08:26:27Z</time>
   </trkpt>
   <trkpt lat="-3.1092300" lon="37.3213170">
    <ele>3646.5</ele>
    <time>2026-06-21T08:26:34Z</time>
   </trkpt>
   <trkpt lat="-3.1092060" lon="37.3213280">
    <ele>3647.2</ele>
    <time>2026-06-21T08:26:40Z</time>
   </trkpt>
   <trkpt lat="-3.1091880" lon="37.3213480">
    <ele>3648.0</ele>
    <time>2026-06-21T08:26:47Z</time>
   </trkpt>
   <trkpt lat="-3.1091570" lon="37.3214110">
    <ele>3650.2</ele>
    <time>2026-06-21T08:28:37Z</time>
   </trkpt>
   <trkpt lat="-3.1091530" lon="37.3213880">
    <ele>3650.9</ele>
    <time>2026-06-21T08:29:10Z</time>
   </trkpt>
   <trkpt lat="-3.1091620" lon="37.3214090">
    <ele>3651.6</ele>
    <time>2026-06-21T08:32:38Z</time>
   </trkpt>
   <trkpt lat="-3.1091460" lon="37.3214270">
    <ele>3652.4</ele>
    <time>2026-06-21T08:34:58Z</time>
   </trkpt>
   <trkpt lat="-3.1091370" lon="37.3214500">
    <ele>3653.2</ele>
    <time>2026-06-21T08:36:43Z</time>
   </trkpt>
   <trkpt lat="-3.1091160" lon="37.3214650">
    <ele>3654.0</ele>
    <time>2026-06-21T08:36:53Z</time>
   </trkpt>
   <trkpt lat="-3.1090970" lon="37.3214850">
    <ele>3654.9</ele>
    <time>2026-06-21T08:37:01Z</time>
   </trkpt>
   <trkpt lat="-3.1090840" lon="37.3215040">
    <ele>3655.7</ele>
    <time>2026-06-21T08:37:08Z</time>
   </trkpt>
   <trkpt lat="-3.1090600" lon="37.3215110">
    <ele>3656.6</ele>
    <time>2026-06-21T08:37:10Z</time>
   </trkpt>
   <trkpt lat="-3.1090460" lon="37.3215320">
    <ele>3657.4</ele>
    <time>2026-06-21T08:37:19Z</time>
   </trkpt>
   <trkpt lat="-3.1090220" lon="37.3215360">
    <ele>3658.2</ele>
    <time>2026-06-21T08:37:27Z</time>
   </trkpt>
   <trkpt lat="-3.1090180" lon="37.3215630">
    <ele>3659.2</ele>
    <time>2026-06-21T08:37:39Z</time>
   </trkpt>
   <trkpt lat="-3.1090290" lon="37.3215870">
    <ele>3660.1</ele>
    <time>2026-06-21T08:37:44Z</time>
   </trkpt>
   <trkpt lat="-3.1090210" lon="37.3216080">
    <ele>3660.8</ele>
    <time>2026-06-21T08:37:51Z</time>
   </trkpt>
   <trkpt lat="-3.1090250" lon="37.3216390">
    <ele>3661.9</ele>
    <time>2026-06-21T08:38:02Z</time>
   </trkpt>
   <trkpt lat="-3.1090410" lon="37.3216560">
    <ele>3662.7</ele>
    <time>2026-06-21T08:38:08Z</time>
   </trkpt>
   <trkpt lat="-3.1090640" lon="37.3216700">
    <ele>3663.6</ele>
    <time>2026-06-21T08:38:15Z</time>
   </trkpt>
   <trkpt lat="-3.1090790" lon="37.3216890">
    <ele>3664.5</ele>
    <time>2026-06-21T08:38:22Z</time>
   </trkpt>
   <trkpt lat="-3.1090840" lon="37.3217120">
    <ele>3665.3</ele>
    <time>2026-06-21T08:38:26Z</time>
   </trkpt>
   <trkpt lat="-3.1090890" lon="37.3217350">
    <ele>3666.1</ele>
    <time>2026-06-21T08:38:34Z</time>
   </trkpt>
   <trkpt lat="-3.1091020" lon="37.3217530">
    <ele>3666.9</ele>
    <time>2026-06-21T08:38:40Z</time>
   </trkpt>
   <trkpt lat="-3.1091040" lon="37.3217800">
    <ele>3667.9</ele>
    <time>2026-06-21T08:38:50Z</time>
   </trkpt>
   <trkpt lat="-3.1091160" lon="37.3218010">
    <ele>3668.7</ele>
    <time>2026-06-21T08:38:55Z</time>
   </trkpt>
   <trkpt lat="-3.1091260" lon="37.3218250">
    <ele>3669.6</ele>
    <time>2026-06-21T08:39:00Z</time>
   </trkpt>
   <trkpt lat="-3.1091110" lon="37.3218450">
    <ele>3670.5</ele>
    <time>2026-06-21T08:39:09Z</time>
   </trkpt>
   <trkpt lat="-3.1091070" lon="37.3218730">
    <ele>3671.5</ele>
    <time>2026-06-21T08:39:17Z</time>
   </trkpt>
   <trkpt lat="-3.1090990" lon="37.3218940">
    <ele>3672.3</ele>
    <time>2026-06-21T08:39:24Z</time>
   </trkpt>
   <trkpt lat="-3.1090860" lon="37.3219170">
    <ele>3673.3</ele>
    <time>2026-06-21T08:39:32Z</time>
   </trkpt>
   <trkpt lat="-3.1090780" lon="37.3219390">
    <ele>3674.1</ele>
    <time>2026-06-21T08:39:43Z</time>
   </trkpt>
   <trkpt lat="-3.1090970" lon="37.3219530">
    <ele>3675.0</ele>
    <time>2026-06-21T08:39:50Z</time>
   </trkpt>
   <trkpt lat="-3.1090890" lon="37.3219740">
    <ele>3675.7</ele>
    <time>2026-06-21T08:39:59Z</time>
   </trkpt>
   <trkpt lat="-3.1090650" lon="37.3219820">
    <ele>3676.7</ele>
    <time>2026-06-21T08:40:06Z</time>
   </trkpt>
   <trkpt lat="-3.1090410" lon="37.3219830">
    <ele>3677.6</ele>
    <time>2026-06-21T08:40:12Z</time>
   </trkpt>
   <trkpt lat="-3.1090210" lon="37.3219990">
    <ele>3678.5</ele>
    <time>2026-06-21T08:40:21Z</time>
   </trkpt>
   <trkpt lat="-3.1089990" lon="37.3220100">
    <ele>3679.4</ele>
    <time>2026-06-21T08:40:27Z</time>
   </trkpt>
   <trkpt lat="-3.1089740" lon="37.3220210">
    <ele>3680.4</ele>
    <time>2026-06-21T08:40:36Z</time>
   </trkpt>
   <trkpt lat="-3.1089540" lon="37.3220320">
    <ele>3681.3</ele>
    <time>2026-06-21T08:40:44Z</time>
   </trkpt>
   <trkpt lat="-3.1089300" lon="37.3220430">
    <ele>3682.3</ele>
    <time>2026-06-21T08:40:52Z</time>
   </trkpt>
   <trkpt lat="-3.1089060" lon="37.3220520">
    <ele>3683.2</ele>
    <time>2026-06-21T08:40:59Z</time>
   </trkpt>
   <trkpt lat="-3.1088810" lon="37.3220640">
    <ele>3684.2</ele>
    <time>2026-06-21T08:41:09Z</time>
   </trkpt>
   <trkpt lat="-3.1088590" lon="37.3220800">
    <ele>3685.1</ele>
    <time>2026-06-21T08:41:19Z</time>
   </trkpt>
   <trkpt lat="-3.1088360" lon="37.3220840">
    <ele>3685.9</ele>
    <time>2026-06-21T08:41:31Z</time>
   </trkpt>
   <trkpt lat="-3.1088420" lon="37.3221120">
    <ele>3686.9</ele>
    <time>2026-06-21T08:41:36Z</time>
   </trkpt>
   <trkpt lat="-3.1088360" lon="37.3221370">
    <ele>3687.8</ele>
    <time>2026-06-21T08:41:41Z</time>
   </trkpt>
   <trkpt lat="-3.1088100" lon="37.3221400">
    <ele>3688.6</ele>
    <time>2026-06-21T08:41:47Z</time>
   </trkpt>
   <trkpt lat="-3.1087870" lon="37.3221560">
    <ele>3689.6</ele>
    <time>2026-06-21T08:41:54Z</time>
   </trkpt>
   <trkpt lat="-3.1087630" lon="37.3221630">
    <ele>3690.4</ele>
    <time>2026-06-21T08:42:00Z</time>
   </trkpt>
   <trkpt lat="-3.1087520" lon="37.3221890">
    <ele>3691.3</ele>
    <time>2026-06-21T08:42:06Z</time>
   </trkpt>
   <trkpt lat="-3.1087350" lon="37.3222050">
    <ele>3692.1</ele>
    <time>2026-06-21T08:42:15Z</time>
   </trkpt>
   <trkpt lat="-3.1087240" lon="37.3222250">
    <ele>3692.8</ele>
    <time>2026-06-21T08:42:22Z</time>
   </trkpt>
   <trkpt lat="-3.1087020" lon="37.3222420">
    <ele>3693.7</ele>
    <time>2026-06-21T08:42:28Z</time>
   </trkpt>
   <trkpt lat="-3.1086790" lon="37.3222430">
    <ele>3694.5</ele>
    <time>2026-06-21T08:42:34Z</time>
   </trkpt>
   <trkpt lat="-3.1086590" lon="37.3222550">
    <ele>3695.2</ele>
    <time>2026-06-21T08:42:44Z</time>
   </trkpt>
   <trkpt lat="-3.1086440" lon="37.3222720">
    <ele>3696.0</ele>
    <time>2026-06-21T08:42:51Z</time>
   </trkpt>
   <trkpt lat="-3.1086180" lon="37.3222740">
    <ele>3696.9</ele>
    <time>2026-06-21T08:42:56Z</time>
   </trkpt>
   <trkpt lat="-3.1086030" lon="37.3222910">
    <ele>3697.7</ele>
    <time>2026-06-21T08:43:03Z</time>
   </trkpt>
   <trkpt lat="-3.1085870" lon="37.3223100">
    <ele>3698.6</ele>
    <time>2026-06-21T08:43:08Z</time>
   </trkpt>
   <trkpt lat="-3.1085720" lon="37.3223270">
    <ele>3699.4</ele>
    <time>2026-06-21T08:43:19Z</time>
   </trkpt>
   <trkpt lat="-3.1085730" lon="37.3223520">
    <ele>3700.3</ele>
    <time>2026-06-21T08:43:26Z</time>
   </trkpt>
   <trkpt lat="-3.1085630" lon="37.3223730">
    <ele>3701.1</ele>
    <time>2026-06-21T08:43:35Z</time>
   </trkpt>
   <trkpt lat="-3.1085640" lon="37.3223960">
    <ele>3701.9</ele>
    <time>2026-06-21T08:43:44Z</time>
   </trkpt>
   <trkpt lat="-3.1085410" lon="37.3224050">
    <ele>3702.8</ele>
    <time>2026-06-21T08:44:00Z</time>
   </trkpt>
   <trkpt lat="-3.1085170" lon="37.3223970">
    <ele>3703.7</ele>
    <time>2026-06-21T08:44:07Z</time>
   </trkpt>
   <trkpt lat="-3.1084920" lon="37.3223870">
    <ele>3704.7</ele>
    <time>2026-06-21T08:44:13Z</time>
   </trkpt>
   <trkpt lat="-3.1084700" lon="37.3223780">
    <ele>3705.5</ele>
    <time>2026-06-21T08:44:19Z</time>
   </trkpt>
   <trkpt lat="-3.1084440" lon="37.3223870">
    <ele>3706.5</ele>
    <time>2026-06-21T08:44:27Z</time>
   </trkpt>
   <trkpt lat="-3.1084310" lon="37.3224060">
    <ele>3707.4</ele>
    <time>2026-06-21T08:44:34Z</time>
   </trkpt>
   <trkpt lat="-3.1084090" lon="37.3223930">
    <ele>3708.3</ele>
    <time>2026-06-21T08:44:39Z</time>
   </trkpt>
   <trkpt lat="-3.1083870" lon="37.3224030">
    <ele>3709.2</ele>
    <time>2026-06-21T08:44:44Z</time>
   </trkpt>
   <trkpt lat="-3.1083630" lon="37.3224050">
    <ele>3710.2</ele>
    <time>2026-06-21T08:44:50Z</time>
   </trkpt>
   <trkpt lat="-3.1083500" lon="37.3224240">
    <ele>3711.1</ele>
    <time>2026-06-21T08:45:01Z</time>
   </trkpt>
   <trkpt lat="-3.1083230" lon="37.3224440">
    <ele>3712.5</ele>
    <time>2026-06-21T08:45:14Z</time>
   </trkpt>
   <trkpt lat="-3.1083120" lon="37.3224670">
    <ele>3713.6</ele>
    <time>2026-06-21T08:45:26Z</time>
   </trkpt>
   <trkpt lat="-3.1082900" lon="37.3224640">
    <ele>3714.6</ele>
    <time>2026-06-21T08:46:01Z</time>
   </trkpt>
   <trkpt lat="-3.1082660" lon="37.3224770">
    <ele>3715.8</ele>
    <time>2026-06-21T08:46:06Z</time>
   </trkpt>
   <trkpt lat="-3.1082420" lon="37.3224840">
    <ele>3716.9</ele>
    <time>2026-06-21T08:46:14Z</time>
   </trkpt>
   <trkpt lat="-3.1082410" lon="37.3225100">
    <ele>3718.1</ele>
    <time>2026-06-21T08:46:24Z</time>
   </trkpt>
   <trkpt lat="-3.1082300" lon="37.3225330">
    <ele>3719.2</ele>
    <time>2026-06-21T08:46:32Z</time>
   </trkpt>
   <trkpt lat="-3.1082220" lon="37.3225550">
    <ele>3720.3</ele>
    <time>2026-06-21T08:46:53Z</time>
   </trkpt>
   <trkpt lat="-3.1081950" lon="37.3225610">
    <ele>3721.5</ele>
    <time>2026-06-21T08:47:10Z</time>
   </trkpt>
   <trkpt lat="-3.1081720" lon="37.3225660">
    <ele>3722.5</ele>
    <time>2026-06-21T08:47:16Z</time>
   </trkpt>
   <trkpt lat="-3.1081510" lon="37.3225560">
    <ele>3723.4</ele>
    <time>2026-06-21T08:47:32Z</time>
   </trkpt>
   <trkpt lat="-3.1081290" lon="37.3225510">
    <ele>3724.3</ele>
    <time>2026-06-21T08:47:46Z</time>
   </trkpt>
   <trkpt lat="-3.1081060" lon="37.3225540">
    <ele>3725.2</ele>
    <time>2026-06-21T08:47:59Z</time>
   </trkpt>
   <trkpt lat="-3.1080930" lon="37.3225750">
    <ele>3726.0</ele>
    <time>2026-06-21T08:48:04Z</time>
   </trkpt>
   <trkpt lat="-3.1080680" lon="37.3225820">
    <ele>3726.8</ele>
    <time>2026-06-21T08:48:34Z</time>
   </trkpt>
   <trkpt lat="-3.1080410" lon="37.3225890">
    <ele>3727.5</ele>
    <time>2026-06-21T08:48:52Z</time>
   </trkpt>
   <trkpt lat="-3.1080380" lon="37.3226130">
    <ele>3728.1</ele>
    <time>2026-06-21T08:48:56Z</time>
   </trkpt>
   <trkpt lat="-3.1080320" lon="37.3226360">
    <ele>3728.6</ele>
    <time>2026-06-21T08:49:01Z</time>
   </trkpt>
   <trkpt lat="-3.1080160" lon="37.3226520">
    <ele>3729.0</ele>
    <time>2026-06-21T08:49:03Z</time>
   </trkpt>
   <trkpt lat="-3.1079950" lon="37.3226610">
    <ele>3729.5</ele>
    <time>2026-06-21T08:49:06Z</time>
   </trkpt>
   <trkpt lat="-3.1079690" lon="37.3226750">
    <ele>3730.0</ele>
    <time>2026-06-21T08:49:10Z</time>
   </trkpt>
   <trkpt lat="-3.1079460" lon="37.3226730">
    <ele>3730.4</ele>
    <time>2026-06-21T08:49:14Z</time>
   </trkpt>
   <trkpt lat="-3.1079200" lon="37.3226750">
    <ele>3730.9</ele>
    <time>2026-06-21T08:49:19Z</time>
   </trkpt>
   <trkpt lat="-3.1078990" lon="37.3226670">
    <ele>3731.3</ele>
    <time>2026-06-21T08:49:22Z</time>
   </trkpt>
   <trkpt lat="-3.1078780" lon="37.3226750">
    <ele>3731.8</ele>
    <time>2026-06-21T08:49:26Z</time>
   </trkpt>
   <trkpt lat="-3.1078560" lon="37.3226910">
    <ele>3732.4</ele>
    <time>2026-06-21T08:49:31Z</time>
   </trkpt>
   <trkpt lat="-3.1078370" lon="37.3227080">
    <ele>3733.0</ele>
    <time>2026-06-21T08:49:35Z</time>
   </trkpt>
   <trkpt lat="-3.1078140" lon="37.3227090">
    <ele>3733.5</ele>
    <time>2026-06-21T08:49:40Z</time>
   </trkpt>
   <trkpt lat="-3.1077920" lon="37.3227000">
    <ele>3734.1</ele>
    <time>2026-06-21T08:49:57Z</time>
   </trkpt>
   <trkpt lat="-3.1077680" lon="37.3227030">
    <ele>3734.8</ele>
    <time>2026-06-21T08:50:03Z</time>
   </trkpt>
   <trkpt lat="-3.1077460" lon="37.3227090">
    <ele>3735.4</ele>
    <time>2026-06-21T08:50:08Z</time>
   </trkpt>
   <trkpt lat="-3.1077230" lon="37.3227050">
    <ele>3736.0</ele>
    <time>2026-06-21T08:50:13Z</time>
   </trkpt>
   <trkpt lat="-3.1077030" lon="37.3227240">
    <ele>3736.7</ele>
    <time>2026-06-21T08:50:19Z</time>
   </trkpt>
   <trkpt lat="-3.1076790" lon="37.3227250">
    <ele>3737.3</ele>
    <time>2026-06-21T08:50:24Z</time>
   </trkpt>
   <trkpt lat="-3.1076620" lon="37.3227460">
    <ele>3738.1</ele>
    <time>2026-06-21T08:50:32Z</time>
   </trkpt>
   <trkpt lat="-3.1076380" lon="37.3227560">
    <ele>3738.7</ele>
    <time>2026-06-21T08:50:50Z</time>
   </trkpt>
   <trkpt lat="-3.1076200" lon="37.3227730">
    <ele>3739.4</ele>
    <time>2026-06-21T08:50:56Z</time>
   </trkpt>
   <trkpt lat="-3.1076360" lon="37.3227930">
    <ele>3740.0</ele>
    <time>2026-06-21T08:51:05Z</time>
   </trkpt>
   <trkpt lat="-3.1076430" lon="37.3228170">
    <ele>3740.7</ele>
    <time>2026-06-21T08:51:13Z</time>
   </trkpt>
   <trkpt lat="-3.1076420" lon="37.3228500">
    <ele>3741.5</ele>
    <time>2026-06-21T08:51:15Z</time>
   </trkpt>
   <trkpt lat="-3.1076300" lon="37.3228730">
    <ele>3742.1</ele>
    <time>2026-06-21T08:51:27Z</time>
   </trkpt>
   <trkpt lat="-3.1076130" lon="37.3228880">
    <ele>3742.6</ele>
    <time>2026-06-21T08:51:31Z</time>
   </trkpt>
   <trkpt lat="-3.1076250" lon="37.3229080">
    <ele>3743.2</ele>
    <time>2026-06-21T08:53:18Z</time>
   </trkpt>
   <trkpt lat="-3.1076110" lon="37.3229280">
    <ele>3743.7</ele>
    <time>2026-06-21T08:54:35Z</time>
   </trkpt>
   <trkpt lat="-3.1075860" lon="37.3229390">
    <ele>3744.4</ele>
    <time>2026-06-21T08:54:42Z</time>
   </trkpt>
   <trkpt lat="-3.1075740" lon="37.3229140">
    <ele>3745.1</ele>
    <time>2026-06-21T08:54:48Z</time>
   </trkpt>
   <trkpt lat="-3.1075510" lon="37.3229050">
    <ele>3745.8</ele>
    <time>2026-06-21T08:54:59Z</time>
   </trkpt>
   <trkpt lat="-3.1075270" lon="37.3229190">
    <ele>3746.6</ele>
    <time>2026-06-21T08:55:05Z</time>
   </trkpt>
   <trkpt lat="-3.1075010" lon="37.3229210">
    <ele>3747.4</ele>
    <time>2026-06-21T08:55:09Z</time>
   </trkpt>
   <trkpt lat="-3.1074760" lon="37.3229250">
    <ele>3748.2</ele>
    <time>2026-06-21T08:55:15Z</time>
   </trkpt>
   <trkpt lat="-3.1074530" lon="37.3229310">
    <ele>3749.0</ele>
    <time>2026-06-21T08:55:22Z</time>
   </trkpt>
   <trkpt lat="-3.1074300" lon="37.3229310">
    <ele>3749.7</ele>
    <time>2026-06-21T08:55:31Z</time>
   </trkpt>
   <trkpt lat="-3.1074070" lon="37.3229270">
    <ele>3750.5</ele>
    <time>2026-06-21T08:55:36Z</time>
   </trkpt>
   <trkpt lat="-3.1073890" lon="37.3229430">
    <ele>3751.3</ele>
    <time>2026-06-21T08:55:48Z</time>
   </trkpt>
   <trkpt lat="-3.1073640" lon="37.3229380">
    <ele>3752.2</ele>
    <time>2026-06-21T08:56:01Z</time>
   </trkpt>
   <trkpt lat="-3.1073390" lon="37.3229340">
    <ele>3753.1</ele>
    <time>2026-06-21T08:56:06Z</time>
   </trkpt>
   <trkpt lat="-3.1073170" lon="37.3229430">
    <ele>3753.9</ele>
    <time>2026-06-21T08:56:17Z</time>
   </trkpt>
   <trkpt lat="-3.1072940" lon="37.3229430">
    <ele>3754.7</ele>
    <time>2026-06-21T08:56:31Z</time>
   </trkpt>
   <trkpt lat="-3.1072700" lon="37.3229450">
    <ele>3755.6</ele>
    <time>2026-06-21T08:56:37Z</time>
   </trkpt>
   <trkpt lat="-3.1072540" lon="37.3229690">
    <ele>3756.6</ele>
    <time>2026-06-21T08:56:43Z</time>
   </trkpt>
   <trkpt lat="-3.1072310" lon="37.3229680">
    <ele>3757.4</ele>
    <time>2026-06-21T08:56:56Z</time>
   </trkpt>
   <trkpt lat="-3.1072050" lon="37.3229750">
    <ele>3758.3</ele>
    <time>2026-06-21T08:57:06Z</time>
   </trkpt>
   <trkpt lat="-3.1071810" lon="37.3229810">
    <ele>3759.1</ele>
    <time>2026-06-21T08:57:11Z</time>
   </trkpt>
   <trkpt lat="-3.1071530" lon="37.3229830">
    <ele>3760.0</ele>
    <time>2026-06-21T08:57:18Z</time>
   </trkpt>
   <trkpt lat="-3.1071280" lon="37.3229870">
    <ele>3760.8</ele>
    <time>2026-06-21T08:57:22Z</time>
   </trkpt>
   <trkpt lat="-3.1071040" lon="37.3229890">
    <ele>3761.4</ele>
    <time>2026-06-21T08:57:31Z</time>
   </trkpt>
   <trkpt lat="-3.1070840" lon="37.3229780">
    <ele>3762.1</ele>
    <time>2026-06-21T08:57:42Z</time>
   </trkpt>
   <trkpt lat="-3.1070640" lon="37.3229920">
    <ele>3762.6</ele>
    <time>2026-06-21T08:58:52Z</time>
   </trkpt>
   <trkpt lat="-3.1070390" lon="37.3229890">
    <ele>3763.3</ele>
    <time>2026-06-21T09:00:48Z</time>
   </trkpt>
   <trkpt lat="-3.1070090" lon="37.3229900">
    <ele>3763.9</ele>
    <time>2026-06-21T09:00:53Z</time>
   </trkpt>
   <trkpt lat="-3.1069870" lon="37.3229990">
    <ele>3764.3</ele>
    <time>2026-06-21T09:00:57Z</time>
   </trkpt>
   <trkpt lat="-3.1069650" lon="37.3230100">
    <ele>3764.8</ele>
    <time>2026-06-21T09:01:01Z</time>
   </trkpt>
   <trkpt lat="-3.1069470" lon="37.3230230">
    <ele>3765.2</ele>
    <time>2026-06-21T09:01:05Z</time>
   </trkpt>
   <trkpt lat="-3.1069450" lon="37.3230460">
    <ele>3765.5</ele>
    <time>2026-06-21T09:01:09Z</time>
   </trkpt>
   <trkpt lat="-3.1069360" lon="37.3230680">
    <ele>3765.9</ele>
    <time>2026-06-21T09:01:16Z</time>
   </trkpt>
   <trkpt lat="-3.1069230" lon="37.3230860">
    <ele>3766.3</ele>
    <time>2026-06-21T09:02:19Z</time>
   </trkpt>
   <trkpt lat="-3.1068980" lon="37.3230940">
    <ele>3766.7</ele>
    <time>2026-06-21T09:02:24Z</time>
   </trkpt>
   <trkpt lat="-3.1068910" lon="37.3231170">
    <ele>3767.1</ele>
    <time>2026-06-21T09:02:32Z</time>
   </trkpt>
   <trkpt lat="-3.1068650" lon="37.3231260">
    <ele>3767.6</ele>
    <time>2026-06-21T09:02:35Z</time>
   </trkpt>
   <trkpt lat="-3.1068470" lon="37.3231460">
    <ele>3768.2</ele>
    <time>2026-06-21T09:02:39Z</time>
   </trkpt>
   <trkpt lat="-3.1068250" lon="37.3231370">
    <ele>3768.7</ele>
    <time>2026-06-21T09:02:43Z</time>
   </trkpt>
   <trkpt lat="-3.1068010" lon="37.3231360">
    <ele>3769.2</ele>
    <time>2026-06-21T09:02:49Z</time>
   </trkpt>
   <trkpt lat="-3.1067820" lon="37.3231230">
    <ele>3769.7</ele>
    <time>2026-06-21T09:02:55Z</time>
   </trkpt>
   <trkpt lat="-3.1067590" lon="37.3231200">
    <ele>3770.3</ele>
    <time>2026-06-21T09:03:04Z</time>
   </trkpt>
   <trkpt lat="-3.1067370" lon="37.3231270">
    <ele>3770.9</ele>
    <time>2026-06-21T09:03:12Z</time>
   </trkpt>
   <trkpt lat="-3.1067110" lon="37.3231340">
    <ele>3771.5</ele>
    <time>2026-06-21T09:03:20Z</time>
   </trkpt>
   <trkpt lat="-3.1066890" lon="37.3231240">
    <ele>3772.1</ele>
    <time>2026-06-21T09:03:27Z</time>
   </trkpt>
   <trkpt lat="-3.1066660" lon="37.3231310">
    <ele>3772.7</ele>
    <time>2026-06-21T09:03:32Z</time>
   </trkpt>
   <trkpt lat="-3.1066440" lon="37.3231450">
    <ele>3773.4</ele>
    <time>2026-06-21T09:03:38Z</time>
   </trkpt>
   <trkpt lat="-3.1066240" lon="37.3231640">
    <ele>3774.1</ele>
    <time>2026-06-21T09:03:43Z</time>
   </trkpt>
   <trkpt lat="-3.1065990" lon="37.3231690">
    <ele>3774.7</ele>
    <time>2026-06-21T09:03:48Z</time>
   </trkpt>
   <trkpt lat="-3.1065820" lon="37.3231840">
    <ele>3775.3</ele>
    <time>2026-06-21T09:03:55Z</time>
   </trkpt>
   <trkpt lat="-3.1065640" lon="37.3231990">
    <ele>3775.8</ele>
    <time>2026-06-21T09:04:00Z</time>
   </trkpt>
   <trkpt lat="-3.1065450" lon="37.3232160">
    <ele>3776.5</ele>
    <time>2026-06-21T09:04:08Z</time>
   </trkpt>
   <trkpt lat="-3.1065220" lon="37.3232210">
    <ele>3777.0</ele>
    <time>2026-06-21T09:04:15Z</time>
   </trkpt>
   <trkpt lat="-3.1065000" lon="37.3232310">
    <ele>3777.6</ele>
    <time>2026-06-21T09:04:22Z</time>
   </trkpt>
   <trkpt lat="-3.1064760" lon="37.3232420">
    <ele>3778.2</ele>
    <time>2026-06-21T09:04:28Z</time>
   </trkpt>
   <trkpt lat="-3.1064440" lon="37.3232470">
    <ele>3778.9</ele>
    <time>2026-06-21T09:04:35Z</time>
   </trkpt>
   <trkpt lat="-3.1064220" lon="37.3232550">
    <ele>3779.4</ele>
    <time>2026-06-21T09:04:48Z</time>
   </trkpt>
   <trkpt lat="-3.1064040" lon="37.3232680">
    <ele>3780.0</ele>
    <time>2026-06-21T09:04:53Z</time>
   </trkpt>
   <trkpt lat="-3.1063810" lon="37.3232810">
    <ele>3780.6</ele>
    <time>2026-06-21T09:04:58Z</time>
   </trkpt>
   <trkpt lat="-3.1063520" lon="37.3232700">
    <ele>3781.4</ele>
    <time>2026-06-21T09:05:03Z</time>
   </trkpt>
   <trkpt lat="-3.1063220" lon="37.3232720">
    <ele>3782.2</ele>
    <time>2026-06-21T09:05:23Z</time>
   </trkpt>
   <trkpt lat="-3.1062980" lon="37.3232800">
    <ele>3782.9</ele>
    <time>2026-06-21T09:05:35Z</time>
   </trkpt>
   <trkpt lat="-3.1062770" lon="37.3232710">
    <ele>3783.5</ele>
    <time>2026-06-21T09:05:41Z</time>
   </trkpt>
   <trkpt lat="-3.1062570" lon="37.3232590">
    <ele>3784.1</ele>
    <time>2026-06-21T09:05:45Z</time>
   </trkpt>
   <trkpt lat="-3.1062330" lon="37.3232490">
    <ele>3784.8</ele>
    <time>2026-06-21T09:05:51Z</time>
   </trkpt>
   <trkpt lat="-3.1062090" lon="37.3232540">
    <ele>3785.4</ele>
    <time>2026-06-21T09:05:58Z</time>
   </trkpt>
   <trkpt lat="-3.1061860" lon="37.3232620">
    <ele>3786.1</ele>
    <time>2026-06-21T09:06:05Z</time>
   </trkpt>
   <trkpt lat="-3.1061640" lon="37.3232680">
    <ele>3786.6</ele>
    <time>2026-06-21T09:06:11Z</time>
   </trkpt>
   <trkpt lat="-3.1061400" lon="37.3232660">
    <ele>3787.2</ele>
    <time>2026-06-21T09:06:21Z</time>
   </trkpt>
   <trkpt lat="-3.1061170" lon="37.3232670">
    <ele>3787.7</ele>
    <time>2026-06-21T09:06:27Z</time>
   </trkpt>
   <trkpt lat="-3.1060940" lon="37.3232790">
    <ele>3788.2</ele>
    <time>2026-06-21T09:06:33Z</time>
   </trkpt>
   <trkpt lat="-3.1060730" lon="37.3232690">
    <ele>3788.7</ele>
    <time>2026-06-21T09:06:38Z</time>
   </trkpt>
   <trkpt lat="-3.1060470" lon="37.3232830">
    <ele>3789.2</ele>
    <time>2026-06-21T09:06:42Z</time>
   </trkpt>
   <trkpt lat="-3.1060170" lon="37.3232900">
    <ele>3789.6</ele>
    <time>2026-06-21T09:06:47Z</time>
   </trkpt>
   <trkpt lat="-3.1059950" lon="37.3232940">
    <ele>3789.9</ele>
    <time>2026-06-21T09:06:50Z</time>
   </trkpt>
   <trkpt lat="-3.1059700" lon="37.3232900">
    <ele>3790.3</ele>
    <time>2026-06-21T09:06:54Z</time>
   </trkpt>
   <trkpt lat="-3.1059460" lon="37.3232830">
    <ele>3790.6</ele>
    <time>2026-06-21T09:07:01Z</time>
   </trkpt>
   <trkpt lat="-3.1059300" lon="37.3233000">
    <ele>3790.9</ele>
    <time>2026-06-21T09:07:05Z</time>
   </trkpt>
   <trkpt lat="-3.1059110" lon="37.3232850">
    <ele>3791.2</ele>
    <time>2026-06-21T09:07:15Z</time>
   </trkpt>
   <trkpt lat="-3.1058840" lon="37.3232650">
    <ele>3791.7</ele>
    <time>2026-06-21T09:07:36Z</time>
   </trkpt>
   <trkpt lat="-3.1058870" lon="37.3232910">
    <ele>3792.1</ele>
    <time>2026-06-21T09:07:47Z</time>
   </trkpt>
   <trkpt lat="-3.1058890" lon="37.3233140">
    <ele>3792.6</ele>
    <time>2026-06-21T09:07:50Z</time>
   </trkpt>
   <trkpt lat="-3.1058640" lon="37.3233160">
    <ele>3793.1</ele>
    <time>2026-06-21T09:08:00Z</time>
   </trkpt>
   <trkpt lat="-3.1058430" lon="37.3233260">
    <ele>3793.7</ele>
    <time>2026-06-21T09:08:20Z</time>
   </trkpt>
   <trkpt lat="-3.1058330" lon="37.3233480">
    <ele>3794.4</ele>
    <time>2026-06-21T09:08:38Z</time>
   </trkpt>
   <trkpt lat="-3.1058360" lon="37.3233740">
    <ele>3795.1</ele>
    <time>2026-06-21T09:08:43Z</time>
   </trkpt>
   <trkpt lat="-3.1058130" lon="37.3233740">
    <ele>3795.8</ele>
    <time>2026-06-21T09:10:23Z</time>
   </trkpt>
   <trkpt lat="-3.1057990" lon="37.3233940">
    <ele>3796.5</ele>
    <time>2026-06-21T09:10:32Z</time>
   </trkpt>
   <trkpt lat="-3.1057660" lon="37.3234000">
    <ele>3797.5</ele>
    <time>2026-06-21T09:10:38Z</time>
   </trkpt>
   <trkpt lat="-3.1057450" lon="37.3234120">
    <ele>3798.1</ele>
    <time>2026-06-21T09:10:45Z</time>
   </trkpt>
   <trkpt lat="-3.1057210" lon="37.3234240">
    <ele>3798.8</ele>
    <time>2026-06-21T09:10:55Z</time>
   </trkpt>
   <trkpt lat="-3.1056990" lon="37.3234330">
    <ele>3799.3</ele>
    <time>2026-06-21T09:11:02Z</time>
   </trkpt>
   <trkpt lat="-3.1056820" lon="37.3234480">
    <ele>3799.9</ele>
    <time>2026-06-21T09:11:11Z</time>
   </trkpt>
   <trkpt lat="-3.1056840" lon="37.3234720">
    <ele>3800.4</ele>
    <time>2026-06-21T09:11:23Z</time>
   </trkpt>
   <trkpt lat="-3.1056720" lon="37.3235030">
    <ele>3801.2</ele>
    <time>2026-06-21T09:11:36Z</time>
   </trkpt>
   <trkpt lat="-3.1056480" lon="37.3235220">
    <ele>3802.0</ele>
    <time>2026-06-21T09:11:46Z</time>
   </trkpt>
   <trkpt lat="-3.1056280" lon="37.3235390">
    <ele>3802.6</ele>
    <time>2026-06-21T09:11:50Z</time>
   </trkpt>
   <trkpt lat="-3.1056000" lon="37.3235340">
    <ele>3803.4</ele>
    <time>2026-06-21T09:11:56Z</time>
   </trkpt>
   <trkpt lat="-3.1055760" lon="37.3235400">
    <ele>3804.0</ele>
    <time>2026-06-21T09:12:07Z</time>
   </trkpt>
   <trkpt lat="-3.1055670" lon="37.3235630">
    <ele>3804.7</ele>
    <time>2026-06-21T09:12:21Z</time>
   </trkpt>
   <trkpt lat="-3.1055900" lon="37.3235790">
    <ele>3805.4</ele>
    <time>2026-06-21T09:12:26Z</time>
   </trkpt>
   <trkpt lat="-3.1056080" lon="37.3235930">
    <ele>3806.0</ele>
    <time>2026-06-21T09:12:29Z</time>
   </trkpt>
   <trkpt lat="-3.1056200" lon="37.3236140">
    <ele>3806.6</ele>
    <time>2026-06-21T09:12:32Z</time>
   </trkpt>
   <trkpt lat="-3.1055990" lon="37.3236240">
    <ele>3807.2</ele>
    <time>2026-06-21T09:12:39Z</time>
   </trkpt>
   <trkpt lat="-3.1055690" lon="37.3236190">
    <ele>3807.9</ele>
    <time>2026-06-21T09:12:43Z</time>
   </trkpt>
   <trkpt lat="-3.1055540" lon="37.3236020">
    <ele>3808.5</ele>
    <time>2026-06-21T09:12:47Z</time>
   </trkpt>
   <trkpt lat="-3.1055390" lon="37.3236190">
    <ele>3809.0</ele>
    <time>2026-06-21T09:12:56Z</time>
   </trkpt>
   <trkpt lat="-3.1055210" lon="37.3236400">
    <ele>3809.5</ele>
    <time>2026-06-21T09:13:05Z</time>
   </trkpt>
   <trkpt lat="-3.1055030" lon="37.3236610">
    <ele>3810.1</ele>
    <time>2026-06-21T09:13:11Z</time>
   </trkpt>
   <trkpt lat="-3.1054890" lon="37.3236790">
    <ele>3810.5</ele>
    <time>2026-06-21T09:13:16Z</time>
   </trkpt>
   <trkpt lat="-3.1054730" lon="37.3236960">
    <ele>3811.0</ele>
    <time>2026-06-21T09:13:23Z</time>
   </trkpt>
   <trkpt lat="-3.1054510" lon="37.3237110">
    <ele>3811.5</ele>
    <time>2026-06-21T09:13:29Z</time>
   </trkpt>
   <trkpt lat="-3.1054340" lon="37.3237280">
    <ele>3811.9</ele>
    <time>2026-06-21T09:13:35Z</time>
   </trkpt>
   <trkpt lat="-3.1054130" lon="37.3237380">
    <ele>3812.4</ele>
    <time>2026-06-21T09:13:43Z</time>
   </trkpt>
   <trkpt lat="-3.1053900" lon="37.3237420">
    <ele>3812.8</ele>
    <time>2026-06-21T09:13:48Z</time>
   </trkpt>
   <trkpt lat="-3.1053680" lon="37.3237310">
    <ele>3813.3</ele>
    <time>2026-06-21T09:13:53Z</time>
   </trkpt>
   <trkpt lat="-3.1053520" lon="37.3237150">
    <ele>3813.8</ele>
    <time>2026-06-21T09:13:58Z</time>
   </trkpt>
   <trkpt lat="-3.1053290" lon="37.3237240">
    <ele>3814.3</ele>
    <time>2026-06-21T09:14:05Z</time>
   </trkpt>
   <trkpt lat="-3.1053150" lon="37.3237420">
    <ele>3814.8</ele>
    <time>2026-06-21T09:14:11Z</time>
   </trkpt>
   <trkpt lat="-3.1052960" lon="37.3237570">
    <ele>3815.4</ele>
    <time>2026-06-21T09:14:22Z</time>
   </trkpt>
   <trkpt lat="-3.1052690" lon="37.3237740">
    <ele>3816.1</ele>
    <time>2026-06-21T09:14:31Z</time>
   </trkpt>
   <trkpt lat="-3.1052450" lon="37.3237690">
    <ele>3816.7</ele>
    <time>2026-06-21T09:14:40Z</time>
   </trkpt>
   <trkpt lat="-3.1052200" lon="37.3237740">
    <ele>3817.2</ele>
    <time>2026-06-21T09:14:48Z</time>
   </trkpt>
   <trkpt lat="-3.1051980" lon="37.3237830">
    <ele>3817.8</ele>
    <time>2026-06-21T09:14:53Z</time>
   </trkpt>
   <trkpt lat="-3.1051960" lon="37.3238070">
    <ele>3818.3</ele>
    <time>2026-06-21T09:14:57Z</time>
   </trkpt>
   <trkpt lat="-3.1051900" lon="37.3238330">
    <ele>3818.9</ele>
    <time>2026-06-21T09:15:01Z</time>
   </trkpt>
   <trkpt lat="-3.1051860" lon="37.3238550">
    <ele>3819.3</ele>
    <time>2026-06-21T09:15:04Z</time>
   </trkpt>
   <trkpt lat="-3.1051860" lon="37.3238790">
    <ele>3819.7</ele>
    <time>2026-06-21T09:15:10Z</time>
   </trkpt>
   <trkpt lat="-3.1051690" lon="37.3238930">
    <ele>3820.1</ele>
    <time>2026-06-21T09:15:17Z</time>
   </trkpt>
   <trkpt lat="-3.1051530" lon="37.3239100">
    <ele>3820.4</ele>
    <time>2026-06-21T09:15:22Z</time>
   </trkpt>
   <trkpt lat="-3.1051260" lon="37.3239150">
    <ele>3820.8</ele>
    <time>2026-06-21T09:15:38Z</time>
   </trkpt>
   <trkpt lat="-3.1050990" lon="37.3239190">
    <ele>3821.1</ele>
    <time>2026-06-21T09:15:45Z</time>
   </trkpt>
   <trkpt lat="-3.1050780" lon="37.3239280">
    <ele>3821.3</ele>
    <time>2026-06-21T09:15:49Z</time>
   </trkpt>
   <trkpt lat="-3.1050570" lon="37.3239380">
    <ele>3821.5</ele>
    <time>2026-06-21T09:15:53Z</time>
   </trkpt>
   <trkpt lat="-3.1050340" lon="37.3239350">
    <ele>3821.7</ele>
    <time>2026-06-21T09:15:56Z</time>
   </trkpt>
   <trkpt lat="-3.1050100" lon="37.3239340">
    <ele>3821.9</ele>
    <time>2026-06-21T09:16:00Z</time>
   </trkpt>
   <trkpt lat="-3.1049860" lon="37.3239510">
    <ele>3822.1</ele>
    <time>2026-06-21T09:16:04Z</time>
   </trkpt>
   <trkpt lat="-3.1049770" lon="37.3239720">
    <ele>3822.3</ele>
    <time>2026-06-21T09:16:07Z</time>
   </trkpt>
   <trkpt lat="-3.1049510" lon="37.3239770">
    <ele>3822.6</ele>
    <time>2026-06-21T09:16:15Z</time>
   </trkpt>
   <trkpt lat="-3.1049280" lon="37.3239920">
    <ele>3822.9</ele>
    <time>2026-06-21T09:16:23Z</time>
   </trkpt>
   <trkpt lat="-3.1049040" lon="37.3240000">
    <ele>3823.2</ele>
    <time>2026-06-21T09:16:31Z</time>
   </trkpt>
   <trkpt lat="-3.1048820" lon="37.3239920">
    <ele>3823.6</ele>
    <time>2026-06-21T09:16:37Z</time>
   </trkpt>
   <trkpt lat="-3.1048590" lon="37.3239970">
    <ele>3823.9</ele>
    <time>2026-06-21T09:16:41Z</time>
   </trkpt>
   <trkpt lat="-3.1048380" lon="37.3240120">
    <ele>3824.3</ele>
    <time>2026-06-21T09:16:46Z</time>
   </trkpt>
   <trkpt lat="-3.1048160" lon="37.3240290">
    <ele>3824.7</ele>
    <time>2026-06-21T09:16:50Z</time>
   </trkpt>
   <trkpt lat="-3.1047910" lon="37.3240300">
    <ele>3825.0</ele>
    <time>2026-06-21T09:16:53Z</time>
   </trkpt>
   <trkpt lat="-3.1047700" lon="37.3240450">
    <ele>3825.4</ele>
    <time>2026-06-21T09:16:56Z</time>
   </trkpt>
   <trkpt lat="-3.1047490" lon="37.3240560">
    <ele>3825.7</ele>
    <time>2026-06-21T09:16:59Z</time>
   </trkpt>
   <trkpt lat="-3.1047330" lon="37.3240740">
    <ele>3826.0</ele>
    <time>2026-06-21T09:17:02Z</time>
   </trkpt>
   <trkpt lat="-3.1047110" lon="37.3240720">
    <ele>3826.2</ele>
    <time>2026-06-21T09:17:06Z</time>
   </trkpt>
   <trkpt lat="-3.1046880" lon="37.3240760">
    <ele>3826.5</ele>
    <time>2026-06-21T09:17:33Z</time>
   </trkpt>
   <trkpt lat="-3.1046610" lon="37.3240710">
    <ele>3826.9</ele>
    <time>2026-06-21T09:17:42Z</time>
   </trkpt>
   <trkpt lat="-3.1046320" lon="37.3240780">
    <ele>3827.3</ele>
    <time>2026-06-21T09:17:45Z</time>
   </trkpt>
   <trkpt lat="-3.1046150" lon="37.3240540">
    <ele>3827.8</ele>
    <time>2026-06-21T09:17:52Z</time>
   </trkpt>
   <trkpt lat="-3.1045920" lon="37.3240600">
    <ele>3828.2</ele>
    <time>2026-06-21T09:18:00Z</time>
   </trkpt>
   <trkpt lat="-3.1045740" lon="37.3240790">
    <ele>3828.7</ele>
    <time>2026-06-21T09:18:08Z</time>
   </trkpt>
   <trkpt lat="-3.1045520" lon="37.3240860">
    <ele>3829.2</ele>
    <time>2026-06-21T09:18:14Z</time>
   </trkpt>
   <trkpt lat="-3.1045320" lon="37.3241020">
    <ele>3829.7</ele>
    <time>2026-06-21T09:18:20Z</time>
   </trkpt>
   <trkpt lat="-3.1045030" lon="37.3241040">
    <ele>3830.4</ele>
    <time>2026-06-21T09:18:26Z</time>
   </trkpt>
   <trkpt lat="-3.1044810" lon="37.3241140">
    <ele>3831.0</ele>
    <time>2026-06-21T09:18:32Z</time>
   </trkpt>
   <trkpt lat="-3.1044560" lon="37.3241150">
    <ele>3831.7</ele>
    <time>2026-06-21T09:18:40Z</time>
   </trkpt>
   <trkpt lat="-3.1044300" lon="37.3241150">
    <ele>3832.3</ele>
    <time>2026-06-21T09:18:48Z</time>
   </trkpt>
   <trkpt lat="-3.1044080" lon="37.3241070">
    <ele>3832.9</ele>
    <time>2026-06-21T09:18:56Z</time>
   </trkpt>
   <trkpt lat="-3.1043980" lon="37.3240860">
    <ele>3833.5</ele>
    <time>2026-06-21T09:19:01Z</time>
   </trkpt>
   <trkpt lat="-3.1043730" lon="37.3240750">
    <ele>3834.2</ele>
    <time>2026-06-21T09:19:09Z</time>
   </trkpt>
   <trkpt lat="-3.1043470" lon="37.3240870">
    <ele>3834.9</ele>
    <time>2026-06-21T09:19:14Z</time>
   </trkpt>
   <trkpt lat="-3.1043210" lon="37.3240860">
    <ele>3835.5</ele>
    <time>2026-06-21T09:19:20Z</time>
   </trkpt>
   <trkpt lat="-3.1042950" lon="37.3240800">
    <ele>3836.2</ele>
    <time>2026-06-21T09:19:27Z</time>
   </trkpt>
   <trkpt lat="-3.1042700" lon="37.3240780">
    <ele>3836.8</ele>
    <time>2026-06-21T09:19:34Z</time>
   </trkpt>
   <trkpt lat="-3.1041970" lon="37.3240890">
    <ele>3838.9</ele>
    <time>2026-06-21T09:19:57Z</time>
   </trkpt>
   <trkpt lat="-3.1041740" lon="37.3240860">
    <ele>3839.6</ele>
    <time>2026-06-21T09:20:04Z</time>
   </trkpt>
   <trkpt lat="-3.1041560" lon="37.3241010">
    <ele>3840.3</ele>
    <time>2026-06-21T09:20:12Z</time>
   </trkpt>
   <trkpt lat="-3.1041290" lon="37.3240970">
    <ele>3841.2</ele>
    <time>2026-06-21T09:20:25Z</time>
   </trkpt>
   <trkpt lat="-3.1041160" lon="37.3240780">
    <ele>3842.0</ele>
    <time>2026-06-21T09:20:30Z</time>
   </trkpt>
   <trkpt lat="-3.1041010" lon="37.3240980">
    <ele>3842.9</ele>
    <time>2026-06-21T09:20:38Z</time>
   </trkpt>
   <trkpt lat="-3.1040790" lon="37.3241050">
    <ele>3843.8</ele>
    <time>2026-06-21T09:20:51Z</time>
   </trkpt>
   <trkpt lat="-3.1040530" lon="37.3241010">
    <ele>3844.8</ele>
    <time>2026-06-21T09:21:01Z</time>
   </trkpt>
   <trkpt lat="-3.1040290" lon="37.3241020">
    <ele>3845.7</ele>
    <time>2026-06-21T09:21:09Z</time>
   </trkpt>
   <trkpt lat="-3.1040130" lon="37.3240850">
    <ele>3846.5</ele>
    <time>2026-06-21T09:21:15Z</time>
   </trkpt>
   <trkpt lat="-3.1039890" lon="37.3240860">
    <ele>3847.4</ele>
    <time>2026-06-21T09:21:30Z</time>
   </trkpt>
   <trkpt lat="-3.1039730" lon="37.3241020">
    <ele>3848.2</ele>
    <time>2026-06-21T09:21:38Z</time>
   </trkpt>
   <trkpt lat="-3.1039640" lon="37.3240800">
    <ele>3849.0</ele>
    <time>2026-06-21T09:21:43Z</time>
   </trkpt>
   <trkpt lat="-3.1039470" lon="37.3240640">
    <ele>3849.9</ele>
    <time>2026-06-21T09:22:19Z</time>
   </trkpt>
   <trkpt lat="-3.1039210" lon="37.3240570">
    <ele>3850.8</ele>
    <time>2026-06-21T09:22:40Z</time>
   </trkpt>
   <trkpt lat="-3.1039000" lon="37.3240460">
    <ele>3852.0</ele>
    <time>2026-06-21T09:22:48Z</time>
   </trkpt>
   <trkpt lat="-3.1038800" lon="37.3240590">
    <ele>3852.7</ele>
    <time>2026-06-21T09:22:53Z</time>
   </trkpt>
   <trkpt lat="-3.1038640" lon="37.3240780">
    <ele>3853.5</ele>
    <time>2026-06-21T09:23:01Z</time>
   </trkpt>
   <trkpt lat="-3.1038510" lon="37.3240970">
    <ele>3854.1</ele>
    <time>2026-06-21T09:23:05Z</time>
   </trkpt>
   <trkpt lat="-3.1038330" lon="37.3241160">
    <ele>3854.8</ele>
    <time>2026-06-21T09:23:11Z</time>
   </trkpt>
   <trkpt lat="-3.1038120" lon="37.3241280">
    <ele>3855.4</ele>
    <time>2026-06-21T09:23:18Z</time>
   </trkpt>
   <trkpt lat="-3.1037920" lon="37.3241170">
    <ele>3856.0</ele>
    <time>2026-06-21T09:23:30Z</time>
   </trkpt>
   <trkpt lat="-3.1037730" lon="37.3241320">
    <ele>3856.5</ele>
    <time>2026-06-21T09:23:36Z</time>
   </trkpt>
   <trkpt lat="-3.1037500" lon="37.3241390">
    <ele>3857.1</ele>
    <time>2026-06-21T09:23:41Z</time>
   </trkpt>
   <trkpt lat="-3.1037340" lon="37.3241600">
    <ele>3857.6</ele>
    <time>2026-06-21T09:23:46Z</time>
   </trkpt>
   <trkpt lat="-3.1037140" lon="37.3241750">
    <ele>3858.1</ele>
    <time>2026-06-21T09:23:50Z</time>
   </trkpt>
   <trkpt lat="-3.1036990" lon="37.3241950">
    <ele>3858.5</ele>
    <time>2026-06-21T09:23:54Z</time>
   </trkpt>
   <trkpt lat="-3.1036810" lon="37.3242100">
    <ele>3859.0</ele>
    <time>2026-06-21T09:23:59Z</time>
   </trkpt>
   <trkpt lat="-3.1036580" lon="37.3242270">
    <ele>3859.5</ele>
    <time>2026-06-21T09:24:05Z</time>
   </trkpt>
   <trkpt lat="-3.1036400" lon="37.3242460">
    <ele>3860.0</ele>
    <time>2026-06-21T09:24:10Z</time>
   </trkpt>
   <trkpt lat="-3.1036180" lon="37.3242550">
    <ele>3860.5</ele>
    <time>2026-06-21T09:24:17Z</time>
   </trkpt>
   <trkpt lat="-3.1036030" lon="37.3242730">
    <ele>3861.0</ele>
    <time>2026-06-21T09:24:21Z</time>
   </trkpt>
   <trkpt lat="-3.1035860" lon="37.3242900">
    <ele>3861.6</ele>
    <time>2026-06-21T09:24:28Z</time>
   </trkpt>
   <trkpt lat="-3.1035690" lon="37.3243100">
    <ele>3862.3</ele>
    <time>2026-06-21T09:24:39Z</time>
   </trkpt>
   <trkpt lat="-3.1035490" lon="37.3243210">
    <ele>3862.9</ele>
    <time>2026-06-21T09:24:48Z</time>
   </trkpt>
   <trkpt lat="-3.1035390" lon="37.3243470">
    <ele>3863.7</ele>
    <time>2026-06-21T09:24:53Z</time>
   </trkpt>
   <trkpt lat="-3.1035130" lon="37.3243410">
    <ele>3864.6</ele>
    <time>2026-06-21T09:25:02Z</time>
   </trkpt>
   <trkpt lat="-3.1034930" lon="37.3243530">
    <ele>3865.3</ele>
    <time>2026-06-21T09:25:10Z</time>
   </trkpt>
   <trkpt lat="-3.1034700" lon="37.3243510">
    <ele>3866.1</ele>
    <time>2026-06-21T09:25:18Z</time>
   </trkpt>
   <trkpt lat="-3.1034460" lon="37.3243540">
    <ele>3866.9</ele>
    <time>2026-06-21T09:25:36Z</time>
   </trkpt>
   <trkpt lat="-3.1034250" lon="37.3243630">
    <ele>3867.6</ele>
    <time>2026-06-21T09:25:49Z</time>
   </trkpt>
   <trkpt lat="-3.1034160" lon="37.3243870">
    <ele>3868.4</ele>
    <time>2026-06-21T09:25:53Z</time>
   </trkpt>
   <trkpt lat="-3.1033950" lon="37.3243990">
    <ele>3869.2</ele>
    <time>2026-06-21T09:26:03Z</time>
   </trkpt>
   <trkpt lat="-3.1033760" lon="37.3244150">
    <ele>3870.0</ele>
    <time>2026-06-21T09:26:10Z</time>
   </trkpt>
   <trkpt lat="-3.1033580" lon="37.3244290">
    <ele>3870.8</ele>
    <time>2026-06-21T09:26:17Z</time>
   </trkpt>
   <trkpt lat="-3.1033420" lon="37.3244470">
    <ele>3871.6</ele>
    <time>2026-06-21T09:26:25Z</time>
   </trkpt>
   <trkpt lat="-3.1033230" lon="37.3244620">
    <ele>3872.4</ele>
    <time>2026-06-21T09:26:34Z</time>
   </trkpt>
   <trkpt lat="-3.1033030" lon="37.3244760">
    <ele>3873.2</ele>
    <time>2026-06-21T09:26:40Z</time>
   </trkpt>
   <trkpt lat="-3.1032850" lon="37.3244920">
    <ele>3874.0</ele>
    <time>2026-06-21T09:26:49Z</time>
   </trkpt>
   <trkpt lat="-3.1032670" lon="37.3244780">
    <ele>3874.8</ele>
    <time>2026-06-21T09:26:58Z</time>
   </trkpt>
   <trkpt lat="-3.1032620" lon="37.3244550">
    <ele>3875.6</ele>
    <time>2026-06-21T09:27:09Z</time>
   </trkpt>
   <trkpt lat="-3.1032490" lon="37.3244340">
    <ele>3876.4</ele>
    <time>2026-06-21T09:27:17Z</time>
   </trkpt>
   <trkpt lat="-3.1032200" lon="37.3244380">
    <ele>3877.3</ele>
    <time>2026-06-21T09:27:33Z</time>
   </trkpt>
   <trkpt lat="-3.1031950" lon="37.3244400">
    <ele>3878.1</ele>
    <time>2026-06-21T09:27:41Z</time>
   </trkpt>
   <trkpt lat="-3.1031760" lon="37.3244530">
    <ele>3878.8</ele>
    <time>2026-06-21T09:27:46Z</time>
   </trkpt>
   <trkpt lat="-3.1031520" lon="37.3244520">
    <ele>3879.6</ele>
    <time>2026-06-21T09:28:01Z</time>
   </trkpt>
   <trkpt lat="-3.1031280" lon="37.3244620">
    <ele>3880.4</ele>
    <time>2026-06-21T09:28:08Z</time>
   </trkpt>
   <trkpt lat="-3.1031090" lon="37.3244780">
    <ele>3881.2</ele>
    <time>2026-06-21T09:28:13Z</time>
   </trkpt>
   <trkpt lat="-3.1030890" lon="37.3244930">
    <ele>3882.0</ele>
    <time>2026-06-21T09:28:17Z</time>
   </trkpt>
   <trkpt lat="-3.1030660" lon="37.3245010">
    <ele>3882.8</ele>
    <time>2026-06-21T09:28:22Z</time>
   </trkpt>
   <trkpt lat="-3.1030420" lon="37.3245000">
    <ele>3883.5</ele>
    <time>2026-06-21T09:28:27Z</time>
   </trkpt>
   <trkpt lat="-3.1030180" lon="37.3244940">
    <ele>3884.3</ele>
    <time>2026-06-21T09:28:46Z</time>
   </trkpt>
   <trkpt lat="-3.1029960" lon="37.3244980">
    <ele>3885.0</ele>
    <time>2026-06-21T09:28:52Z</time>
   </trkpt>
   <trkpt lat="-3.1029820" lon="37.3245170">
    <ele>3885.8</ele>
    <time>2026-06-21T09:28:59Z</time>
   </trkpt>
   <trkpt lat="-3.1029580" lon="37.3245180">
    <ele>3886.6</ele>
    <time>2026-06-21T09:29:18Z</time>
   </trkpt>
   <trkpt lat="-3.1029370" lon="37.3245040">
    <ele>3887.4</ele>
    <time>2026-06-21T09:29:24Z</time>
   </trkpt>
   <trkpt lat="-3.1029130" lon="37.3245100">
    <ele>3888.1</ele>
    <time>2026-06-21T09:29:31Z</time>
   </trkpt>
   <trkpt lat="-3.1029020" lon="37.3245320">
    <ele>3888.9</ele>
    <time>2026-06-21T09:29:38Z</time>
   </trkpt>
   <trkpt lat="-3.1028810" lon="37.3245440">
    <ele>3889.7</ele>
    <time>2026-06-21T09:30:09Z</time>
   </trkpt>
   <trkpt lat="-3.1028590" lon="37.3245380">
    <ele>3890.4</ele>
    <time>2026-06-21T09:30:17Z</time>
   </trkpt>
   <trkpt lat="-3.1028560" lon="37.3245130">
    <ele>3891.3</ele>
    <time>2026-06-21T09:30:24Z</time>
   </trkpt>
   <trkpt lat="-3.1028330" lon="37.3245120">
    <ele>3892.0</ele>
    <time>2026-06-21T09:30:30Z</time>
   </trkpt>
   <trkpt lat="-3.1028140" lon="37.3244970">
    <ele>3892.8</ele>
    <time>2026-06-21T09:30:38Z</time>
   </trkpt>
   <trkpt lat="-3.1027950" lon="37.3245120">
    <ele>3893.6</ele>
    <time>2026-06-21T09:30:46Z</time>
   </trkpt>
   <trkpt lat="-3.1027750" lon="37.3245240">
    <ele>3894.3</ele>
    <time>2026-06-21T09:31:05Z</time>
   </trkpt>
   <trkpt lat="-3.1027600" lon="37.3245070">
    <ele>3895.0</ele>
    <time>2026-06-21T09:31:19Z</time>
   </trkpt>
   <trkpt lat="-3.1027430" lon="37.3245240">
    <ele>3895.8</ele>
    <time>2026-06-21T09:31:24Z</time>
   </trkpt>
   <trkpt lat="-3.1027260" lon="37.3245480">
    <ele>3896.7</ele>
    <time>2026-06-21T09:31:32Z</time>
   </trkpt>
   <trkpt lat="-3.1027070" lon="37.3245600">
    <ele>3897.4</ele>
    <time>2026-06-21T09:31:36Z</time>
   </trkpt>
   <trkpt lat="-3.1026810" lon="37.3245650">
    <ele>3898.2</ele>
    <time>2026-06-21T09:31:41Z</time>
   </trkpt>
   <trkpt lat="-3.1026580" lon="37.3245730">
    <ele>3899.0</ele>
    <time>2026-06-21T09:31:50Z</time>
   </trkpt>
   <trkpt lat="-3.1026320" lon="37.3245600">
    <ele>3900.0</ele>
    <time>2026-06-21T09:32:15Z</time>
   </trkpt>
   <trkpt lat="-3.1026110" lon="37.3245700">
    <ele>3900.8</ele>
    <time>2026-06-21T09:32:20Z</time>
   </trkpt>
   <trkpt lat="-3.1025880" lon="37.3245720">
    <ele>3901.6</ele>
    <time>2026-06-21T09:32:25Z</time>
   </trkpt>
   <trkpt lat="-3.1025660" lon="37.3245680">
    <ele>3902.4</ele>
    <time>2026-06-21T09:32:47Z</time>
   </trkpt>
   <trkpt lat="-3.1025440" lon="37.3245820">
    <ele>3903.3</ele>
    <time>2026-06-21T09:33:03Z</time>
   </trkpt>
   <trkpt lat="-3.1025270" lon="37.3245640">
    <ele>3904.2</ele>
    <time>2026-06-21T09:33:08Z</time>
   </trkpt>
   <trkpt lat="-3.1025140" lon="37.3245830">
    <ele>3905.0</ele>
    <time>2026-06-21T09:33:12Z</time>
   </trkpt>
   <trkpt lat="-3.1024880" lon="37.3245760">
    <ele>3905.9</ele>
    <time>2026-06-21T09:33:18Z</time>
   </trkpt>
   <trkpt lat="-3.1024640" lon="37.3245870">
    <ele>3906.8</ele>
    <time>2026-06-21T09:37:35Z</time>
   </trkpt>
   <trkpt lat="-3.1024420" lon="37.3245770">
    <ele>3907.5</ele>
    <time>2026-06-21T09:38:17Z</time>
   </trkpt>
   <trkpt lat="-3.1024180" lon="37.3245850">
    <ele>3908.3</ele>
    <time>2026-06-21T09:39:22Z</time>
   </trkpt>
   <trkpt lat="-3.1023920" lon="37.3245820">
    <ele>3909.1</ele>
    <time>2026-06-21T09:39:27Z</time>
   </trkpt>
   <trkpt lat="-3.1023610" lon="37.3245880">
    <ele>3910.0</ele>
    <time>2026-06-21T09:39:34Z</time>
   </trkpt>
   <trkpt lat="-3.1023410" lon="37.3245750">
    <ele>3910.8</ele>
    <time>2026-06-21T09:39:41Z</time>
   </trkpt>
   <trkpt lat="-3.1023160" lon="37.3245770">
    <ele>3911.5</ele>
    <time>2026-06-21T09:39:53Z</time>
   </trkpt>
   <trkpt lat="-3.1022910" lon="37.3245680">
    <ele>3912.3</ele>
    <time>2026-06-21T09:40:06Z</time>
   </trkpt>
   <trkpt lat="-3.1022690" lon="37.3245580">
    <ele>3913.1</ele>
    <time>2026-06-21T09:40:13Z</time>
   </trkpt>
   <trkpt lat="-3.1022540" lon="37.3245770">
    <ele>3913.8</ele>
    <time>2026-06-21T09:40:18Z</time>
   </trkpt>
   <trkpt lat="-3.1022360" lon="37.3245910">
    <ele>3914.5</ele>
    <time>2026-06-21T09:40:21Z</time>
   </trkpt>
   <trkpt lat="-3.1022170" lon="37.3246080">
    <ele>3915.3</ele>
    <time>2026-06-21T09:40:26Z</time>
   </trkpt>
   <trkpt lat="-3.1022000" lon="37.3246230">
    <ele>3915.9</ele>
    <time>2026-06-21T09:40:30Z</time>
   </trkpt>
   <trkpt lat="-3.1021800" lon="37.3246390">
    <ele>3916.7</ele>
    <time>2026-06-21T09:40:34Z</time>
   </trkpt>
   <trkpt lat="-3.1021610" lon="37.3246540">
    <ele>3917.4</ele>
    <time>2026-06-21T09:40:38Z</time>
   </trkpt>
   <trkpt lat="-3.1021380" lon="37.3246530">
    <ele>3918.0</ele>
    <time>2026-06-21T09:40:45Z</time>
   </trkpt>
   <trkpt lat="-3.1021140" lon="37.3246540">
    <ele>3918.6</ele>
    <time>2026-06-21T09:40:53Z</time>
   </trkpt>
   <trkpt lat="-3.1020930" lon="37.3246630">
    <ele>3919.2</ele>
    <time>2026-06-21T09:41:01Z</time>
   </trkpt>
   <trkpt lat="-3.1020710" lon="37.3246550">
    <ele>3919.8</ele>
    <time>2026-06-21T09:41:06Z</time>
   </trkpt>
   <trkpt lat="-3.1020470" lon="37.3246510">
    <ele>3920.4</ele>
    <time>2026-06-21T09:41:15Z</time>
   </trkpt>
   <trkpt lat="-3.1020200" lon="37.3246430">
    <ele>3921.1</ele>
    <time>2026-06-21T09:41:29Z</time>
   </trkpt>
   <trkpt lat="-3.1020050" lon="37.3246240">
    <ele>3921.7</ele>
    <time>2026-06-21T09:41:42Z</time>
   </trkpt>
   <trkpt lat="-3.1019800" lon="37.3246130">
    <ele>3922.3</ele>
    <time>2026-06-21T09:41:51Z</time>
   </trkpt>
   <trkpt lat="-3.1019580" lon="37.3246030">
    <ele>3922.9</ele>
    <time>2026-06-21T09:41:59Z</time>
   </trkpt>
   <trkpt lat="-3.1019350" lon="37.3245990">
    <ele>3923.5</ele>
    <time>2026-06-21T09:42:06Z</time>
   </trkpt>
   <trkpt lat="-3.1019170" lon="37.3246160">
    <ele>3924.1</ele>
    <time>2026-06-21T09:42:12Z</time>
   </trkpt>
   <trkpt lat="-3.1018960" lon="37.3246270">
    <ele>3924.7</ele>
    <time>2026-06-21T09:42:19Z</time>
   </trkpt>
   <trkpt lat="-3.1018710" lon="37.3246290">
    <ele>3925.2</ele>
    <time>2026-06-21T09:42:32Z</time>
   </trkpt>
   <trkpt lat="-3.1018520" lon="37.3246420">
    <ele>3925.7</ele>
    <time>2026-06-21T09:42:36Z</time>
   </trkpt>
   <trkpt lat="-3.1018270" lon="37.3246570">
    <ele>3926.3</ele>
    <time>2026-06-21T09:42:43Z</time>
   </trkpt>
   <trkpt lat="-3.1018130" lon="37.3246790">
    <ele>3926.8</ele>
    <time>2026-06-21T09:42:50Z</time>
   </trkpt>
   <trkpt lat="-3.1017940" lon="37.3246910">
    <ele>3927.2</ele>
    <time>2026-06-21T09:42:55Z</time>
   </trkpt>
   <trkpt lat="-3.1017710" lon="37.3246930">
    <ele>3927.5</ele>
    <time>2026-06-21T09:42:59Z</time>
   </trkpt>
   <trkpt lat="-3.1017540" lon="37.3247100">
    <ele>3927.9</ele>
    <time>2026-06-21T09:43:02Z</time>
   </trkpt>
   <trkpt lat="-3.1017240" lon="37.3247270">
    <ele>3928.4</ele>
    <time>2026-06-21T09:43:07Z</time>
   </trkpt>
   <trkpt lat="-3.1017000" lon="37.3247250">
    <ele>3928.7</ele>
    <time>2026-06-21T09:43:17Z</time>
   </trkpt>
   <trkpt lat="-3.1016740" lon="37.3247220">
    <ele>3929.1</ele>
    <time>2026-06-21T09:43:21Z</time>
   </trkpt>
   <trkpt lat="-3.1016530" lon="37.3247330">
    <ele>3929.4</ele>
    <time>2026-06-21T09:43:25Z</time>
   </trkpt>
   <trkpt lat="-3.1016290" lon="37.3247360">
    <ele>3929.7</ele>
    <time>2026-06-21T09:43:30Z</time>
   </trkpt>
   <trkpt lat="-3.1016050" lon="37.3247470">
    <ele>3930.1</ele>
    <time>2026-06-21T09:43:35Z</time>
   </trkpt>
   <trkpt lat="-3.1015880" lon="37.3247620">
    <ele>3930.4</ele>
    <time>2026-06-21T09:43:38Z</time>
   </trkpt>
   <trkpt lat="-3.1015680" lon="37.3247730">
    <ele>3930.7</ele>
    <time>2026-06-21T09:43:43Z</time>
   </trkpt>
   <trkpt lat="-3.1015470" lon="37.3247850">
    <ele>3931.0</ele>
    <time>2026-06-21T09:43:49Z</time>
   </trkpt>
   <trkpt lat="-3.1015250" lon="37.3248020">
    <ele>3931.3</ele>
    <time>2026-06-21T09:43:55Z</time>
   </trkpt>
   <trkpt lat="-3.1014990" lon="37.3248160">
    <ele>3931.7</ele>
    <time>2026-06-21T09:44:00Z</time>
   </trkpt>
   <trkpt lat="-3.1014740" lon="37.3248280">
    <ele>3932.0</ele>
    <time>2026-06-21T09:44:05Z</time>
   </trkpt>
   <trkpt lat="-3.1014530" lon="37.3248440">
    <ele>3932.3</ele>
    <time>2026-06-21T09:44:10Z</time>
   </trkpt>
   <trkpt lat="-3.1014320" lon="37.3248580">
    <ele>3932.5</ele>
    <time>2026-06-21T09:44:17Z</time>
   </trkpt>
   <trkpt lat="-3.1014100" lon="37.3248730">
    <ele>3932.8</ele>
    <time>2026-06-21T09:44:22Z</time>
   </trkpt>
   <trkpt lat="-3.1013950" lon="37.3248930">
    <ele>3933.0</ele>
    <time>2026-06-21T09:44:30Z</time>
   </trkpt>
   <trkpt lat="-3.1013760" lon="37.3249070">
    <ele>3933.1</ele>
    <time>2026-06-21T09:44:37Z</time>
   </trkpt>
   <trkpt lat="-3.1013590" lon="37.3249240">
    <ele>3933.3</ele>
    <time>2026-06-21T09:44:40Z</time>
   </trkpt>
   <trkpt lat="-3.1013410" lon="37.3249430">
    <ele>3933.5</ele>
    <time>2026-06-21T09:44:45Z</time>
   </trkpt>
   <trkpt lat="-3.1013170" lon="37.3249400">
    <ele>3933.6</ele>
    <time>2026-06-21T09:44:51Z</time>
   </trkpt>
   <trkpt lat="-3.1012970" lon="37.3249530">
    <ele>3933.8</ele>
    <time>2026-06-21T09:44:55Z</time>
   </trkpt>
   <trkpt lat="-3.1012740" lon="37.3249480">
    <ele>3933.9</ele>
    <time>2026-06-21T09:45:00Z</time>
   </trkpt>
   <trkpt lat="-3.1012520" lon="37.3249630">
    <ele>3934.1</ele>
    <time>2026-06-21T09:45:04Z</time>
   </trkpt>
   <trkpt lat="-3.1012280" lon="37.3249650">
    <ele>3934.2</ele>
    <time>2026-06-21T09:45:08Z</time>
   </trkpt>
   <trkpt lat="-3.1012050" lon="37.3249790">
    <ele>3934.3</ele>
    <time>2026-06-21T09:45:14Z</time>
   </trkpt>
   <trkpt lat="-3.1011850" lon="37.3249940">
    <ele>3934.5</ele>
    <time>2026-06-21T09:45:18Z</time>
   </trkpt>
   <trkpt lat="-3.1011680" lon="37.3250110">
    <ele>3934.6</ele>
    <time>2026-06-21T09:45:23Z</time>
   </trkpt>
   <trkpt lat="-3.1011500" lon="37.3250250">
    <ele>3934.7</ele>
    <time>2026-06-21T09:45:27Z</time>
   </trkpt>
   <trkpt lat="-3.1011230" lon="37.3250270">
    <ele>3934.8</ele>
    <time>2026-06-21T09:45:31Z</time>
   </trkpt>
   <trkpt lat="-3.1010960" lon="37.3250350">
    <ele>3935.0</ele>
    <time>2026-06-21T09:45:36Z</time>
   </trkpt>
   <trkpt lat="-3.1010720" lon="37.3250420">
    <ele>3935.1</ele>
    <time>2026-06-21T09:45:39Z</time>
   </trkpt>
   <trkpt lat="-3.1010490" lon="37.3250570">
    <ele>3935.2</ele>
    <time>2026-06-21T09:45:43Z</time>
   </trkpt>
   <trkpt lat="-3.1010220" lon="37.3250630">
    <ele>3935.3</ele>
    <time>2026-06-21T09:45:47Z</time>
   </trkpt>
   <trkpt lat="-3.1009990" lon="37.3250770">
    <ele>3935.4</ele>
    <time>2026-06-21T09:45:51Z</time>
   </trkpt>
   <trkpt lat="-3.1009760" lon="37.3250890">
    <ele>3935.6</ele>
    <time>2026-06-21T09:45:57Z</time>
   </trkpt>
   <trkpt lat="-3.1009530" lon="37.3250970">
    <ele>3935.7</ele>
    <time>2026-06-21T09:46:01Z</time>
   </trkpt>
   <trkpt lat="-3.1009280" lon="37.3251200">
    <ele>3936.0</ele>
    <time>2026-06-21T09:46:05Z</time>
   </trkpt>
   <trkpt lat="-3.1009040" lon="37.3251300">
    <ele>3936.1</ele>
    <time>2026-06-21T09:46:09Z</time>
   </trkpt>
   <trkpt lat="-3.1008820" lon="37.3251390">
    <ele>3936.3</ele>
    <time>2026-06-21T09:46:12Z</time>
   </trkpt>
   <trkpt lat="-3.1008580" lon="37.3251500">
    <ele>3936.4</ele>
    <time>2026-06-21T09:46:16Z</time>
   </trkpt>
   <trkpt lat="-3.1008410" lon="37.3251650">
    <ele>3936.6</ele>
    <time>2026-06-21T09:46:23Z</time>
   </trkpt>
   <trkpt lat="-3.1008170" lon="37.3251730">
    <ele>3936.7</ele>
    <time>2026-06-21T09:46:26Z</time>
   </trkpt>
   <trkpt lat="-3.1007910" lon="37.3251830">
    <ele>3936.9</ele>
    <time>2026-06-21T09:46:29Z</time>
   </trkpt>
   <trkpt lat="-3.1007690" lon="37.3251870">
    <ele>3937.0</ele>
    <time>2026-06-21T09:46:32Z</time>
   </trkpt>
   <trkpt lat="-3.1007460" lon="37.3251910">
    <ele>3937.1</ele>
    <time>2026-06-21T09:46:36Z</time>
   </trkpt>
   <trkpt lat="-3.1007200" lon="37.3252010">
    <ele>3937.3</ele>
    <time>2026-06-21T09:46:40Z</time>
   </trkpt>
   <trkpt lat="-3.1007010" lon="37.3252130">
    <ele>3937.4</ele>
    <time>2026-06-21T09:46:44Z</time>
   </trkpt>
   <trkpt lat="-3.1006740" lon="37.3252280">
    <ele>3937.6</ele>
    <time>2026-06-21T09:46:48Z</time>
   </trkpt>
   <trkpt lat="-3.1006490" lon="37.3252410">
    <ele>3937.8</ele>
    <time>2026-06-21T09:46:51Z</time>
   </trkpt>
   <trkpt lat="-3.1006160" lon="37.3252600">
    <ele>3938.0</ele>
    <time>2026-06-21T09:46:58Z</time>
   </trkpt>
   <trkpt lat="-3.1005930" lon="37.3252610">
    <ele>3938.2</ele>
    <time>2026-06-21T09:47:01Z</time>
   </trkpt>
   <trkpt lat="-3.1005730" lon="37.3252770">
    <ele>3938.4</ele>
    <time>2026-06-21T09:47:04Z</time>
   </trkpt>
   <trkpt lat="-3.1005490" lon="37.3252910">
    <ele>3938.6</ele>
    <time>2026-06-21T09:47:07Z</time>
   </trkpt>
   <trkpt lat="-3.1005270" lon="37.3253030">
    <ele>3938.8</ele>
    <time>2026-06-21T09:47:13Z</time>
   </trkpt>
   <trkpt lat="-3.1005040" lon="37.3253040">
    <ele>3938.9</ele>
    <time>2026-06-21T09:47:17Z</time>
   </trkpt>
   <trkpt lat="-3.1004810" lon="37.3253110">
    <ele>3939.1</ele>
    <time>2026-06-21T09:47:22Z</time>
   </trkpt>
   <trkpt lat="-3.1004550" lon="37.3253100">
    <ele>3939.4</ele>
    <time>2026-06-21T09:47:27Z</time>
   </trkpt>
   <trkpt lat="-3.1004300" lon="37.3253170">
    <ele>3939.6</ele>
    <time>2026-06-21T09:47:36Z</time>
   </trkpt>
   <trkpt lat="-3.1004000" lon="37.3253250">
    <ele>3939.9</ele>
    <time>2026-06-21T09:47:51Z</time>
   </trkpt>
   <trkpt lat="-3.1003750" lon="37.3253480">
    <ele>3940.3</ele>
    <time>2026-06-21T09:47:54Z</time>
   </trkpt>
   <trkpt lat="-3.1003540" lon="37.3253650">
    <ele>3940.6</ele>
    <time>2026-06-21T09:47:57Z</time>
   </trkpt>
   <trkpt lat="-3.1003310" lon="37.3253760">
    <ele>3940.9</ele>
    <time>2026-06-21T09:47:59Z</time>
   </trkpt>
   <trkpt lat="-3.1003150" lon="37.3253950">
    <ele>3941.2</ele>
    <time>2026-06-21T09:48:02Z</time>
   </trkpt>
   <trkpt lat="-3.1002940" lon="37.3254040">
    <ele>3941.4</ele>
    <time>2026-06-21T09:48:05Z</time>
   </trkpt>
   <trkpt lat="-3.1002700" lon="37.3254150">
    <ele>3941.7</ele>
    <time>2026-06-21T09:48:09Z</time>
   </trkpt>
   <trkpt lat="-3.1002480" lon="37.3254270">
    <ele>3942.0</ele>
    <time>2026-06-21T09:48:13Z</time>
   </trkpt>
   <trkpt lat="-3.1002220" lon="37.3254450">
    <ele>3942.3</ele>
    <time>2026-06-21T09:48:17Z</time>
   </trkpt>
   <trkpt lat="-3.1001970" lon="37.3254530">
    <ele>3942.6</ele>
    <time>2026-06-21T09:48:21Z</time>
   </trkpt>
   <trkpt lat="-3.1001730" lon="37.3254570">
    <ele>3942.9</ele>
    <time>2026-06-21T09:48:25Z</time>
   </trkpt>
   <trkpt lat="-3.1001490" lon="37.3254650">
    <ele>3943.2</ele>
    <time>2026-06-21T09:48:30Z</time>
   </trkpt>
   <trkpt lat="-3.1001280" lon="37.3254740">
    <ele>3943.5</ele>
    <time>2026-06-21T09:48:36Z</time>
   </trkpt>
   <trkpt lat="-3.1000930" lon="37.3254710">
    <ele>3943.9</ele>
    <time>2026-06-21T09:48:43Z</time>
   </trkpt>
   <trkpt lat="-3.1000710" lon="37.3254790">
    <ele>3944.3</ele>
    <time>2026-06-21T09:48:49Z</time>
   </trkpt>
   <trkpt lat="-3.1000440" lon="37.3254820">
    <ele>3944.7</ele>
    <time>2026-06-21T09:48:55Z</time>
   </trkpt>
   <trkpt lat="-3.1000270" lon="37.3255010">
    <ele>3945.0</ele>
    <time>2026-06-21T09:49:01Z</time>
   </trkpt>
   <trkpt lat="-3.0999980" lon="37.3255090">
    <ele>3945.5</ele>
    <time>2026-06-21T09:49:05Z</time>
   </trkpt>
   <trkpt lat="-3.0999730" lon="37.3255090">
    <ele>3945.8</ele>
    <time>2026-06-21T09:49:09Z</time>
   </trkpt>
   <trkpt lat="-3.0999430" lon="37.3255170">
    <ele>3946.2</ele>
    <time>2026-06-21T09:49:14Z</time>
   </trkpt>
   <trkpt lat="-3.0999180" lon="37.3255230">
    <ele>3946.6</ele>
    <time>2026-06-21T09:49:18Z</time>
   </trkpt>
   <trkpt lat="-3.0998930" lon="37.3255290">
    <ele>3946.9</ele>
    <time>2026-06-21T09:49:21Z</time>
   </trkpt>
   <trkpt lat="-3.0998680" lon="37.3255210">
    <ele>3947.2</ele>
    <time>2026-06-21T09:49:25Z</time>
   </trkpt>
   <trkpt lat="-3.0998430" lon="37.3255140">
    <ele>3947.4</ele>
    <time>2026-06-21T09:49:29Z</time>
   </trkpt>
   <trkpt lat="-3.0998130" lon="37.3255050">
    <ele>3947.8</ele>
    <time>2026-06-21T09:49:53Z</time>
   </trkpt>
   <trkpt lat="-3.0997830" lon="37.3255070">
    <ele>3948.1</ele>
    <time>2026-06-21T09:49:56Z</time>
   </trkpt>
   <trkpt lat="-3.0997560" lon="37.3255150">
    <ele>3948.3</ele>
    <time>2026-06-21T09:49:59Z</time>
   </trkpt>
   <trkpt lat="-3.0997300" lon="37.3255160">
    <ele>3948.6</ele>
    <time>2026-06-21T09:50:02Z</time>
   </trkpt>
   <trkpt lat="-3.0997070" lon="37.3255240">
    <ele>3948.8</ele>
    <time>2026-06-21T09:50:05Z</time>
   </trkpt>
   <trkpt lat="-3.0996770" lon="37.3255290">
    <ele>3949.0</ele>
    <time>2026-06-21T09:50:08Z</time>
   </trkpt>
   <trkpt lat="-3.0996510" lon="37.3255250">
    <ele>3949.2</ele>
    <time>2026-06-21T09:50:12Z</time>
   </trkpt>
   <trkpt lat="-3.0996200" lon="37.3255200">
    <ele>3949.4</ele>
    <time>2026-06-21T09:50:16Z</time>
   </trkpt>
   <trkpt lat="-3.0995960" lon="37.3255280">
    <ele>3949.5</ele>
    <time>2026-06-21T09:50:19Z</time>
   </trkpt>
   <trkpt lat="-3.0995720" lon="37.3255280">
    <ele>3949.6</ele>
    <time>2026-06-21T09:50:23Z</time>
   </trkpt>
   <trkpt lat="-3.0995480" lon="37.3255210">
    <ele>3949.8</ele>
    <time>2026-06-21T09:50:26Z</time>
   </trkpt>
   <trkpt lat="-3.0995220" lon="37.3255140">
    <ele>3950.0</ele>
    <time>2026-06-21T09:50:32Z</time>
   </trkpt>
   <trkpt lat="-3.0994980" lon="37.3255110">
    <ele>3950.2</ele>
    <time>2026-06-21T09:50:36Z</time>
   </trkpt>
   <trkpt lat="-3.0994750" lon="37.3255000">
    <ele>3950.4</ele>
    <time>2026-06-21T09:50:40Z</time>
   </trkpt>
   <trkpt lat="-3.0994500" lon="37.3254950">
    <ele>3950.6</ele>
    <time>2026-06-21T09:50:43Z</time>
   </trkpt>
   <trkpt lat="-3.0994260" lon="37.3255020">
    <ele>3950.8</ele>
    <time>2026-06-21T09:50:46Z</time>
   </trkpt>
   <trkpt lat="-3.0994030" lon="37.3255010">
    <ele>3951.0</ele>
    <time>2026-06-21T09:50:49Z</time>
   </trkpt>
   <trkpt lat="-3.0993810" lon="37.3255000">
    <ele>3951.3</ele>
    <time>2026-06-21T09:50:53Z</time>
   </trkpt>
   <trkpt lat="-3.0993530" lon="37.3255020">
    <ele>3951.6</ele>
    <time>2026-06-21T09:50:58Z</time>
   </trkpt>
   <trkpt lat="-3.0993280" lon="37.3255070">
    <ele>3951.9</ele>
    <time>2026-06-21T09:51:03Z</time>
   </trkpt>
   <trkpt lat="-3.0993010" lon="37.3254930">
    <ele>3952.3</ele>
    <time>2026-06-21T09:51:07Z</time>
   </trkpt>
   <trkpt lat="-3.0992770" lon="37.3254930">
    <ele>3952.7</ele>
    <time>2026-06-21T09:51:12Z</time>
   </trkpt>
   <trkpt lat="-3.0992510" lon="37.3254890">
    <ele>3953.1</ele>
    <time>2026-06-21T09:51:18Z</time>
   </trkpt>
   <trkpt lat="-3.0992300" lon="37.3254790">
    <ele>3953.4</ele>
    <time>2026-06-21T09:51:24Z</time>
   </trkpt>
   <trkpt lat="-3.0992040" lon="37.3254740">
    <ele>3953.8</ele>
    <time>2026-06-21T09:51:29Z</time>
   </trkpt>
   <trkpt lat="-3.0991840" lon="37.3254860">
    <ele>3954.1</ele>
    <time>2026-06-21T09:51:32Z</time>
   </trkpt>
   <trkpt lat="-3.0991540" lon="37.3254930">
    <ele>3954.5</ele>
    <time>2026-06-21T09:51:37Z</time>
   </trkpt>
   <trkpt lat="-3.0991290" lon="37.3254990">
    <ele>3954.8</ele>
    <time>2026-06-21T09:51:41Z</time>
   </trkpt>
   <trkpt lat="-3.0991060" lon="37.3254920">
    <ele>3955.1</ele>
    <time>2026-06-21T09:51:46Z</time>
   </trkpt>
   <trkpt lat="-3.0990860" lon="37.3255010">
    <ele>3955.3</ele>
    <time>2026-06-21T09:51:50Z</time>
   </trkpt>
   <trkpt lat="-3.0990730" lon="37.3255200">
    <ele>3955.5</ele>
    <time>2026-06-21T09:51:54Z</time>
   </trkpt>
   <trkpt lat="-3.0990480" lon="37.3255150">
    <ele>3955.7</ele>
    <time>2026-06-21T09:51:57Z</time>
   </trkpt>
   <trkpt lat="-3.0990280" lon="37.3255310">
    <ele>3955.8</ele>
    <time>2026-06-21T09:52:00Z</time>
   </trkpt>
   <trkpt lat="-3.0990050" lon="37.3255370">
    <ele>3955.9</ele>
    <time>2026-06-21T09:52:04Z</time>
   </trkpt>
   <trkpt lat="-3.0989750" lon="37.3255450">
    <ele>3956.1</ele>
    <time>2026-06-21T09:52:08Z</time>
   </trkpt>
   <trkpt lat="-3.0989520" lon="37.3255490">
    <ele>3956.2</ele>
    <time>2026-06-21T09:52:13Z</time>
   </trkpt>
   <trkpt lat="-3.0989290" lon="37.3255500">
    <ele>3956.3</ele>
    <time>2026-06-21T09:52:17Z</time>
   </trkpt>
   <trkpt lat="-3.0989080" lon="37.3255700">
    <ele>3956.3</ele>
    <time>2026-06-21T09:52:23Z</time>
   </trkpt>
   <trkpt lat="-3.0988870" lon="37.3255800">
    <ele>3956.4</ele>
    <time>2026-06-21T09:52:27Z</time>
   </trkpt>
   <trkpt lat="-3.0988640" lon="37.3255900">
    <ele>3956.4</ele>
    <time>2026-06-21T09:52:31Z</time>
   </trkpt>
   <trkpt lat="-3.0988410" lon="37.3255980">
    <ele>3956.4</ele>
    <time>2026-06-21T09:52:34Z</time>
   </trkpt>
   <trkpt lat="-3.0988160" lon="37.3256140">
    <ele>3956.4</ele>
    <time>2026-06-21T09:52:38Z</time>
   </trkpt>
   <trkpt lat="-3.0987920" lon="37.3256240">
    <ele>3956.4</ele>
    <time>2026-06-21T09:52:41Z</time>
   </trkpt>
   <trkpt lat="-3.0987670" lon="37.3256300">
    <ele>3956.4</ele>
    <time>2026-06-21T09:52:45Z</time>
   </trkpt>
   <trkpt lat="-3.0987420" lon="37.3256390">
    <ele>3956.4</ele>
    <time>2026-06-21T09:52:49Z</time>
   </trkpt>
   <trkpt lat="-3.0987190" lon="37.3256370">
    <ele>3956.4</ele>
    <time>2026-06-21T09:52:54Z</time>
   </trkpt>
   <trkpt lat="-3.0987060" lon="37.3256550">
    <ele>3956.5</ele>
    <time>2026-06-21T09:52:57Z</time>
   </trkpt>
   <trkpt lat="-3.0986840" lon="37.3256730">
    <ele>3956.5</ele>
    <time>2026-06-21T09:53:00Z</time>
   </trkpt>
   <trkpt lat="-3.0986630" lon="37.3256910">
    <ele>3956.5</ele>
    <time>2026-06-21T09:53:04Z</time>
   </trkpt>
   <trkpt lat="-3.0986360" lon="37.3256920">
    <ele>3956.5</ele>
    <time>2026-06-21T09:53:08Z</time>
   </trkpt>
   <trkpt lat="-3.0986110" lon="37.3256950">
    <ele>3956.5</ele>
    <time>2026-06-21T09:53:11Z</time>
   </trkpt>
   <trkpt lat="-3.0985860" lon="37.3257100">
    <ele>3956.5</ele>
    <time>2026-06-21T09:53:15Z</time>
   </trkpt>
   <trkpt lat="-3.0985650" lon="37.3257190">
    <ele>3956.5</ele>
    <time>2026-06-21T09:53:20Z</time>
   </trkpt>
   <trkpt lat="-3.0985410" lon="37.3257270">
    <ele>3956.5</ele>
    <time>2026-06-21T09:53:24Z</time>
   </trkpt>
   <trkpt lat="-3.0985160" lon="37.3257360">
    <ele>3956.5</ele>
    <time>2026-06-21T09:53:29Z</time>
   </trkpt>
   <trkpt lat="-3.0985000" lon="37.3257560">
    <ele>3956.5</ele>
    <time>2026-06-21T09:53:33Z</time>
   </trkpt>
   <trkpt lat="-3.0984740" lon="37.3257660">
    <ele>3956.5</ele>
    <time>2026-06-21T09:53:37Z</time>
   </trkpt>
   <trkpt lat="-3.0984500" lon="37.3257810">
    <ele>3956.5</ele>
    <time>2026-06-21T09:53:41Z</time>
   </trkpt>
   <trkpt lat="-3.0984300" lon="37.3257940">
    <ele>3956.4</ele>
    <time>2026-06-21T09:53:46Z</time>
   </trkpt>
   <trkpt lat="-3.0984130" lon="37.3258150">
    <ele>3956.3</ele>
    <time>2026-06-21T09:53:50Z</time>
   </trkpt>
   <trkpt lat="-3.0983980" lon="37.3258330">
    <ele>3956.2</ele>
    <time>2026-06-21T09:53:53Z</time>
   </trkpt>
   <trkpt lat="-3.0983730" lon="37.3258470">
    <ele>3956.1</ele>
    <time>2026-06-21T09:53:57Z</time>
   </trkpt>
   <trkpt lat="-3.0983490" lon="37.3258560">
    <ele>3956.0</ele>
    <time>2026-06-21T09:54:00Z</time>
   </trkpt>
   <trkpt lat="-3.0983240" lon="37.3258760">
    <ele>3955.8</ele>
    <time>2026-06-21T09:54:05Z</time>
   </trkpt>
   <trkpt lat="-3.0983040" lon="37.3258880">
    <ele>3955.7</ele>
    <time>2026-06-21T09:54:07Z</time>
   </trkpt>
   <trkpt lat="-3.0982900" lon="37.3259120">
    <ele>3955.5</ele>
    <time>2026-06-21T09:54:12Z</time>
   </trkpt>
   <trkpt lat="-3.0982620" lon="37.3259260">
    <ele>3955.4</ele>
    <time>2026-06-21T09:54:15Z</time>
   </trkpt>
   <trkpt lat="-3.0982370" lon="37.3259490">
    <ele>3955.2</ele>
    <time>2026-06-21T09:54:19Z</time>
   </trkpt>
   <trkpt lat="-3.0982190" lon="37.3259660">
    <ele>3955.1</ele>
    <time>2026-06-21T09:54:22Z</time>
   </trkpt>
   <trkpt lat="-3.0981990" lon="37.3259830">
    <ele>3955.0</ele>
    <time>2026-06-21T09:54:25Z</time>
   </trkpt>
   <trkpt lat="-3.0981800" lon="37.3259970">
    <ele>3955.0</ele>
    <time>2026-06-21T09:54:29Z</time>
   </trkpt>
   <trkpt lat="-3.0981510" lon="37.3260160">
    <ele>3955.0</ele>
    <time>2026-06-21T09:54:32Z</time>
   </trkpt>
   <trkpt lat="-3.0981320" lon="37.3260300">
    <ele>3955.1</ele>
    <time>2026-06-21T09:54:34Z</time>
   </trkpt>
   <trkpt lat="-3.0981160" lon="37.3260510">
    <ele>3955.1</ele>
    <time>2026-06-21T09:54:37Z</time>
   </trkpt>
   <trkpt lat="-3.0980980" lon="37.3260680">
    <ele>3955.3</ele>
    <time>2026-06-21T09:54:40Z</time>
   </trkpt>
   <trkpt lat="-3.0980740" lon="37.3260650">
    <ele>3955.4</ele>
    <time>2026-06-21T09:54:49Z</time>
   </trkpt>
   <trkpt lat="-3.0980490" lon="37.3260720">
    <ele>3955.6</ele>
    <time>2026-06-21T09:54:55Z</time>
   </trkpt>
   <trkpt lat="-3.0980270" lon="37.3260910">
    <ele>3955.8</ele>
    <time>2026-06-21T09:54:59Z</time>
   </trkpt>
   <trkpt lat="-3.0980030" lon="37.3261050">
    <ele>3956.0</ele>
    <time>2026-06-21T09:55:02Z</time>
   </trkpt>
   <trkpt lat="-3.0979800" lon="37.3261150">
    <ele>3956.2</ele>
    <time>2026-06-21T09:55:05Z</time>
   </trkpt>
   <trkpt lat="-3.0979620" lon="37.3261310">
    <ele>3956.3</ele>
    <time>2026-06-21T09:55:08Z</time>
   </trkpt>
   <trkpt lat="-3.0979470" lon="37.3261650">
    <ele>3956.5</ele>
    <time>2026-06-21T09:55:12Z</time>
   </trkpt>
   <trkpt lat="-3.0979320" lon="37.3261820">
    <ele>3956.5</ele>
    <time>2026-06-21T09:55:16Z</time>
   </trkpt>
   <trkpt lat="-3.0979130" lon="37.3262040">
    <ele>3956.6</ele>
    <time>2026-06-21T09:55:19Z</time>
   </trkpt>
   <trkpt lat="-3.0978930" lon="37.3262250">
    <ele>3956.7</ele>
    <time>2026-06-21T09:55:22Z</time>
   </trkpt>
   <trkpt lat="-3.0978710" lon="37.3262390">
    <ele>3956.7</ele>
    <time>2026-06-21T09:55:25Z</time>
   </trkpt>
   <trkpt lat="-3.0978550" lon="37.3262600">
    <ele>3956.7</ele>
    <time>2026-06-21T09:55:28Z</time>
   </trkpt>
   <trkpt lat="-3.0978400" lon="37.3262810">
    <ele>3956.8</ele>
    <time>2026-06-21T09:55:31Z</time>
   </trkpt>
   <trkpt lat="-3.0978280" lon="37.3263050">
    <ele>3956.8</ele>
    <time>2026-06-21T09:55:34Z</time>
   </trkpt>
   <trkpt lat="-3.0978130" lon="37.3263260">
    <ele>3956.8</ele>
    <time>2026-06-21T09:55:37Z</time>
   </trkpt>
   <trkpt lat="-3.0977980" lon="37.3263450">
    <ele>3956.9</ele>
    <time>2026-06-21T09:55:40Z</time>
   </trkpt>
   <trkpt lat="-3.0977790" lon="37.3263600">
    <ele>3956.9</ele>
    <time>2026-06-21T09:55:43Z</time>
   </trkpt>
   <trkpt lat="-3.0977560" lon="37.3263780">
    <ele>3957.0</ele>
    <time>2026-06-21T09:55:50Z</time>
   </trkpt>
   <trkpt lat="-3.0977380" lon="37.3263910">
    <ele>3957.1</ele>
    <time>2026-06-21T09:55:53Z</time>
   </trkpt>
   <trkpt lat="-3.0977170" lon="37.3264070">
    <ele>3957.2</ele>
    <time>2026-06-21T09:55:58Z</time>
   </trkpt>
   <trkpt lat="-3.0977010" lon="37.3264240">
    <ele>3957.3</ele>
    <time>2026-06-21T09:56:02Z</time>
   </trkpt>
   <trkpt lat="-3.0976810" lon="37.3264390">
    <ele>3957.5</ele>
    <time>2026-06-21T09:56:26Z</time>
   </trkpt>
   <trkpt lat="-3.0976680" lon="37.3264600">
    <ele>3957.6</ele>
    <time>2026-06-21T09:56:31Z</time>
   </trkpt>
   <trkpt lat="-3.0976530" lon="37.3264800">
    <ele>3957.8</ele>
    <time>2026-06-21T09:56:35Z</time>
   </trkpt>
   <trkpt lat="-3.0976400" lon="37.3265030">
    <ele>3958.0</ele>
    <time>2026-06-21T09:56:38Z</time>
   </trkpt>
   <trkpt lat="-3.0976200" lon="37.3265190">
    <ele>3958.1</ele>
    <time>2026-06-21T09:56:42Z</time>
   </trkpt>
   <trkpt lat="-3.0976020" lon="37.3265340">
    <ele>3958.3</ele>
    <time>2026-06-21T09:56:46Z</time>
   </trkpt>
   <trkpt lat="-3.0975850" lon="37.3265530">
    <ele>3958.5</ele>
    <time>2026-06-21T09:56:49Z</time>
   </trkpt>
   <trkpt lat="-3.0975710" lon="37.3265790">
    <ele>3958.6</ele>
    <time>2026-06-21T09:56:53Z</time>
   </trkpt>
   <trkpt lat="-3.0975590" lon="37.3266010">
    <ele>3958.7</ele>
    <time>2026-06-21T09:56:56Z</time>
   </trkpt>
   <trkpt lat="-3.0975430" lon="37.3266190">
    <ele>3958.8</ele>
    <time>2026-06-21T09:56:59Z</time>
   </trkpt>
   <trkpt lat="-3.0975240" lon="37.3266360">
    <ele>3958.9</ele>
    <time>2026-06-21T09:57:02Z</time>
   </trkpt>
   <trkpt lat="-3.0975020" lon="37.3266510">
    <ele>3959.0</ele>
    <time>2026-06-21T09:57:07Z</time>
   </trkpt>
   <trkpt lat="-3.0974800" lon="37.3266630">
    <ele>3959.0</ele>
    <time>2026-06-21T09:57:13Z</time>
   </trkpt>
   <trkpt lat="-3.0974680" lon="37.3266840">
    <ele>3958.5</ele>
    <time>2026-06-21T09:57:21Z</time>
   </trkpt>
   <trkpt lat="-3.0974680" lon="37.3267080">
    <ele>3958.1</ele>
    <time>2026-06-21T09:57:26Z</time>
   </trkpt>
   <trkpt lat="-3.0974440" lon="37.3267150">
    <ele>3957.5</ele>
    <time>2026-06-21T09:57:30Z</time>
   </trkpt>
   <trkpt lat="-3.0974380" lon="37.3267370">
    <ele>3956.9</ele>
    <time>2026-06-21T09:57:38Z</time>
   </trkpt>
   <trkpt lat="-3.0974190" lon="37.3267540">
    <ele>3956.2</ele>
    <time>2026-06-21T09:57:43Z</time>
   </trkpt>
   <trkpt lat="-3.0974200" lon="37.3267770">
    <ele>3955.6</ele>
    <time>2026-06-21T09:57:55Z</time>
   </trkpt>
   <trkpt lat="-3.0973940" lon="37.3267780">
    <ele>3954.7</ele>
    <time>2026-06-21T09:58:04Z</time>
   </trkpt>
   <trkpt lat="-3.0973900" lon="37.3268040">
    <ele>3953.9</ele>
    <time>2026-06-21T09:58:19Z</time>
   </trkpt>
   <trkpt lat="-3.0973670" lon="37.3268180">
    <ele>3953.1</ele>
    <time>2026-06-21T09:58:28Z</time>
   </trkpt>
   <trkpt lat="-3.0973410" lon="37.3268350">
    <ele>3952.1</ele>
    <time>2026-06-21T09:58:33Z</time>
   </trkpt>
   <trkpt lat="-3.0973190" lon="37.3268390">
    <ele>3951.5</ele>
    <time>2026-06-21T09:58:38Z</time>
   </trkpt>
   <trkpt lat="-3.0972950" lon="37.3268270">
    <ele>3950.7</ele>
    <time>2026-06-21T09:58:43Z</time>
   </trkpt>
   <trkpt lat="-3.0972720" lon="37.3268350">
    <ele>3950.0</ele>
    <time>2026-06-21T09:58:49Z</time>
   </trkpt>
   <trkpt lat="-3.0972650" lon="37.3268570">
    <ele>3949.3</ele>
    <time>2026-06-21T09:58:53Z</time>
   </trkpt>
   <trkpt lat="-3.0972430" lon="37.3268650">
    <ele>3948.7</ele>
    <time>2026-06-21T09:58:59Z</time>
   </trkpt>
   <trkpt lat="-3.0972210" lon="37.3268770">
    <ele>3948.0</ele>
    <time>2026-06-21T09:59:07Z</time>
   </trkpt>
   <trkpt lat="-3.0972120" lon="37.3269050">
    <ele>3947.3</ele>
    <time>2026-06-21T09:59:15Z</time>
   </trkpt>
   <trkpt lat="-3.0971920" lon="37.3269260">
    <ele>3946.7</ele>
    <time>2026-06-21T09:59:17Z</time>
   </trkpt>
   <trkpt lat="-3.0971850" lon="37.3269550">
    <ele>3946.1</ele>
    <time>2026-06-21T09:59:19Z</time>
   </trkpt>
   <trkpt lat="-3.0971630" lon="37.3269760">
    <ele>3945.5</ele>
    <time>2026-06-21T09:59:22Z</time>
   </trkpt>
   <trkpt lat="-3.0971430" lon="37.3269910">
    <ele>3945.1</ele>
    <time>2026-06-21T09:59:24Z</time>
   </trkpt>
   <trkpt lat="-3.0971220" lon="37.3270080">
    <ele>3944.6</ele>
    <time>2026-06-21T09:59:28Z</time>
   </trkpt>
   <trkpt lat="-3.0971020" lon="37.3270250">
    <ele>3944.1</ele>
    <time>2026-06-21T10:00:25Z</time>
   </trkpt>
   <trkpt lat="-3.0970810" lon="37.3270430">
    <ele>3943.5</ele>
    <time>2026-06-21T10:00:45Z</time>
   </trkpt>
   <trkpt lat="-3.0970570" lon="37.3270580">
    <ele>3942.9</ele>
    <time>2026-06-21T10:01:15Z</time>
   </trkpt>
   <trkpt lat="-3.0970390" lon="37.3270760">
    <ele>3942.3</ele>
    <time>2026-06-21T10:01:50Z</time>
   </trkpt>
   <trkpt lat="-3.0970350" lon="37.3271010">
    <ele>3941.7</ele>
    <time>2026-06-21T10:01:57Z</time>
   </trkpt>
   <trkpt lat="-3.0970230" lon="37.3270810">
    <ele>3941.2</ele>
    <time>2026-06-21T10:02:03Z</time>
   </trkpt>
   <trkpt lat="-3.0970020" lon="37.3271240">
    <ele>3940.5</ele>
    <time>2026-06-21T10:02:23Z</time>
   </trkpt>
   <trkpt lat="-3.0969910" lon="37.3271500">
    <ele>3940.3</ele>
    <time>2026-06-21T10:02:28Z</time>
   </trkpt>
   <trkpt lat="-3.0969900" lon="37.3271740">
    <ele>3940.3</ele>
    <time>2026-06-21T10:02:33Z</time>
   </trkpt>
   <trkpt lat="-3.0969950" lon="37.3271980">
    <ele>3940.4</ele>
    <time>2026-06-21T10:02:38Z</time>
   </trkpt>
   <trkpt lat="-3.0969820" lon="37.3272190">
    <ele>3940.6</ele>
    <time>2026-06-21T10:02:46Z</time>
   </trkpt>
   <trkpt lat="-3.0969640" lon="37.3272360">
    <ele>3941.0</ele>
    <time>2026-06-21T10:03:02Z</time>
   </trkpt>
   <trkpt lat="-3.0969710" lon="37.3272580">
    <ele>3941.4</ele>
    <time>2026-06-21T10:03:10Z</time>
   </trkpt>
   <trkpt lat="-3.0969620" lon="37.3272880">
    <ele>3942.1</ele>
    <time>2026-06-21T10:03:17Z</time>
   </trkpt>
   <trkpt lat="-3.0969600" lon="37.3273120">
    <ele>3942.6</ele>
    <time>2026-06-21T10:03:24Z</time>
   </trkpt>
   <trkpt lat="-3.0969460" lon="37.3273400">
    <ele>3943.3</ele>
    <time>2026-06-21T10:03:35Z</time>
   </trkpt>
   <trkpt lat="-3.0969480" lon="37.3273660">
    <ele>3943.9</ele>
    <time>2026-06-21T10:03:39Z</time>
   </trkpt>
   <trkpt lat="-3.0969480" lon="37.3273910">
    <ele>3944.5</ele>
    <time>2026-06-21T10:03:43Z</time>
   </trkpt>
   <trkpt lat="-3.0969260" lon="37.3274100">
    <ele>3945.1</ele>
    <time>2026-06-21T10:03:48Z</time>
   </trkpt>
   <trkpt lat="-3.0969090" lon="37.3274270">
    <ele>3945.5</ele>
    <time>2026-06-21T10:03:54Z</time>
   </trkpt>
   <trkpt lat="-3.0968910" lon="37.3274420">
    <ele>3946.0</ele>
    <time>2026-06-21T10:03:58Z</time>
   </trkpt>
   <trkpt lat="-3.0968670" lon="37.3274340">
    <ele>3946.4</ele>
    <time>2026-06-21T10:04:05Z</time>
   </trkpt>
   <trkpt lat="-3.0968400" lon="37.3274290">
    <ele>3946.9</ele>
    <time>2026-06-21T10:04:12Z</time>
   </trkpt>
   <trkpt lat="-3.0968180" lon="37.3274400">
    <ele>3947.3</ele>
    <time>2026-06-21T10:04:18Z</time>
   </trkpt>
   <trkpt lat="-3.0967930" lon="37.3274410">
    <ele>3947.7</ele>
    <time>2026-06-21T10:04:23Z</time>
   </trkpt>
   <trkpt lat="-3.0967710" lon="37.3274310">
    <ele>3948.1</ele>
    <time>2026-06-21T10:04:28Z</time>
   </trkpt>
   <trkpt lat="-3.0967450" lon="37.3274370">
    <ele>3948.5</ele>
    <time>2026-06-21T10:04:33Z</time>
   </trkpt>
   <trkpt lat="-3.0967230" lon="37.3274430">
    <ele>3948.8</ele>
    <time>2026-06-21T10:04:37Z</time>
   </trkpt>
   <trkpt lat="-3.0966960" lon="37.3274460">
    <ele>3949.2</ele>
    <time>2026-06-21T10:04:42Z</time>
   </trkpt>
   <trkpt lat="-3.0966700" lon="37.3274510">
    <ele>3949.6</ele>
    <time>2026-06-21T10:04:47Z</time>
   </trkpt>
   <trkpt lat="-3.0966430" lon="37.3274650">
    <ele>3950.0</ele>
    <time>2026-06-21T10:04:53Z</time>
   </trkpt>
   <trkpt lat="-3.0966280" lon="37.3274840">
    <ele>3950.3</ele>
    <time>2026-06-21T10:04:57Z</time>
   </trkpt>
   <trkpt lat="-3.0966060" lon="37.3274920">
    <ele>3950.6</ele>
    <time>2026-06-21T10:05:01Z</time>
   </trkpt>
   <trkpt lat="-3.0965800" lon="37.3274940">
    <ele>3950.8</ele>
    <time>2026-06-21T10:05:05Z</time>
   </trkpt>
   <trkpt lat="-3.0965550" lon="37.3274950">
    <ele>3951.1</ele>
    <time>2026-06-21T10:05:09Z</time>
   </trkpt>
   <trkpt lat="-3.0965320" lon="37.3275030">
    <ele>3951.3</ele>
    <time>2026-06-21T10:05:15Z</time>
   </trkpt>
   <trkpt lat="-3.0965070" lon="37.3275150">
    <ele>3951.6</ele>
    <time>2026-06-21T10:05:19Z</time>
   </trkpt>
   <trkpt lat="-3.0964780" lon="37.3275090">
    <ele>3951.8</ele>
    <time>2026-06-21T10:05:23Z</time>
   </trkpt>
   <trkpt lat="-3.0964560" lon="37.3275100">
    <ele>3951.9</ele>
    <time>2026-06-21T10:05:26Z</time>
   </trkpt>
   <trkpt lat="-3.0964340" lon="37.3275210">
    <ele>3952.1</ele>
    <time>2026-06-21T10:05:28Z</time>
   </trkpt>
   <trkpt lat="-3.0964130" lon="37.3275330">
    <ele>3952.2</ele>
    <time>2026-06-21T10:05:31Z</time>
   </trkpt>
   <trkpt lat="-3.0963960" lon="37.3275490">
    <ele>3952.3</ele>
    <time>2026-06-21T10:05:33Z</time>
   </trkpt>
   <trkpt lat="-3.0963670" lon="37.3275570">
    <ele>3952.5</ele>
    <time>2026-06-21T10:05:37Z</time>
   </trkpt>
   <trkpt lat="-3.0963510" lon="37.3275780">
    <ele>3952.6</ele>
    <time>2026-06-21T10:05:40Z</time>
   </trkpt>
   <trkpt lat="-3.0963290" lon="37.3275910">
    <ele>3952.8</ele>
    <time>2026-06-21T10:05:43Z</time>
   </trkpt>
   <trkpt lat="-3.0963050" lon="37.3275900">
    <ele>3952.9</ele>
    <time>2026-06-21T10:05:47Z</time>
   </trkpt>
   <trkpt lat="-3.0962730" lon="37.3275980">
    <ele>3953.1</ele>
    <time>2026-06-21T10:05:52Z</time>
   </trkpt>
   <trkpt lat="-3.0962430" lon="37.3276080">
    <ele>3953.3</ele>
    <time>2026-06-21T10:05:57Z</time>
   </trkpt>
   <trkpt lat="-3.0962130" lon="37.3276140">
    <ele>3953.5</ele>
    <time>2026-06-21T10:06:01Z</time>
   </trkpt>
   <trkpt lat="-3.0961890" lon="37.3276150">
    <ele>3953.7</ele>
    <time>2026-06-21T10:06:08Z</time>
   </trkpt>
   <trkpt lat="-3.0961570" lon="37.3276180">
    <ele>3953.9</ele>
    <time>2026-06-21T10:06:12Z</time>
   </trkpt>
   <trkpt lat="-3.0961390" lon="37.3276330">
    <ele>3954.0</ele>
    <time>2026-06-21T10:06:15Z</time>
   </trkpt>
   <trkpt lat="-3.0961130" lon="37.3276380">
    <ele>3954.2</ele>
    <time>2026-06-21T10:06:20Z</time>
   </trkpt>
   <trkpt lat="-3.0960890" lon="37.3276630">
    <ele>3954.4</ele>
    <time>2026-06-21T10:06:23Z</time>
   </trkpt>
   <trkpt lat="-3.0960640" lon="37.3276860">
    <ele>3954.6</ele>
    <time>2026-06-21T10:06:26Z</time>
   </trkpt>
   <trkpt lat="-3.0960430" lon="37.3277070">
    <ele>3954.7</ele>
    <time>2026-06-21T10:06:29Z</time>
   </trkpt>
   <trkpt lat="-3.0960320" lon="37.3277330">
    <ele>3954.8</ele>
    <time>2026-06-21T10:06:33Z</time>
   </trkpt>
   <trkpt lat="-3.0960170" lon="37.3277600">
    <ele>3954.9</ele>
    <time>2026-06-21T10:06:38Z</time>
   </trkpt>
   <trkpt lat="-3.0960070" lon="37.3277870">
    <ele>3955.0</ele>
    <time>2026-06-21T10:06:42Z</time>
   </trkpt>
   <trkpt lat="-3.0959800" lon="37.3278070">
    <ele>3955.0</ele>
    <time>2026-06-21T10:06:45Z</time>
   </trkpt>
   <trkpt lat="-3.0959690" lon="37.3278280">
    <ele>3955.1</ele>
    <time>2026-06-21T10:06:47Z</time>
   </trkpt>
   <trkpt lat="-3.0959610" lon="37.3278540">
    <ele>3955.2</ele>
    <time>2026-06-21T10:06:59Z</time>
   </trkpt>
   <trkpt lat="-3.0959530" lon="37.3278750">
    <ele>3955.3</ele>
    <time>2026-06-21T10:07:02Z</time>
   </trkpt>
   <trkpt lat="-3.0959410" lon="37.3278970">
    <ele>3955.4</ele>
    <time>2026-06-21T10:07:04Z</time>
   </trkpt>
   <trkpt lat="-3.0959320" lon="37.3279190">
    <ele>3955.6</ele>
    <time>2026-06-21T10:07:06Z</time>
   </trkpt>
   <trkpt lat="-3.0959380" lon="37.3279410">
    <ele>3955.7</ele>
    <time>2026-06-21T10:07:09Z</time>
   </trkpt>
   <trkpt lat="-3.0959350" lon="37.3279660">
    <ele>3955.9</ele>
    <time>2026-06-21T10:07:13Z</time>
   </trkpt>
   <trkpt lat="-3.0959060" lon="37.3279720">
    <ele>3956.1</ele>
    <time>2026-06-21T10:07:18Z</time>
   </trkpt>
   <trkpt lat="-3.0958790" lon="37.3279680">
    <ele>3956.4</ele>
    <time>2026-06-21T10:07:22Z</time>
   </trkpt>
   <trkpt lat="-3.0958620" lon="37.3279860">
    <ele>3956.6</ele>
    <time>2026-06-21T10:07:28Z</time>
   </trkpt>
   <trkpt lat="-3.0958540" lon="37.3280090">
    <ele>3956.9</ele>
    <time>2026-06-21T10:07:34Z</time>
   </trkpt>
   <trkpt lat="-3.0958260" lon="37.3280200">
    <ele>3957.1</ele>
    <time>2026-06-21T10:07:39Z</time>
   </trkpt>
   <trkpt lat="-3.0958060" lon="37.3280370">
    <ele>3957.4</ele>
    <time>2026-06-21T10:07:45Z</time>
   </trkpt>
   <trkpt lat="-3.0957860" lon="37.3280510">
    <ele>3957.5</ele>
    <time>2026-06-21T10:07:52Z</time>
   </trkpt>
   <trkpt lat="-3.0957780" lon="37.3280760">
    <ele>3957.7</ele>
    <time>2026-06-21T10:08:00Z</time>
   </trkpt>
   <trkpt lat="-3.0957530" lon="37.3280840">
    <ele>3957.7</ele>
    <time>2026-06-21T10:08:05Z</time>
   </trkpt>
   <trkpt lat="-3.0957360" lon="37.3281020">
    <ele>3957.8</ele>
    <time>2026-06-21T10:08:08Z</time>
   </trkpt>
   <trkpt lat="-3.0957200" lon="37.3281180">
    <ele>3957.8</ele>
    <time>2026-06-21T10:08:12Z</time>
   </trkpt>
   <trkpt lat="-3.0957070" lon="37.3281380">
    <ele>3957.9</ele>
    <time>2026-06-21T10:08:16Z</time>
   </trkpt>
   <trkpt lat="-3.0957000" lon="37.3281640">
    <ele>3957.9</ele>
    <time>2026-06-21T10:08:21Z</time>
   </trkpt>
   <trkpt lat="-3.0956780" lon="37.3281850">
    <ele>3957.9</ele>
    <time>2026-06-21T10:08:25Z</time>
   </trkpt>
   <trkpt lat="-3.0956700" lon="37.3282060">
    <ele>3957.8</ele>
    <time>2026-06-21T10:08:28Z</time>
   </trkpt>
   <trkpt lat="-3.0956640" lon="37.3282290">
    <ele>3957.8</ele>
    <time>2026-06-21T10:08:31Z</time>
   </trkpt>
   <trkpt lat="-3.0956440" lon="37.3282490">
    <ele>3957.7</ele>
    <time>2026-06-21T10:08:34Z</time>
   </trkpt>
   <trkpt lat="-3.0956300" lon="37.3282690">
    <ele>3957.6</ele>
    <time>2026-06-21T10:08:38Z</time>
   </trkpt>
   <trkpt lat="-3.0956060" lon="37.3282860">
    <ele>3957.5</ele>
    <time>2026-06-21T10:08:42Z</time>
   </trkpt>
   <trkpt lat="-3.0955960" lon="37.3283070">
    <ele>3957.3</ele>
    <time>2026-06-21T10:08:48Z</time>
   </trkpt>
   <trkpt lat="-3.0955950" lon="37.3283360">
    <ele>3957.1</ele>
    <time>2026-06-21T10:08:52Z</time>
   </trkpt>
   <trkpt lat="-3.0956090" lon="37.3283650">
    <ele>3956.9</ele>
    <time>2026-06-21T10:08:57Z</time>
   </trkpt>
   <trkpt lat="-3.0956090" lon="37.3283940">
    <ele>3956.8</ele>
    <time>2026-06-21T10:09:01Z</time>
   </trkpt>
   <trkpt lat="-3.0956000" lon="37.3284220">
    <ele>3956.6</ele>
    <time>2026-06-21T10:09:06Z</time>
   </trkpt>
   <trkpt lat="-3.0956080" lon="37.3284470">
    <ele>3956.6</ele>
    <time>2026-06-21T10:09:11Z</time>
   </trkpt>
   <trkpt lat="-3.0956000" lon="37.3284690">
    <ele>3956.6</ele>
    <time>2026-06-21T10:09:15Z</time>
   </trkpt>
   <trkpt lat="-3.0955920" lon="37.3284910">
    <ele>3956.7</ele>
    <time>2026-06-21T10:09:23Z</time>
   </trkpt>
   <trkpt lat="-3.0955840" lon="37.3285120">
    <ele>3956.8</ele>
    <time>2026-06-21T10:09:28Z</time>
   </trkpt>
   <trkpt lat="-3.0955710" lon="37.3285330">
    <ele>3957.0</ele>
    <time>2026-06-21T10:09:35Z</time>
   </trkpt>
   <trkpt lat="-3.0955650" lon="37.3285640">
    <ele>3957.3</ele>
    <time>2026-06-21T10:09:41Z</time>
   </trkpt>
   <trkpt lat="-3.0955520" lon="37.3285890">
    <ele>3957.7</ele>
    <time>2026-06-21T10:10:03Z</time>
   </trkpt>
   <trkpt lat="-3.0955300" lon="37.3285980">
    <ele>3958.0</ele>
    <time>2026-06-21T10:10:09Z</time>
   </trkpt>
   <trkpt lat="-3.0955070" lon="37.3286090">
    <ele>3958.4</ele>
    <time>2026-06-21T10:10:27Z</time>
   </trkpt>
   <trkpt lat="-3.0955080" lon="37.3286370">
    <ele>3958.7</ele>
    <time>2026-06-21T10:10:36Z</time>
   </trkpt>
   <trkpt lat="-3.0955070" lon="37.3286620">
    <ele>3959.1</ele>
    <time>2026-06-21T10:10:48Z</time>
   </trkpt>
   <trkpt lat="-3.0955000" lon="37.3286830">
    <ele>3959.4</ele>
    <time>2026-06-21T10:10:57Z</time>
   </trkpt>
   <trkpt lat="-3.0955120" lon="37.3287030">
    <ele>3959.8</ele>
    <time>2026-06-21T10:11:04Z</time>
   </trkpt>
   <trkpt lat="-3.0955060" lon="37.3287260">
    <ele>3960.1</ele>
    <time>2026-06-21T10:11:11Z</time>
   </trkpt>
   <trkpt lat="-3.0955070" lon="37.3287500">
    <ele>3960.5</ele>
    <time>2026-06-21T10:11:20Z</time>
   </trkpt>
   <trkpt lat="-3.0955110" lon="37.3287760">
    <ele>3960.9</ele>
    <time>2026-06-21T10:11:34Z</time>
   </trkpt>
   <trkpt lat="-3.0955180" lon="37.3288000">
    <ele>3961.3</ele>
    <time>2026-06-21T10:11:37Z</time>
   </trkpt>
   <trkpt lat="-3.0955140" lon="37.3288240">
    <ele>3961.7</ele>
    <time>2026-06-21T10:11:40Z</time>
   </trkpt>
   <trkpt lat="-3.0955100" lon="37.3288500">
    <ele>3962.1</ele>
    <time>2026-06-21T10:11:43Z</time>
   </trkpt>
   <trkpt lat="-3.0955090" lon="37.3288740">
    <ele>3962.4</ele>
    <time>2026-06-21T10:11:46Z</time>
   </trkpt>
   <trkpt lat="-3.0955140" lon="37.3288980">
    <ele>3962.8</ele>
    <time>2026-06-21T10:11:49Z</time>
   </trkpt>
   <trkpt lat="-3.0955090" lon="37.3289210">
    <ele>3963.2</ele>
    <time>2026-06-21T10:11:52Z</time>
   </trkpt>
   <trkpt lat="-3.0955280" lon="37.3289420">
    <ele>3963.7</ele>
    <time>2026-06-21T10:11:54Z</time>
   </trkpt>
   <trkpt lat="-3.0955350" lon="37.3289680">
    <ele>3964.2</ele>
    <time>2026-06-21T10:11:57Z</time>
   </trkpt>
   <trkpt lat="-3.0955390" lon="37.3289960">
    <ele>3964.8</ele>
    <time>2026-06-21T10:12:00Z</time>
   </trkpt>
   <trkpt lat="-3.0955470" lon="37.3290190">
    <ele>3965.3</ele>
    <time>2026-06-21T10:12:03Z</time>
   </trkpt>
   <trkpt lat="-3.0955550" lon="37.3290490">
    <ele>3966.0</ele>
    <time>2026-06-21T10:12:06Z</time>
   </trkpt>
   <trkpt lat="-3.0955610" lon="37.3290770">
    <ele>3966.6</ele>
    <time>2026-06-21T10:12:09Z</time>
   </trkpt>
   <trkpt lat="-3.0955610" lon="37.3290990">
    <ele>3966.7</ele>
    <time>2026-06-21T10:12:12Z</time>
   </trkpt>
   <trkpt lat="-3.0955570" lon="37.3291240">
    <ele>3966.6</ele>
    <time>2026-06-21T10:12:15Z</time>
   </trkpt>
   <trkpt lat="-3.0955480" lon="37.3291450">
    <ele>3966.5</ele>
    <time>2026-06-21T10:12:18Z</time>
   </trkpt>
   <trkpt lat="-3.0955370" lon="37.3291670">
    <ele>3966.4</ele>
    <time>2026-06-21T10:12:36Z</time>
   </trkpt>
   <trkpt lat="-3.0955310" lon="37.3291930">
    <ele>3966.3</ele>
    <time>2026-06-21T10:12:55Z</time>
   </trkpt>
   <trkpt lat="-3.0955380" lon="37.3292180">
    <ele>3966.2</ele>
    <time>2026-06-21T10:13:09Z</time>
   </trkpt>
   <trkpt lat="-3.0955480" lon="37.3292440">
    <ele>3966.1</ele>
    <time>2026-06-21T10:13:13Z</time>
   </trkpt>
   <trkpt lat="-3.0955440" lon="37.3292700">
    <ele>3966.1</ele>
    <time>2026-06-21T10:13:16Z</time>
   </trkpt>
   <trkpt lat="-3.0955320" lon="37.3292900">
    <ele>3966.0</ele>
    <time>2026-06-21T10:13:19Z</time>
   </trkpt>
   <trkpt lat="-3.0955300" lon="37.3293120">
    <ele>3966.0</ele>
    <time>2026-06-21T10:13:22Z</time>
   </trkpt>
   <trkpt lat="-3.0955310" lon="37.3293410">
    <ele>3966.0</ele>
    <time>2026-06-21T10:13:25Z</time>
   </trkpt>
   <trkpt lat="-3.0955290" lon="37.3293690">
    <ele>3966.0</ele>
    <time>2026-06-21T10:13:29Z</time>
   </trkpt>
   <trkpt lat="-3.0955320" lon="37.3293940">
    <ele>3966.0</ele>
    <time>2026-06-21T10:13:33Z</time>
   </trkpt>
   <trkpt lat="-3.0955270" lon="37.3294170">
    <ele>3966.0</ele>
    <time>2026-06-21T10:13:37Z</time>
   </trkpt>
   <trkpt lat="-3.0955110" lon="37.3294350">
    <ele>3966.0</ele>
    <time>2026-06-21T10:13:44Z</time>
   </trkpt>
   <trkpt lat="-3.0954950" lon="37.3294520">
    <ele>3965.9</ele>
    <time>2026-06-21T10:13:46Z</time>
   </trkpt>
   <trkpt lat="-3.0955060" lon="37.3294720">
    <ele>3965.9</ele>
    <time>2026-06-21T10:14:01Z</time>
   </trkpt>
   <trkpt lat="-3.0955220" lon="37.3294990">
    <ele>3965.8</ele>
    <time>2026-06-21T10:14:08Z</time>
   </trkpt>
   <trkpt lat="-3.0955220" lon="37.3295220">
    <ele>3965.8</ele>
    <time>2026-06-21T10:14:23Z</time>
   </trkpt>
   <trkpt lat="-3.0955320" lon="37.3295450">
    <ele>3965.7</ele>
    <time>2026-06-21T10:14:28Z</time>
   </trkpt>
   <trkpt lat="-3.0955460" lon="37.3295260">
    <ele>3965.7</ele>
    <time>2026-06-21T10:15:32Z</time>
   </trkpt>
   <trkpt lat="-3.0955630" lon="37.3295100">
    <ele>3965.6</ele>
    <time>2026-06-21T10:16:23Z</time>
   </trkpt>
   <trkpt lat="-3.0955650" lon="37.3295150">
    <ele>3965.6</ele>
    <time>2026-06-21T10:16:36Z</time>
   </trkpt>
   <trkpt lat="-3.0955610" lon="37.3295130">
    <ele>3965.6</ele>
    <time>2026-06-21T10:16:44Z</time>
   </trkpt>
   <trkpt lat="-3.0955610" lon="37.3295200">
    <ele>3965.6</ele>
    <time>2026-06-21T10:16:59Z</time>
   </trkpt>
  </trkseg>
 </trk>
</gpx>
